Date StartTime U_cm/s V_cm/s W_cm/s Ustd_cm/s Vstd_cm/s Wstd_cm/s Uvar_(cm/s)^2 Vvar_(cm/s)^2 Wvar_(cm/s)^2 KE_(m/s)^2 TurbulentKE_(m/s)^2 HorizWindSpeed_cm/s FrictionSpeec_cm/s DragCoef SpeedOfSound_m/s SonicTemperature_C Pressure_mb 
12/12/2014  00:00:00      -40.520      175.485       -1.436       44.952       88.917       46.592     2020.677     7906.192     2170.782        2.227        0.605      180.102       32.922        0.033      336.520        7.875      846.339
12/12/2014  00:01:00      -39.102       67.398        0.506       54.104       88.802       48.401     2927.229     7885.736     2342.635        0.961        0.658       77.919       37.588        0.233      336.600        8.011      846.444
12/12/2014  00:02:00      -52.263       22.815        8.185       77.547       72.183       34.413     6013.561     5210.350     1184.239        0.786        0.620       57.026       32.835        0.332      336.663        8.115      846.520
12/12/2014  00:03:00     -106.196       25.941      -14.155       56.270       74.282       50.432     3166.276     5517.757     2543.419        1.169        0.561      109.318       33.024        0.091      336.578        7.973      846.557
12/12/2014  00:04:00      -81.807       57.488        6.524       60.932       85.500       33.489     3712.662     7310.215     1121.537        1.109        0.607       99.986       21.019        0.044      336.659        8.109      846.553
12/12/2014  00:05:00      -68.324       72.852       -4.253       55.789       79.081       40.236     3112.395     6253.742     1618.911        1.049        0.549       99.878       37.201        0.139      336.568        7.958      846.465
12/12/2014  00:06:00     -115.749       91.673      -12.954       70.044       55.500       36.938     4906.125     3080.283     1364.387        1.566        0.468      147.654       31.371        0.045      336.603        8.017      846.417
12/12/2014  00:07:00     -126.984      235.436      -26.910       74.847      133.290       50.636     5602.019    17766.192     2563.982        4.910        1.297      267.498       50.969        0.036      336.444        7.744      846.394
12/12/2014  00:08:00     -153.051      168.566      -30.290       71.784      101.846       47.368     5153.012    10372.668     2243.761        3.526        0.888      227.682       50.435        0.049      336.495        7.831      846.389
12/12/2014  00:09:00     -113.688       99.919      -16.189       60.976      102.078       54.062     3718.030    10419.983     2922.668        2.011        0.853      151.357       33.806        0.050      336.551        7.928      846.339
12/12/2014  00:10:00     -147.414      120.615      -27.855       76.938       83.447       49.635     5919.475     6963.442     2463.607        2.620        0.767      190.470       42.311        0.049      336.517        7.868      846.304
12/12/2014  00:11:00     -137.705       77.684      -13.964       95.474      113.769       55.881     9115.329    12943.282     3122.650        2.518        1.259      158.106       51.483        0.106      336.550        7.925      846.276
12/12/2014  00:12:00     -258.932      187.248      -44.259       93.343      132.902       67.483     8712.904    17663.022     4554.004        6.749        1.546      319.543       68.730        0.046      336.472        7.792      846.209
12/12/2014  00:13:00     -255.154      292.336      -58.909       64.708      119.841       46.113     4187.076    14361.933     2126.384        8.735        1.034      388.026       38.492        0.010      336.379        7.636      846.169
12/12/2014  00:14:00     -166.663      173.534      -30.282       95.285       97.378       58.207     9079.204     9482.538     3388.108        4.037        1.097      240.604       54.173        0.051      336.442        7.743      846.250
12/12/2014  00:15:00     -205.605      129.110      -41.598      119.760      124.239       56.871    14342.357    15435.282     3234.301        4.684        1.651      242.782       65.588        0.073      336.373        7.629      846.385
12/12/2014  00:16:00     -111.987       86.521      -21.264       70.483       82.921       48.803     4967.871     6875.893     2381.735        1.735        0.711      141.517       38.885        0.075      336.518        7.872      846.360
12/12/2014  00:17:00     -137.635      287.419      -29.727       98.152      125.166       70.764     9633.740    15666.444     5007.539        6.637        1.515      318.674       61.119        0.037      336.357        7.600      846.227
12/12/2014  00:18:00     -130.040      155.447      -14.886       85.977       93.839       61.514     7392.124     8805.773     3784.029        3.063        0.999      202.668       62.538        0.095      336.435        7.733      846.119
12/12/2014  00:19:00     -135.882      190.441      -28.402       82.037       93.242       53.979     6730.098     8694.120     2913.703        3.693        0.917      233.948       61.264        0.069      336.378        7.637      846.029
12/12/2014  00:20:00     -136.859       97.651      -20.504       84.125      120.979       46.388     7077.042    14635.869     2151.852        2.627        1.193      168.125       51.803        0.095      336.468        7.787      846.040
12/12/2014  00:21:00     -208.267      144.959      -17.019      125.266      155.451       78.937    15691.532    24164.862     6231.098        5.537        2.304      253.748       80.390        0.100      336.381        7.639      846.117
12/12/2014  00:22:00     -227.990      435.654      -57.661       91.361      104.329       68.627     8346.795    10884.521     4709.621       13.451        1.197      491.705       50.413        0.011      336.240        7.405      846.211
12/12/2014  00:23:00     -123.640      181.232      -26.990      111.051       86.693       58.794    12332.369     7515.593     3456.712        3.608        1.165      219.390       62.832        0.082      336.338        7.570      846.289
12/12/2014  00:24:00     -120.156      311.924      -44.076       77.199      108.230       49.652     5959.690    11713.634     2465.315        6.690        1.007      334.266       54.617        0.027      336.336        7.564      846.305
12/12/2014  00:25:00     -133.128      254.665      -25.095       94.688       97.775       65.272     8965.887     9559.924     4260.495        5.299        1.139      287.363       56.476        0.039      336.331        7.557      846.309
12/12/2014  00:26:00     -165.391      255.355      -37.181      114.154      134.303       64.077    13031.110    18037.264     4105.882        6.455        1.759      304.237       52.598        0.030      336.328        7.551      846.311
12/12/2014  00:27:00     -159.233      314.652      -50.271      111.782      132.607       73.941    12495.191    17584.549     5467.246        8.121        1.777      352.648       62.575        0.031      336.335        7.564      846.347
12/12/2014  00:28:00     -143.705      278.350      -39.618       82.876      126.694       59.225     6868.443    16051.368     3507.617        6.306        1.321      313.257       51.386        0.027      336.324        7.546      846.430
12/12/2014  00:29:00     -180.593      261.877      -38.861      115.379      100.525       59.945    13312.354    10105.290     3593.370        6.485        1.351      318.109       64.327        0.041      336.297        7.500      846.456
12/12/2014  00:30:00     -185.249      209.110      -35.855      104.717      112.772       64.069    10965.732    12717.428     4104.839        5.355        1.389      279.364       69.941        0.063      336.310        7.522      846.433
12/12/2014  00:31:00      -93.338      207.784      -16.919       81.242      121.295       60.490     6600.324    14712.554     3659.021        3.857        1.249      227.785       66.112        0.084      336.316        7.534      846.440
12/12/2014  00:32:00     -111.206      273.128      -33.563       63.749      102.280       49.758     4063.999    10461.241     2475.877        5.254        0.850      294.900       50.898        0.030      336.268        7.451      846.488
12/12/2014  00:33:00     -142.983      331.724      -51.710      102.054      111.795       48.112    10414.935    12498.156     2314.799        7.919        1.261      361.227       46.229        0.016      336.239        7.404      846.454
12/12/2014  00:34:00      -28.645      263.419      -19.055       71.532       85.047       53.990     5116.765     7232.998     2914.958        4.292        0.763      264.972       46.682        0.031      336.252        7.424      846.433
12/12/2014  00:35:00       -9.115      147.959        2.834       83.027       89.052       58.336     6893.443     7930.226     3403.041        2.010        0.911      148.240       55.195        0.139      336.295        7.499      846.481
12/12/2014  00:36:00        7.149      234.281      -10.480       96.223      122.211       68.070     9258.778    14935.524     4633.580        4.193        1.441      234.390       84.862        0.131      336.224        7.380      846.523
12/12/2014  00:37:00      -84.323      164.482      -17.675      112.275       83.283       54.139    12605.599     6936.139     2930.979        2.847        1.124      184.837       47.701        0.067      336.370        7.624      846.554
12/12/2014  00:38:00     -142.596      267.842      -51.970       94.933      107.345       57.915     9012.350    11522.917     3354.140        5.933        1.194      303.436       51.705        0.029      336.356        7.598      846.524
12/12/2014  00:39:00     -152.674      376.079      -40.823      131.748      113.386       78.684    17357.446    12856.321     6191.141       10.140        1.820      405.887       63.954        0.025      336.266        7.449      846.438
12/12/2014  00:40:00     -156.012      375.444      -52.136       81.436      122.052       67.046     6631.745    14896.771     4495.109        9.701        1.301      406.569       65.386        0.026      336.261        7.439      846.370
12/12/2014  00:41:00     -123.173      390.836      -42.266       90.259      124.307       55.881     8146.746    15452.108     3122.694        9.821        1.336      409.786       52.003        0.016      336.211        7.357      846.297
12/12/2014  00:42:00     -132.833      339.268      -42.640      100.926      126.478       68.250    10186.043    15996.589     4658.076        8.270        1.542      364.345       54.170        0.022      336.248        7.419      846.305
12/12/2014  00:43:00      -79.782      251.768      -37.002       68.068      112.569       55.724     4633.258    12671.670     3105.149        4.576        1.021      264.107       63.471        0.058      336.236        7.400      846.324
12/12/2014  00:44:00      -59.908      352.955      -42.699       78.788      114.127       58.203     6207.549    13024.984     3387.536        7.630        1.131      358.003       56.076        0.025      336.159        7.270      846.234
12/12/2014  00:45:00      -75.068      409.584      -44.061       93.893      145.759       59.864     8815.908    21245.560     3583.648       10.448        1.682      416.406       64.731        0.024      336.155        7.263      846.232
12/12/2014  00:46:00      -91.082      303.529      -35.381       95.799      103.518       60.360     9177.438    10715.920     3643.295        6.260        1.177      316.900       51.587        0.026      336.191        7.323      846.357
12/12/2014  00:47:00     -117.207      386.245      -44.706       73.059      107.077       57.797     5337.624    11465.531     3340.496        9.253        1.007      403.636       58.241        0.021      336.177        7.300      846.312
12/12/2014  00:48:00      -65.942      320.728      -31.840       71.178      114.955       46.600     5066.374    13214.684     2171.524        6.434        1.023      327.436       36.706        0.013      336.226        7.381      846.273
12/12/2014  00:49:00      -89.087      440.943      -55.981       63.216      122.785       55.587     3996.304    15076.087     3089.919       11.383        1.108      449.853       64.680        0.021      336.201        7.341      846.225
12/12/2014  00:50:00     -101.097      262.813      -36.858       83.653      114.530       49.943     6997.810    13117.118     2494.261        5.162        1.130      281.587       45.115        0.026      336.252        7.425      846.218
12/12/2014  00:51:00     -153.611      161.471      -38.096       72.314       82.128       40.606     5229.252     6744.953     1648.850        3.237        0.681      222.866       44.020        0.039      336.362        7.611      846.277
12/12/2014  00:52:00     -185.547      112.787      -34.469       63.837       91.903       47.214     4075.119     8446.170     2229.122        3.154        0.738      217.137       39.273        0.033      336.400        7.674      846.364
12/12/2014  00:53:00     -156.296      163.717      -19.972       84.143       98.104       57.973     7080.039     9624.368     3360.880        3.584        1.003      226.344       54.872        0.059      336.297        7.500      846.311
12/12/2014  00:54:00     -205.227      274.368      -57.805       94.411       86.782       56.745     8913.371     7531.149     3220.020        7.020        0.983      342.631       52.924        0.024      336.218        7.370      846.377
12/12/2014  00:55:00     -195.220      195.037      -37.816       96.009      117.106       51.783     9217.660    13713.726     2681.528        5.159        1.281      275.954       51.576        0.035      336.254        7.428      846.398
12/12/2014  00:56:00     -146.374      160.652      -16.274       76.684       87.765       53.392     5880.359     7702.650     2850.658        3.196        0.822      217.335       51.338        0.056      336.304        7.512      846.346
12/12/2014  00:57:00     -168.635      232.232      -36.793       88.788      103.757       54.470     7883.315    10765.491     2966.945        5.267        1.081      287.001       51.958        0.033      336.298        7.503      846.315
12/12/2014  00:58:00     -201.520      223.109      -43.001      108.983      131.023       58.885    11877.273    17167.048     3467.496        6.237        1.626      300.646       59.209        0.039      336.309        7.521      846.335
12/12/2014  00:59:00     -188.273      130.894      -34.383      106.580      145.536       56.361    11359.386    21180.770     3176.585        4.473        1.786      229.303       67.008        0.085      336.410        7.689      846.359
12/12/2014  01:00:00     -241.918      313.898      -61.493       99.038      133.975       69.564     9808.472    17949.168     4839.164        9.671        1.630      396.303       66.925        0.029      336.353        7.593      846.381
12/12/2014  01:01:00     -203.464      258.753      -31.229      118.313      124.141       64.331    13997.982    15411.004     4138.493        7.143        1.677      329.167       66.931        0.041      336.361        7.608      846.286
12/12/2014  01:02:00     -161.789      272.478      -37.088      102.030      105.999       63.480    10410.210    11235.792     4029.743        6.373        1.284      316.891       64.526        0.041      336.373        7.627      846.249
12/12/2014  01:03:00      -92.694      302.207      -21.471      103.564      110.898       73.494    10725.470    12298.387     5401.347        6.440        1.421      316.103       60.028        0.036      336.396        7.664      846.248
12/12/2014  01:04:00     -115.278      272.764      -37.765       69.265      119.351       65.560     4797.687    14244.628     4298.099        5.622        1.167      296.124       62.515        0.045      336.438        7.736      846.269
12/12/2014  01:05:00     -125.125      270.429      -30.980       88.528       87.431       55.961     7837.221     7644.248     3131.689        5.418        0.931      297.973       53.179        0.032      336.450        7.756      846.216
12/12/2014  01:06:00      -95.190      284.488      -34.706       91.775       85.806       44.808     8422.662     7362.742     2007.740        5.449        0.890      299.991       34.069        0.013      336.455        7.764      846.135
12/12/2014  01:07:00      -38.325      226.876      -30.080       57.672       45.240       31.271     3326.062     2046.676      977.879        3.010        0.318      230.090       18.529        0.006      336.419        7.705      846.113
12/12/2014  01:08:00        0.963      182.989      -14.844       72.164      103.948       57.386     5207.672    10805.241     3293.208        2.650        0.965      182.992       55.246        0.091      336.391        7.658      846.101
12/12/2014  01:09:00       78.673       87.061       19.438       68.128       53.872       43.149     4641.461     2902.220     1861.833        1.177        0.470      117.342       26.823        0.052      336.379        7.640      846.130
12/12/2014  01:10:00      144.375       91.644       15.019       61.810       54.692       44.529     3820.508     2991.206     1982.790        1.913        0.440      171.006       16.931        0.010      336.388        7.655      846.150
12/12/2014  01:11:00       52.409       12.255       17.781       49.058       41.414       23.422     2406.672     1715.157      548.597        0.394        0.234       53.822       27.568        0.262      336.391        7.662      846.194
12/12/2014  01:12:00       13.605       15.495       31.463       28.559       25.389       17.415      815.639      644.618      303.295        0.159        0.088       20.620       10.818        0.275      336.421        7.712      846.227
12/12/2014  01:13:00       30.821       32.945       17.761       34.932       21.438       18.276     1220.213      459.572      334.014        0.218        0.101       45.114        8.907        0.039      336.456        7.769      846.240
12/12/2014  01:14:00        3.551       31.619       -6.315       30.019       22.310       14.107      901.151      497.741      199.014        0.132        0.080       31.818        8.703        0.075      336.448        7.756      846.248
12/12/2014  01:15:00      -61.212      -20.808      -12.367       18.223       30.522        9.741      332.064      931.622       94.878        0.285        0.068       64.652        7.853        0.015      336.552        7.932      846.299
12/12/2014  01:16:00        9.681      -33.388        1.484       20.750       26.341       19.724      430.570      693.851      389.042        0.136        0.076       34.764        9.737        0.078      336.614        8.037      846.388
12/12/2014  01:17:00      -55.715      -74.257      -13.773       28.773       16.718       17.100      827.859      279.488      292.409        0.510        0.070       92.834        6.173        0.004      336.697        8.175      846.452
12/12/2014  01:18:00      -39.102      -29.747      -11.477       22.339       29.265       15.765      499.017      856.459      248.547        0.207        0.080       49.131       10.233        0.043      336.698        8.176      846.457
12/12/2014  01:19:00      -43.271      -11.593        4.795       22.155       21.439       15.729      490.832      459.645      247.406        0.161        0.060       44.797        8.355        0.035      336.702        8.182      846.435
12/12/2014  01:20:00      -31.625       36.031       -1.550       69.237       30.007       32.515     4793.715      900.445     1057.226        0.452        0.338       47.941       40.326        0.708      336.631        8.064      846.401
12/12/2014  01:21:00      -42.624       57.276       -3.814       42.301       42.213       23.365     1789.392     1781.973      545.913        0.461        0.206       71.396       24.878        0.121      336.859        8.444      846.335
12/12/2014  01:22:00        4.287       46.211        4.780       37.972       38.904       16.965     1441.879     1513.554      287.799        0.271        0.162       46.410       11.253        0.059      336.707        8.190      846.310
12/12/2014  01:23:00       30.565      139.597      -10.055       79.192       72.389       48.913     6271.297     5240.200     2392.451        1.721        0.695      142.904       43.299        0.092      336.564        7.951      846.292
12/12/2014  01:24:00        8.749       30.596        5.085       41.223       62.540       34.984     1699.326     3911.307     1223.887        0.394        0.342       31.823       34.481        1.174      336.500        7.845      846.365
12/12/2014  01:25:00       41.496       97.116      -12.508       50.737       90.642       35.747     2574.259     8215.887     1277.874        1.169        0.603      105.610       29.189        0.076      336.439        7.740      846.486
12/12/2014  01:26:00      -42.728      146.824      -15.815       60.935       56.925       37.081     3713.035     3240.511     1374.964        1.598        0.416      152.915       34.349        0.050      336.440        7.742      846.587
12/12/2014  01:27:00      -40.741       93.965       -8.951       53.322       67.485       34.805     2843.218     4554.260     1211.409        0.959        0.430      102.417       29.768        0.084      336.498        7.840      846.608
12/12/2014  01:28:00      -45.871       78.751       -3.804       45.228       43.089       27.708     2045.533     1856.622      767.715        0.649        0.233       91.136       22.681        0.062      336.653        8.100      846.601
12/12/2014  01:29:00     -156.982      -64.633       -2.418       62.698       67.644       27.979     3931.068     4575.761      782.827        1.906        0.464      169.766       30.030        0.031      336.582        7.979      846.582
12/12/2014  01:30:00       21.920       56.443        7.647       49.619       78.114       32.532     2462.057     6101.739     1058.336        0.667        0.481       60.550       40.805        0.454      336.515        7.869      846.620
12/12/2014  01:31:00      -29.921       -3.472        1.814       46.885       44.552       20.282     2198.217     1984.915      411.347        0.275        0.230       30.122       15.853        0.277      336.511        7.863      846.661
12/12/2014  01:32:00      -34.171       61.504        2.967       63.206       46.879       44.470     3994.936     2197.635     1977.538        0.656        0.409       70.360       35.270        0.251      336.409        7.689      846.690
12/12/2014  01:33:00      -42.218      104.002      -12.284       64.862      107.972       48.393     4207.041    11657.992     2341.921        1.547        0.910      112.244       47.143        0.176      336.358        7.604      846.670
12/12/2014  01:34:00      -69.279      143.684       -7.396       57.656       60.156       41.114     3324.255     3618.693     1690.361        1.706        0.432      159.514       37.793        0.056      336.316        7.535      846.632
12/12/2014  01:35:00      -55.343      193.776      -24.554       50.204      109.542       41.620     2520.440    11999.374     1732.193        2.873        0.813      201.524       46.011        0.052      336.339        7.571      846.616
12/12/2014  01:36:00     -117.163      178.779      -15.901       78.524       73.529       53.813     6166.044     5406.498     2895.877        3.020        0.723      213.750       53.865        0.064      336.428        7.719      846.627
12/12/2014  01:37:00      -22.566      139.249      -19.341       52.747       52.663       25.102     2782.212     2773.433      630.091        1.323        0.309      141.065       23.042        0.027      336.467        7.787      846.641
12/12/2014  01:38:00        8.218      120.173      -23.378       44.827       38.399       18.249     2009.454     1474.479      333.030        0.944        0.191      120.454       12.642        0.011      336.424        7.715      846.638
12/12/2014  01:39:00       67.452      126.582       -5.880       74.367       64.874       46.058     5530.433     4208.664     2121.385        1.623        0.593      143.432       36.353        0.064      336.424        7.714      846.615
12/12/2014  01:40:00      -21.254      216.157      -28.703       78.055       92.744       38.847     6092.590     8601.526     1509.078        3.210        0.810      217.199       41.057        0.036      336.425        7.715      846.611
12/12/2014  01:41:00      -99.908      153.861      -28.835       87.983       68.764       41.220     7740.968     4728.478     1699.094        2.432        0.708      183.452       47.146        0.066      336.513        7.862      846.655
12/12/2014  01:42:00      -86.562      153.499      -19.783       62.413      109.611       34.331     3895.440    12014.652     1178.603        2.426        0.854      176.224       39.499        0.050      336.496        7.836      846.650
12/12/2014  01:43:00     -121.311      140.446      -20.219       71.984       73.573       37.967     5181.631     5412.973     1441.471        2.344        0.602      185.584       39.282        0.045      336.508        7.855      846.612
12/12/2014  01:44:00     -193.833      226.709      -46.723       73.571      105.099       48.505     5412.719    11045.839     2352.738        5.498        0.941      298.275       51.186        0.029      336.321        7.541      846.565
12/12/2014  01:45:00     -156.745      124.085      -34.427       45.377       60.026       42.094     2059.101     3603.125     1771.919        2.429        0.372      199.916       27.193        0.019      336.408        7.686      846.535
12/12/2014  01:46:00     -208.489       70.463      -42.633      106.733       93.231       54.896    11391.852     8691.960     3013.550        3.667        1.155      220.075       41.031        0.035      336.263        7.445      846.553
12/12/2014  01:47:00     -137.932       38.048       -7.897      112.758       87.053       55.053    12714.352     7578.210     3030.837        2.192        1.166      143.084       61.248        0.183      336.262        7.443      846.580
12/12/2014  01:48:00      -61.972       19.853       -5.393       99.666       68.646       37.546     9933.354     4712.288     1409.704        1.016        0.803       65.074       44.114        0.460      336.303        7.514      846.591
12/12/2014  01:49:00     -126.244       88.334      -20.805       81.472       83.063       52.553     6637.737     6899.512     2761.843        2.023        0.815      154.079       38.256        0.062      336.436        7.736      846.528
12/12/2014  01:50:00     -186.603       88.943      -28.829       85.478      119.226       55.753     7306.513    14214.943     3108.345        3.409        1.231      206.716       50.684        0.060      336.391        7.657      846.416
12/12/2014  01:51:00     -181.220       39.627      -35.877      119.170       93.291       62.372    14201.418     8703.226     3890.261        3.124        1.340      185.501       73.929        0.159      336.349        7.588      846.405
12/12/2014  01:52:00     -160.936       73.878      -25.790       64.526       96.024       50.969     4163.619     9220.647     2597.800        2.400        0.799      177.083       36.487        0.042      336.441        7.743      846.422
12/12/2014  01:53:00     -138.282       35.147      -18.308       61.131       88.250       47.658     3736.997     7788.024     2271.254        1.724        0.690      142.678       37.617        0.070      336.402        7.677      846.443
12/12/2014  01:54:00     -111.585        0.717      -21.051       85.098       57.723       37.146     7241.723     3331.964     1379.838        1.242        0.598      111.587       43.023        0.149      336.423        7.713      846.439
12/12/2014  01:55:00     -119.269       -1.449      -23.096       68.571       42.781       28.905     4701.951     1830.246      835.486        1.106        0.368      119.277       18.432        0.024      336.473        7.799      846.421
12/12/2014  01:56:00     -146.048       22.507      -26.844       65.474       83.762       41.471     4286.838     7016.026     1719.869        1.779        0.651      147.772       33.470        0.051      336.388        7.653      846.415
12/12/2014  01:57:00     -178.005       17.764      -19.397       90.709       69.292       36.460     8228.205     4801.316     1329.334        2.337        0.718      178.889       35.554        0.040      336.385        7.649      846.452
12/12/2014  01:58:00     -144.240       67.683      -29.746       56.650       74.825       42.923     3209.190     5598.816     1842.359        1.846        0.533      159.330       18.602        0.014      336.470        7.791      846.522
12/12/2014  01:59:00     -186.515       52.209      -35.957       58.718       87.105       48.512     3447.839     7587.287     2353.423        2.609        0.669      193.684       43.394        0.050      336.472        7.795      846.574
12/12/2014  02:00:00     -154.851      102.535      -22.539       83.876       94.430       55.505     7035.163     8916.999     3080.767        2.701        0.952      185.721       51.851        0.078      336.367        7.618      846.610
12/12/2014  02:01:00     -161.044      204.034      -35.922       85.577      110.946       48.301     7323.472    12309.074     2333.030        4.541        1.098      259.933       43.668        0.028      336.299        7.504      846.633
12/12/2014  02:02:00     -136.195      143.832      -31.773       98.791       72.531       46.139     9759.701     5260.696     2128.766        2.869        0.857      198.083       48.349        0.060      336.353        7.596      846.670
12/12/2014  02:03:00     -175.305      231.875      -43.227       75.226       95.031       47.221     5658.916     9030.875     2229.854        5.164        0.846      290.685       45.745        0.025      336.293        7.494      846.718
12/12/2014  02:04:00      -71.966      215.097       -1.754       63.790       95.232       52.724     4069.146     9069.140     2779.868        3.368        0.796      226.817       54.472        0.058      336.324        7.546      846.769
12/12/2014  02:05:00      -64.595      135.128      -19.240       49.362       74.830       32.901     2436.656     5599.540     1082.483        1.596        0.456      149.773       28.650        0.037      336.364        7.615      846.814
12/12/2014  02:06:00     -102.714      153.455      -14.620       67.040       86.088       48.610     4494.386     7411.177     2362.907        2.429        0.713      184.658       55.058        0.089      336.364        7.614      846.843
12/12/2014  02:07:00      -90.012      159.295      -19.815       61.529       79.696       39.545     3785.842     6351.463     1563.789        2.278        0.585      182.968       33.768        0.034      336.315        7.532      846.837
12/12/2014  02:08:00      -50.211      171.747       -1.470       55.507       77.958       43.253     3081.014     6077.461     1870.851        2.152        0.551      178.936       42.726        0.057      336.299        7.504      846.828
12/12/2014  02:09:00      -53.754      121.427      -11.484       51.075       76.938       43.778     2608.694     5919.379     1916.514        1.410        0.522      132.793       35.844        0.073      336.275        7.467      846.842
12/12/2014  02:10:00     -121.350      153.087      -19.567       61.656       90.791       42.632     3801.484     8242.919     1817.458        2.620        0.693      195.350       29.906        0.023      336.232        7.394      846.886
12/12/2014  02:11:00      -49.462       93.626      -14.331       52.887       69.552       25.341     2797.041     4837.419      642.161        0.985        0.414      105.888       23.856        0.051      336.257        7.437      846.910
12/12/2014  02:12:00      -88.358       12.400      -10.582       63.228       65.324       30.112     3997.826     4267.193      906.749        0.862        0.459       89.224       27.887        0.098      336.287        7.487      846.878
12/12/2014  02:13:00     -112.156       96.820      -19.207       41.185       62.581       33.047     1696.178     3916.414     1092.125        1.451        0.335      148.166       25.990        0.031      336.182        7.311      846.825
12/12/2014  02:14:00     -125.333       86.041      -19.182       68.499       65.538       40.300     4692.095     4295.257     1624.100        1.704        0.531      152.024       45.018        0.088      336.289        7.489      846.784
12/12/2014  02:15:00     -152.998       90.961      -27.968       79.420       47.541       39.061     6307.470     2260.165     1525.767        2.128        0.505      177.995       40.778        0.052      336.263        7.446      846.750
12/12/2014  02:16:00     -124.631       49.546       -3.373       58.901       67.573       36.859     3469.273     4566.085     1358.593        1.369        0.470      134.118       16.786        0.016      336.333        7.565      846.707
12/12/2014  02:17:00     -173.682      166.957      -38.907       93.665       86.325       52.299     8773.041     7452.023     2735.222        3.925        0.948      240.915       50.881        0.045      336.093        7.160      846.650
12/12/2014  02:18:00     -150.053      254.799      -48.192       77.834       83.928       52.439     6058.116     7043.870     2749.884        5.280        0.793      295.700       48.201        0.027      336.029        7.053      846.602
12/12/2014  02:19:00     -168.846      244.206      -39.517      114.595       86.229       60.151    13132.125     7435.500     3618.138        5.694        1.209      296.893       67.941        0.052      336.018        7.035      846.572
12/12/2014  02:20:00      -93.668      316.893      -28.995       88.199      109.098       51.706     7779.150    11902.273     2673.534        6.619        1.118      330.447       47.517        0.021      335.982        6.974      846.513
12/12/2014  02:21:00     -118.700      295.591      -32.941       89.230      160.259       51.245     7961.946    25683.007     2626.048        6.940        1.814      318.534       39.904        0.016      336.042        7.074      846.442
12/12/2014  02:22:00      -85.590      243.120      -22.931       66.500      118.201       54.026     4422.190    13971.400     2918.848        4.413        1.066      257.746       50.740        0.039      335.974        6.961      846.458
12/12/2014  02:23:00     -106.746      251.121      -26.864       60.024      107.961       43.907     3602.875    11655.623     1927.845        4.618        0.859      272.867       33.229        0.015      335.936        6.898      846.477
12/12/2014  02:24:00      -79.533      119.971      -15.747      110.945       90.148       43.083    12308.750     8126.631     1856.111        2.162        1.115      143.939       46.273        0.103      336.026        7.049      846.490
12/12/2014  02:25:00      -64.801      225.334      -16.545       60.305      166.163       52.375     3636.715    27610.094     2743.180        4.461        1.699      234.467       70.135        0.089      335.940        6.904      846.499
12/12/2014  02:26:00      -67.858       11.605      -11.790       57.787       65.576       30.626     3339.393     4300.177      937.929        0.673        0.429       68.843       28.578        0.172      335.979        6.972      846.562
12/12/2014  02:27:00     -206.780      179.830      -46.544       75.405      117.934       53.797     5685.881    13908.507     2894.149        4.987        1.124      274.038       55.849        0.042      335.945        6.912      846.612
12/12/2014  02:28:00     -192.135      181.597      -36.343      109.844      114.965       47.616    12065.733    13216.885     2267.293        4.938        1.377      264.373       39.092        0.022      335.975        6.962      846.607
12/12/2014  02:29:00     -193.189      205.556      -59.863       64.948       79.651       44.122     4218.236     6344.218     1946.793        4.783        0.625      282.091       33.978        0.015      335.906        6.849      846.551
12/12/2014  02:30:00     -220.642      207.692      -44.762       88.490       92.013       54.634     7830.511     8466.344     2984.873        5.655        0.964      303.017       53.947        0.032      335.983        6.977      846.479
12/12/2014  02:31:00     -198.925      235.759      -48.996       91.313       83.737       55.765     8338.005     7011.934     3109.768        5.800        0.923      308.470       51.096        0.027      335.955        6.930      846.423
12/12/2014  02:32:00     -117.784      168.373      -27.161       61.525      105.327       48.616     3785.347    11093.767     2363.561        3.010        0.862      205.481       49.298        0.058      335.967        6.950      846.442
12/12/2014  02:33:00     -127.760      217.340      -30.231       83.296      129.695       50.216     6938.299    16820.705     2521.621        4.537        1.314      252.110       49.631        0.039      335.982        6.974      846.496
12/12/2014  02:34:00      -78.359       97.554      -17.705       93.140       77.283       41.056     8674.968     5972.679     1685.558        1.615        0.817      125.128       21.753        0.030      336.021        7.043      846.537
12/12/2014  02:35:00      -25.581      125.221        6.803       39.097       86.336       40.637     1528.559     7453.913     1651.371        1.351        0.532      127.807       40.325        0.100      335.996        6.999      846.555
12/12/2014  02:36:00      -25.901      133.668      -20.873       65.779       82.474       34.973     4326.855     6801.973     1223.111        1.566        0.618      136.154       41.134        0.091      335.981        6.976      846.570
12/12/2014  02:37:00      -24.438      -15.912       -0.015      108.588       78.862       30.790    11791.375     6219.255      948.017        0.990        0.948       29.162       32.989        1.280      335.934        6.898      846.567
12/12/2014  02:38:00     -174.929       59.349      -29.163       68.414       79.902       38.303     4680.421     6384.366     1467.082        2.375        0.627      184.723       35.153        0.036      336.006        7.015      846.557
12/12/2014  02:39:00     -150.981      186.926      -32.503      137.031       89.926       53.269    18777.423     8086.607     2837.541        4.424        1.485      240.285       58.506        0.059      336.063        7.110      846.540
12/12/2014  02:40:00      -75.071       74.551      -10.215       63.297       59.373       38.148     4006.492     3525.128     1455.273        1.014        0.449      105.800       27.724        0.069      336.020        7.041      846.525
12/12/2014  02:41:00      -69.785      145.585      -16.897       64.128       72.602       35.611     4112.388     5271.102     1268.176        1.850        0.533      161.446       37.747        0.055      335.949        6.920      846.552
12/12/2014  02:42:00     -142.803      134.922      -39.906       84.053       83.157       36.632     7064.955     6915.164     1341.917        2.775        0.766      196.461       46.332        0.056      336.025        7.047      846.562
12/12/2014  02:43:00        2.628       91.038       -3.243       54.700       55.615       28.872     2992.056     3093.055      833.564        0.761        0.346       91.076       30.567        0.113      336.027        7.052      846.508
12/12/2014  02:44:00      -17.353      122.598        0.749       51.065       75.545       32.336     2607.644     5707.066     1045.601        1.234        0.468      123.820       36.479        0.087      335.999        7.006      846.477
12/12/2014  02:45:00       -7.170      149.127      -17.696       37.246       53.942       27.256     1387.268     2909.790      742.900        1.382        0.252      149.299       19.132        0.016      336.026        7.051      846.480
12/12/2014  02:46:00      -24.323       79.585      -17.632       32.252       88.059       28.535     1040.188     7754.343      814.251        0.842        0.480       83.219       30.740        0.136      336.072        7.130      846.516
12/12/2014  02:47:00      -29.075       87.232      -14.770       38.973       29.373       21.413     1518.859      862.773      458.531        0.576        0.142       91.950       19.327        0.044      336.106        7.184      846.559
12/12/2014  02:48:00        0.859      108.802      -15.952       31.229       27.754       20.008      975.255      770.263      400.325        0.712        0.107      108.806       16.645        0.023      335.999        7.008      846.589
12/12/2014  02:49:00      -85.070       48.272      -18.425       52.287       51.344       22.244     2733.957     2636.223      494.776        0.788        0.293       97.811       18.214        0.035      336.099        7.174      846.577
12/12/2014  02:50:00      -43.166      -35.113       -8.475       41.858       36.438       15.690     1752.113     1327.727      246.186        0.325        0.166       55.644       20.616        0.137      336.150        7.256      846.559
12/12/2014  02:51:00       20.826      -54.993        5.964       30.375       43.821       29.449      922.668     1920.276      867.263        0.360        0.186       58.804       16.766        0.081      336.221        7.376      846.552
12/12/2014  02:52:00      -13.729       -2.817        5.344       31.803       42.238       27.590     1011.445     1784.012      761.182        0.189        0.178       14.015       16.290        1.351      336.150        7.258      846.570
12/12/2014  02:53:00     -127.970      -16.304       -2.111       57.596       39.068       26.236     3317.263     1526.321      688.323        1.109        0.277      129.004       30.244        0.055      336.370        7.626      846.559
12/12/2014  02:54:00     -170.313      -14.503      -17.554       40.717       37.292       24.215     1657.857     1390.666      586.343        1.658        0.182      170.930       21.245        0.015      336.343        7.580      846.527
12/12/2014  02:55:00     -160.986      -16.579      -16.306       31.305       31.678       23.973      979.998     1003.499      574.684        1.451        0.128      161.837       18.007        0.012      336.251        7.426      846.482
12/12/2014  02:56:00     -130.309      -49.028      -14.713       40.526       30.783       25.257     1642.375      947.575      637.901        1.141        0.161      139.227       22.497        0.026      336.158        7.273      846.469
12/12/2014  02:57:00      -68.944      -33.974       -4.949       43.937       32.685       25.227     1930.498     1068.280      636.417        0.478        0.182       76.860       18.651        0.059      336.178        7.305      846.487
12/12/2014  02:58:00      -29.530      -25.000       11.472       75.726       41.393       26.950     5734.431     1713.351      726.297        0.490        0.409       38.691       27.461        0.504      336.174        7.299      846.523
12/12/2014  02:59:00     -167.151      -37.681      -25.807       34.663       44.977       27.512     1201.528     2022.930      756.923        1.700        0.199      171.345       17.693        0.011      336.277        7.469      846.526
12/12/2014  03:00:00     -220.369      -11.495      -18.389       75.269       64.064       37.907     5665.495     4104.189     1436.978        3.012        0.560      220.668       35.238        0.026      336.345        7.581      846.500
12/12/2014  03:01:00     -198.737        9.034      -17.525       60.644       47.059       33.512     3677.708     2214.595     1123.065        2.345        0.351      198.942       37.613        0.036      336.190        7.322      846.479
12/12/2014  03:02:00     -125.244       50.917      -10.455       73.192       32.268       30.220     5357.103     1041.217      913.278        1.285        0.366      135.198       35.535        0.069      336.255        7.434      846.466
12/12/2014  03:03:00      -17.329       83.776        4.177       47.143       64.194       33.429     2222.441     4120.819     1117.487        0.740        0.373       85.549       33.593        0.154      336.294        7.498      846.465
12/12/2014  03:04:00       51.257      -61.308        2.440       39.012       74.156       25.965     1521.912     5499.180      674.183        0.704        0.385       79.912       21.628        0.073      336.366        7.621      846.501
12/12/2014  03:05:00        9.096      -96.838       -7.760       66.724       72.848       33.006     4452.025     5306.768     1089.383        1.018        0.542       97.264       23.078        0.056      336.520        7.876      846.529
12/12/2014  03:06:00     -177.112      -98.868       -8.834       95.852       62.302       39.807     9187.563     3881.592     1584.580        2.793        0.733      202.838       40.302        0.039      336.403        7.679      846.494
12/12/2014  03:07:00     -169.720     -116.175       -8.863       83.034       57.324       35.136     6894.643     3286.006     1234.569        2.690        0.571      205.673       30.184        0.022      336.384        7.648      846.427
12/12/2014  03:08:00      -57.563      -32.420       10.653       66.132       40.497       34.032     4373.482     1639.996     1158.159        0.582        0.359       66.065       36.822        0.311      336.442        7.746      846.374
12/12/2014  03:09:00      -80.534      -57.814       -2.561       68.584       54.429       25.118     4703.717     2962.479      630.939        0.906        0.415       99.138       32.621        0.108      336.366        7.619      846.352
12/12/2014  03:10:00     -109.136        0.878       -6.715       44.820       49.836       24.809     2008.788     2483.641      615.471        0.853        0.255      109.140       23.117        0.045      336.488        7.822      846.344
12/12/2014  03:11:00      -53.618        3.731        3.132       46.735       49.462       17.877     2184.118     2446.476      319.590        0.392        0.248       53.748       13.743        0.065      336.371        7.627      846.313
12/12/2014  03:12:00       -0.166       80.400       -4.390       32.013       55.324       23.407     1024.856     3060.754      547.908        0.556        0.232       80.400       24.029        0.089      336.405        7.685      846.348
12/12/2014  03:13:00      -51.604       74.310       -8.021       28.376       26.418       21.912      805.202      697.918      480.157        0.512        0.099       90.471       13.369        0.022      336.527        7.889      846.397
12/12/2014  03:14:00      -70.939       36.643      -12.585       35.635       21.401       18.509     1269.826      458.017      342.588        0.430        0.104       79.844       12.783        0.026      336.546        7.920      846.385
12/12/2014  03:15:00      -58.208       60.211      -19.939       26.765       24.448       20.461      716.342      597.727      418.672        0.457        0.087       83.747       11.222        0.018      336.603        8.016      846.311
12/12/2014  03:16:00      -91.717       47.761      -11.897       29.292       26.422       22.305      858.043      698.113      497.495        0.644        0.103      103.408       16.462        0.025      336.556        7.937      846.284
12/12/2014  03:17:00      -82.168       61.621      -21.637       17.721       22.260       14.319      314.023      495.505      205.035        0.602        0.051      102.708        9.671        0.009      336.406        7.685      846.279
12/12/2014  03:18:00      -54.705       43.623      -12.906       20.858       43.956       18.219      435.051     1932.153      331.947        0.388        0.135       69.969        5.151        0.005      336.404        7.684      846.242
12/12/2014  03:19:00      -46.182       16.859      -20.909       44.125       42.609       17.960     1947.030     1815.539      322.563        0.347        0.204       49.163       25.221        0.263      336.397        7.672      846.237
12/12/2014  03:20:00      -14.379      -32.725        1.694       37.432       16.028       12.480     1401.136      256.886      155.739        0.155        0.091       35.744       11.936        0.112      336.427        7.720      846.291
12/12/2014  03:21:00      -58.963      -15.019        2.320       40.273       26.185       17.468     1621.920      685.650      305.147        0.316        0.131       60.845       16.593        0.074      336.360        7.609      846.294
12/12/2014  03:22:00      -57.460       -0.820       -5.778       25.828       36.068       15.021      667.107     1300.931      225.622        0.276        0.110       57.466       10.112        0.031      336.395        7.668      846.274
12/12/2014  03:23:00      -61.180        1.913       -8.285       41.990       30.698       18.909     1763.136      942.392      357.551        0.344        0.153       61.210       15.203        0.062      336.372        7.629      846.276
12/12/2014  03:24:00      -13.649       46.051        4.320       18.442       43.797       18.452      340.106     1918.171      340.465        0.246        0.130       48.031       22.187        0.213      336.321        7.544      846.255
12/12/2014  03:25:00      -45.629       57.646      -13.282       32.130       31.057       18.826     1032.353      964.565      354.413        0.397        0.118       73.519       16.213        0.049      336.542        7.916      846.242
12/12/2014  03:26:00      -23.685       29.484        4.886       18.292       29.858       17.377      334.584      891.496      301.963        0.149        0.076       37.819       11.648        0.095      336.460        7.776      846.222
12/12/2014  03:27:00        8.146      -24.045        5.318       16.370       16.782       19.594      267.965      281.652      383.923        0.080        0.047       25.388        3.812        0.023      336.402        7.679      846.180
12/12/2014  03:28:00      -30.719        0.202        3.940       19.271       19.234       13.309      371.366      369.933      177.139        0.094        0.046       30.720        9.298        0.092      336.338        7.573      846.095
12/12/2014  03:29:00      -61.786       27.661       -0.166       26.488       32.708       23.331      701.595     1069.786      544.349        0.345        0.116       67.695       13.033        0.037      336.690        8.162      846.031
12/12/2014  03:30:00      -51.729       39.879       -3.804       33.096       23.157       15.692     1095.355      536.232      246.249        0.308        0.094       65.317       13.695        0.044      336.512        7.865      846.020
12/12/2014  03:31:00      -45.976       82.076      -14.972       25.038       31.884       13.252      626.912     1016.578      175.604        0.545        0.091       94.076        9.998        0.011      336.402        7.680      845.993
12/12/2014  03:32:00      -21.718      127.352      -22.183       32.581       45.121       24.015     1061.511     2035.943      576.727        1.043        0.184      129.191       11.642        0.008      336.197        7.337      845.971
12/12/2014  03:33:00      -38.338      103.462       -7.337       26.170       52.716       24.493      684.885     2778.957      599.890        0.815        0.203      110.336       22.126        0.040      336.282        7.480      845.951
12/12/2014  03:34:00      -62.740      124.477      -13.584       66.159       55.811       31.066     4376.964     3114.864      965.087        1.403        0.423      139.394       33.572        0.058      336.373        7.631      845.955
12/12/2014  03:35:00      -96.988      129.200      -21.828       38.117       51.797       22.872     1452.872     2682.880      523.131        1.562        0.233      161.553       13.128        0.007      336.241        7.410      845.972
12/12/2014  03:36:00      -56.752      111.254       -4.684       35.062       32.128       27.640     1229.324     1032.179      763.982        0.932        0.151      124.893       13.633        0.012      336.354        7.598      845.985
12/12/2014  03:37:00      -58.454       64.628      -11.126       41.089       49.252       22.915     1688.292     2425.790      525.116        0.618        0.232       87.142       21.460        0.061      336.455        7.769      846.002
12/12/2014  03:38:00      -26.767        2.892        2.265       32.462       40.316       22.028     1053.791     1625.417      485.225        0.195        0.158       26.923       17.236        0.410      336.420        7.707      846.049
12/12/2014  03:39:00      -26.629       36.032      -22.935       19.699       14.851       16.964      388.050      220.558      287.785        0.171        0.045       44.804        6.303        0.020      336.305        7.518      846.088
12/12/2014  03:40:00      -90.150        4.976       -2.857       43.216       43.501       26.253     1867.584     1892.344      689.198        0.630        0.222       90.288       25.630        0.081      336.393        7.666      846.027
12/12/2014  03:41:00     -112.331       45.324      -15.215       42.124       40.982       26.211     1774.389     1679.487      687.002        0.952        0.207      121.130       17.172        0.020      336.390        7.658      845.983
12/12/2014  03:42:00      -58.130       40.246      -13.235       43.074       63.078       23.370     1855.333     3978.831      546.179        0.578        0.319       70.703       29.440        0.173      336.328        7.556      845.995
12/12/2014  03:43:00     -118.219       71.280      -12.516       72.272       53.261       38.600     5223.238     2836.775     1489.938        1.438        0.477      138.046       41.400        0.090      336.405        7.685      845.909
12/12/2014  03:44:00      -95.695       34.923       -8.758       58.130       26.118       18.965     3379.052      682.170      359.675        0.744        0.221      101.869       18.795        0.034      336.474        7.799      845.875
12/12/2014  03:45:00      -52.094       17.299       -4.988       35.060       58.565       26.769     1229.197     3429.906      716.590        0.421        0.269       54.892       33.570        0.374      336.433        7.731      845.889
12/12/2014  03:46:00      -75.106       64.195      -18.724       35.713       55.002       22.732     1275.422     3025.184      516.730        0.746        0.241       98.802       28.840        0.085      336.459        7.775      845.872
12/12/2014  03:47:00      -83.868      132.506      -22.077       28.240       32.073       25.038      797.498     1028.658      626.900        1.377        0.123      156.818       16.840        0.012      336.431        7.727      845.823
12/12/2014  03:48:00      -48.588      154.869      -13.853       42.685       37.087       25.953     1822.021     1375.445      673.565        1.520        0.194      162.312       18.496        0.013      336.467        7.789      845.794
12/12/2014  03:49:00       18.157      112.764       -6.356       47.317       61.118       29.703     2238.878     3735.416      882.249        0.997        0.343      114.216       22.907        0.040      336.452        7.762      845.834
12/12/2014  03:50:00      -13.908       87.431        4.227       49.387       47.709       31.970     2439.087     2276.159     1022.086        0.680        0.287       88.531       28.372        0.103      336.463        7.781      845.865
12/12/2014  03:51:00      -25.688        7.487      -10.773       35.577       56.087       21.525     1265.695     3145.797      463.314        0.285        0.244       26.757        7.121        0.071      336.493        7.832      845.931
12/12/2014  03:52:00        0.714      -39.613       17.992       30.542       46.862       28.995      932.793     2196.084      840.686        0.293        0.198       39.619       13.598        0.118      336.531        7.895      846.052
12/12/2014  03:53:00     -119.923      -48.670       -6.979       61.632       44.017       29.494     3798.453     1937.499      869.925        1.170        0.330      129.423       37.027        0.082      336.391        7.661      846.110
12/12/2014  03:54:00     -171.152       61.040      -28.805       37.260       43.268       24.437     1388.298     1872.145      597.175        1.885        0.193      181.711       17.928        0.010      336.468        7.787      846.042
12/12/2014  03:55:00      -68.254       32.517      -10.464       34.173       45.556       21.682     1167.813     2075.372      470.107        0.477        0.186       75.604       16.773        0.049      336.476        7.804      846.048
12/12/2014  03:56:00      -94.419      -25.457       -9.225       48.954       49.435       26.314     2396.503     2443.791      692.427        0.759        0.277       97.790       14.624        0.022      336.449        7.757      846.166
12/12/2014  03:57:00     -115.698      -71.752        7.001       80.110       51.345       33.956     6417.560     2636.275     1152.981        1.439        0.510      136.141       42.488        0.097      336.440        7.743      846.234
12/12/2014  03:58:00      -90.042      -26.337        6.845       45.996       53.611       23.560     2115.670     2874.143      555.072        0.720        0.277       93.815       26.294        0.079      336.489        7.825      846.189
12/12/2014  03:59:00      -56.933      159.421      -21.573       58.351      112.305       38.826     3404.877    12612.358     1507.473        2.332        0.876      169.282       45.289        0.072      336.884        8.485      846.041
12/12/2014  04:00:00      -67.731      -88.998        9.268       73.481       65.996       60.114     5399.477     4355.524     3613.742        1.298        0.668      111.840       37.408        0.112      337.062        8.780      845.913
12/12/2014  04:01:00       19.080      -28.012       60.028       58.284       99.176       52.337     3397.048     9835.845     2739.185        1.036        0.799       33.892       20.184        0.355      336.732        8.231      845.918
12/12/2014  04:02:00       82.894     -111.609       21.278       66.210      109.730       57.257     4383.794    12040.585     3278.395        1.974        0.985      139.025       58.849        0.179      337.042        8.747      845.991
12/12/2014  04:03:00       89.106      146.317      120.990       70.302       70.066       52.400     4942.394     4909.222     2745.796        2.829        0.630      171.314       49.913        0.085      337.068        8.790      846.004
12/12/2014  04:04:00      150.139       75.804       39.419       92.439       64.591       54.125     8544.894     4172.023     2929.514        2.274        0.782      168.190       34.769        0.043      336.905        8.517      845.983
12/12/2014  04:05:00      144.299       47.140       23.532       94.036       67.228       58.300     8842.705     4519.667     3398.864        2.018        0.838      151.803       37.343        0.061      336.949        8.592      845.958
12/12/2014  04:06:00       52.369       -5.345       15.054       53.003       75.486       37.014     2809.303     5698.102     1370.072        0.644        0.494       52.641       36.334        0.476      336.900        8.512      846.006
12/12/2014  04:07:00       57.352      -52.128       40.253       63.115       86.968       40.707     3983.529     7563.406     1657.032        1.041        0.660       77.502       45.209        0.340      337.024        8.718      846.117
12/12/2014  04:08:00      -38.254       -0.950       23.741       54.988       46.238       32.357     3023.686     2137.973     1046.996        0.412        0.310       38.266       35.277        0.850      336.971        8.630      846.060
12/12/2014  04:09:00      -56.203      -73.267       -2.988       80.824       65.122       39.905     6532.567     4240.813     1592.412        1.045        0.618       92.340        6.553        0.005      336.967        8.621      846.074
12/12/2014  04:10:00       13.631      -69.564        6.885       69.365       75.910       58.523     4811.490     5762.304     3424.984        0.953        0.700       70.887       36.408        0.264      336.814        8.368      846.086
12/12/2014  04:11:00       26.616      -87.411        8.496       61.661       82.992       65.767     3802.018     6887.594     4325.313        1.172        0.751       91.374       44.838        0.241      336.653        8.100      846.131
12/12/2014  04:12:00       39.922      -17.593       53.481       57.091       81.787       68.313     3259.337     6689.175     4666.727        0.969        0.731       43.627       65.235        2.236      336.587        7.989      846.173
12/12/2014  04:13:00       47.020       18.697       59.245       48.911       49.325       38.701     2392.290     2432.929     1497.778        0.620        0.316       50.601       32.209        0.405      336.572        7.964      846.219
12/12/2014  04:14:00       86.580       80.750       61.362       80.007       51.379       52.571     6401.163     2639.767     2763.708        1.479        0.590      118.392       30.970        0.068      336.573        7.966      846.168
12/12/2014  04:15:00       61.558       87.996      118.962       95.357      156.518       87.584     9093.005    24497.742     7670.991        3.347        2.063      107.390      108.987        1.030      336.675        8.133      846.121
12/12/2014  04:16:00      -28.851       61.809       37.674      108.092       72.621       68.827    11683.869     5273.785     4737.092        1.388        1.085       68.211       71.597        1.102      336.853        8.432      846.156
12/12/2014  04:17:00       69.149     -101.644       -0.590       67.780       82.615       57.695     4594.149     6825.198     3328.743        1.493        0.737      122.935       63.889        0.270      336.798        8.341      846.213
12/12/2014  04:18:00       62.299      -39.619       25.070       50.005       49.052       28.977     2500.543     2406.066      839.643        0.591        0.287       73.830       27.428        0.138      336.743        8.251      846.173
12/12/2014  04:19:00       48.603      -88.306      -19.575       46.618       67.653       32.043     2173.201     4576.878     1026.725        0.916        0.389      100.798       33.528        0.111      336.767        8.290      846.144
12/12/2014  04:20:00       62.767       -0.119       20.679       59.404       80.028       57.174     3528.811     6404.539     3268.826        0.878        0.660       62.767       54.599        0.757      336.812        8.366      846.134
12/12/2014  04:21:00      134.801      -89.732       50.553      128.471      163.271      101.753    16504.761    26657.470    10353.700        4.114        2.676      161.935      109.186        0.455      336.854        8.434      846.149
12/12/2014  04:22:00      138.825     -103.407      -30.821       87.653       95.697       70.399     7683.062     9157.990     4955.951        2.635        1.090      173.105       64.575        0.139      336.862        8.448      846.177
12/12/2014  04:23:00       25.071      -59.761       36.037       62.621       89.221       50.301     3921.400     7960.327     2530.228        0.995        0.721       64.807       57.260        0.781      336.870        8.461      846.191
12/12/2014  04:24:00       46.579      -52.716       17.098       70.715       81.797       38.612     5000.634     6690.685     1490.895        0.921        0.659       70.346       50.296        0.511      336.865        8.452      846.205
12/12/2014  04:25:00      -17.955      -25.651       19.913       80.628       63.070       44.035     6500.870     3977.829     1939.075        0.689        0.621       31.311       45.251        2.089      336.982        8.648      846.258
12/12/2014  04:26:00      -13.474       18.045       49.001       43.912       68.798       54.658     1928.278     4733.115     2987.483        0.628        0.482       22.521       52.398        5.413      336.839        8.411      846.261
12/12/2014  04:27:00       89.963     -201.912       -6.903      107.778      103.287       63.380    11616.069    10668.292     4017.075        3.760        1.315      221.047       64.403        0.085      336.854        8.433      846.272
12/12/2014  04:28:00       21.435       38.244       73.384       59.245       87.234       70.337     3510.019     7609.743     4947.273        1.168        0.803       43.841       71.614        2.668      336.764        8.284      846.223
12/12/2014  04:29:00       43.783      -17.788       37.459       84.552       65.351       36.873     7149.015     4270.719     1359.628        0.821        0.639       47.258       39.930        0.714      336.874        8.467      846.272
12/12/2014  04:30:00        4.772      -44.867        2.024       34.947       37.556       25.276     1221.289     1410.490      638.874        0.265        0.164       45.120       19.041        0.178      336.930        8.562      846.328
12/12/2014  04:31:00      -36.899      -24.852       15.014       52.569       44.949       36.909     2763.486     2020.426     1362.282        0.417        0.307       44.488       35.451        0.635      336.932        8.566      846.367
12/12/2014  04:32:00      -29.428      -24.497        2.006       36.758       59.923       23.140     1351.144     3590.815      535.464        0.347        0.274       38.290       24.031        0.394      336.901        8.513      846.402
12/12/2014  04:33:00      -80.535      -72.172       -3.937       75.991       67.091       47.056     5774.583     4501.147     2214.280        1.210        0.625      108.142       43.351        0.161      336.992        8.664      846.428
12/12/2014  04:34:00       34.904     -129.222       17.478      105.850      125.779       68.038    11204.307    15820.407     4629.138        2.493        1.583      133.853       70.595        0.278      337.042        8.747      846.418
12/12/2014  04:35:00     -101.313     -103.997       -1.514      112.811       61.909       47.648    12726.247     3832.744     2270.300        1.995        0.941      145.189       27.494        0.036      337.006        8.687      846.410
12/12/2014  04:36:00      -12.094     -180.902      -20.441       91.396      117.095       71.779     8353.268    13711.319     5152.256        3.025        1.361      181.306       63.766        0.124      337.048        8.756      846.412
12/12/2014  04:37:00       67.716     -252.296      -39.306      146.666      140.022       78.870    21510.791    19606.149     6220.469        5.855        2.367      261.226       79.568        0.093      337.047        8.755      846.388
12/12/2014  04:38:00     -107.578     -262.697      -12.686       97.259      151.814       62.881     9459.293    23047.452     3954.068        5.860        1.823      283.871       49.113        0.030      337.088        8.822      846.435
12/12/2014  04:39:00      -85.677     -181.959       -8.353       99.347       97.899       42.828     9869.880     9584.154     1834.213        3.090        1.064      201.121       37.316        0.034      337.065        8.786      846.445
12/12/2014  04:40:00      -55.070     -196.672       -0.934       90.399       88.823       54.033     8171.988     7889.571     2919.529        3.034        0.949      204.237       44.724        0.048      337.106        8.852      846.469
12/12/2014  04:41:00        4.122      -95.660       18.464       92.485       86.994       64.999     8553.473     7567.966     4224.894        1.492        1.017       95.749       51.281        0.287      337.047        8.755      846.479
12/12/2014  04:42:00      -90.485      -96.889      -15.621       73.749       62.505       50.661     5438.925     3906.842     2566.550        1.486        0.596      132.571       28.784        0.047      337.024        8.716      846.478
12/12/2014  04:43:00      -74.655     -173.598      -11.239      130.930      119.504       69.383    17142.628    14281.150     4814.027        3.603        1.812      188.970       63.782        0.114      337.012        8.696      846.511
12/12/2014  04:44:00     -101.436     -136.862       -6.810       86.396       53.261       42.960     7464.326     2836.706     1845.601        2.060        0.607      170.354       27.281        0.026      336.921        8.544      846.515
12/12/2014  04:45:00      -73.962     -114.389      -15.616       94.013       78.046       52.580     8838.528     6091.136     2764.691        1.824        0.885      136.218       35.668        0.069      336.931        8.563      846.533
12/12/2014  04:46:00     -109.929      -90.297      -11.246       80.751       63.597       41.098     6520.655     4044.534     1689.021        1.631        0.613      142.260       26.136        0.034      336.898        8.507      846.548
12/12/2014  04:47:00     -135.944     -277.983      -12.276      105.142      138.624       55.773    11054.783    19216.627     3110.603        6.464        1.669      309.444       46.412        0.022      336.791        8.327      846.583
12/12/2014  04:48:00     -134.666     -162.208       -1.812      140.996       82.496       58.831    19879.976     6805.603     3461.064        3.729        1.507      210.823       47.799        0.051      336.765        8.284      846.614
12/12/2014  04:49:00     -170.370     -190.483        1.334       99.810       83.598       51.414     9961.976     6988.557     2643.419        4.245        0.980      255.558       38.626        0.023      336.711        8.193      846.671
12/12/2014  04:50:00     -225.621     -237.304      -16.661      159.072      148.367       80.989    25303.991    22012.777     6559.172        8.067        2.694      327.441       69.685        0.045      336.856        8.435      846.637
12/12/2014  04:51:00      -49.445     -234.255      -14.966      151.693      202.147       80.815    23010.717    40863.367     6531.060        6.396        3.520      239.416       80.919        0.114      337.117        8.872      846.745
12/12/2014  04:52:00     -203.432     -345.767        0.381      169.188      180.022       83.631    28624.559    32408.033     6994.107       11.447        3.401      401.172       63.164        0.025      337.077        8.803      846.875
12/12/2014  04:53:00     -176.454     -290.438       -8.735      161.956      134.580       62.119    26229.665    18111.650     3858.761        8.187        2.410      339.839       68.941        0.041      337.144        8.915      846.963
12/12/2014  04:54:00     -263.124     -271.952       -9.996      136.509      109.159       73.085    18634.651    11915.693     5341.433        8.958        1.795      378.408       72.000        0.036      336.875        8.468      846.969
12/12/2014  04:55:00     -299.168     -167.491        2.788      155.901      115.846       67.754    24305.217    13420.277     4590.657        7.993        2.116      342.862       64.502        0.035      336.546        7.917      847.035
12/12/2014  04:56:00     -336.708     -220.055      -11.698      162.726      136.543       63.186    26479.830    18643.857     3992.421       10.551        2.456      402.239       70.939        0.031      336.495        7.831      847.045
12/12/2014  04:57:00     -420.876     -246.839      -16.335      180.974      160.533       83.935    32751.470    25770.936     7045.131       15.194        3.278      487.920       90.538        0.034      336.505        7.848      846.974
12/12/2014  04:58:00     -435.278     -129.731      -25.716      142.920      100.350       67.810    20426.078    10070.053     4598.197       12.102        1.755      454.199       57.958        0.016      336.559        7.940      846.865
12/12/2014  04:59:00     -602.249     -133.477      -24.908      226.085      150.293       87.749    51114.393    22587.979     7699.930       23.125        4.070      616.863      105.527        0.029      336.623        8.046      846.777
12/12/2014  05:00:00     -412.935     -187.174       -5.989      216.797      183.946       80.001    47000.752    33836.080     6400.209       14.639        4.362      453.376       91.255        0.041      336.793        8.330      846.753
12/12/2014  05:01:00     -263.212     -144.410       11.082      205.880      140.547       93.094    42386.533    19753.581     8666.582        8.052        3.540      300.225      119.068        0.157      336.735        8.234      846.782
12/12/2014  05:02:00     -312.724     -152.314        0.201      129.196      106.549       63.945    16691.587    11352.783     4088.982        7.656        1.607      347.844       63.844        0.034      336.692        8.163      846.837
12/12/2014  05:03:00     -330.068     -137.721       -8.244      129.340       86.050       61.222    16728.768     7404.665     3748.124        7.793        1.394      357.648       61.637        0.030      336.685        8.150      846.858
12/12/2014  05:04:00     -317.655     -179.383      -28.754      114.867      111.813       68.926    13194.446    12502.253     4750.764        8.217        1.522      364.805       64.001        0.031      336.647        8.087      846.918
12/12/2014  05:05:00     -249.935     -192.893        0.002      121.440       93.146       57.805    14747.784     8676.112     3341.453        6.321        1.338      315.713       67.376        0.046      336.614        8.031      846.999
12/12/2014  05:06:00     -192.972      -71.652       21.772      133.565      122.062       62.724    17839.483    14899.243     3934.274        3.975        1.834      205.845       61.842        0.090      336.585        7.985      847.034
12/12/2014  05:07:00     -287.490     -118.880      -13.512      141.047      126.469       71.750    19894.174    15994.328     5148.010        6.899        2.052      311.100       65.719        0.045      336.509        7.856      847.070
12/12/2014  05:08:00     -484.343     -244.558      -23.550      190.911      163.661       81.764    36446.922    26785.044     6685.364       18.242        3.496      542.583       80.505        0.022      336.388        7.651      847.084
12/12/2014  05:09:00     -401.342      -26.041      -21.491      182.120      134.645       81.592    33167.725    18129.206     6657.204       11.007        2.898      402.186       78.814        0.038      336.412        7.693      847.110
12/12/2014  05:10:00     -281.546     -111.356        2.507      140.805      118.586       67.659    19826.061    14062.737     4577.768        6.506        1.923      302.768       76.838        0.064      336.388        7.653      847.169
12/12/2014  05:11:00     -217.621      -53.600       -3.835      113.622       96.392       51.389    12909.856     9291.412     2640.797        3.754        1.242      224.124       50.996        0.052      336.436        7.733      847.240
12/12/2014  05:12:00     -258.467     -128.474       -3.846      107.978      106.685       60.217    11659.222    11381.701     3626.131        5.499        1.333      288.636       63.750        0.049      336.380        7.638      847.304
12/12/2014  05:13:00     -297.534     -224.647       11.110      189.986      127.906       91.132    36094.841    16360.049     8305.119        9.993        3.038      372.817       96.032        0.066      336.368        7.618      847.344
12/12/2014  05:14:00     -224.135     -108.180        7.722      146.185      104.842       71.218    21369.951    10991.918     5071.964        4.971        1.872      248.876       69.273        0.077      336.357        7.600      847.377
12/12/2014  05:15:00     -130.631     -154.472        3.482      121.495       91.157       57.673    14761.123     8309.636     3326.219        3.366        1.320      202.302       56.057        0.077      336.343        7.577      847.443
12/12/2014  05:16:00     -142.271      -63.079        1.276      141.462       93.544       46.278    20011.400     8750.392     2141.695        2.756        1.545      155.628       41.469        0.071      336.343        7.580      847.436
12/12/2014  05:17:00     -238.708       34.124      -13.899      138.146      153.581       60.288    19084.201    23587.042     3634.594        5.231        2.315      241.134       60.185        0.062      336.287        7.485      847.413
12/12/2014  05:18:00     -213.889     -102.617       -1.114      141.987      171.412       74.925    20160.428    29381.970     5613.690        5.571        2.758      237.231       76.818        0.105      336.220        7.373      847.389
12/12/2014  05:19:00      -64.901      -36.439       22.534      121.936      111.904       64.325    14868.424    12522.557     4137.760        1.878        1.576       74.430       53.816        0.523      336.226        7.384      847.409
12/12/2014  05:20:00     -177.217     -123.412       -4.745      200.269      167.304       75.572    40107.826    27990.527     5711.062        6.022        3.690      215.954       86.418        0.160      336.077        7.134      847.425
12/12/2014  05:21:00     -180.162      -56.970        3.422      158.770      133.849       80.900    25208.043    17915.545     6544.739        4.268        2.483      188.955       75.933        0.161      336.010        7.023      847.416
12/12/2014  05:22:00     -340.974     -116.292       -9.482      149.775      126.505       72.902    22432.530    16003.404     5314.773        8.681        2.188      360.260       72.074        0.040      335.944        6.911      847.432
12/12/2014  05:23:00     -558.647      -16.655      -36.856      203.774      168.276       89.857    41523.754    28316.743     8074.238       19.580        3.896      558.895      102.326        0.034      335.863        6.776      847.399
12/12/2014  05:24:00     -514.307      -83.892      -22.477      212.061      168.530       89.838    44969.716    28402.272     8070.932       17.673        4.072      521.104      101.789        0.038      335.791        6.657      847.361
12/12/2014  05:25:00     -358.460      -87.849      -14.517      168.726      142.075       72.708    28468.462    20185.394     5286.424        9.517        2.697      369.068       82.680        0.050      335.751        6.592      847.371
12/12/2014  05:26:00     -286.535      -89.195       -2.305      120.144      125.853       64.559    14434.646    15838.965     4167.867        6.225        1.722      300.097       54.785        0.033      335.742        6.575      847.370
12/12/2014  05:27:00     -418.325     -116.275      -13.746      205.201      173.722       88.375    42107.327    30179.493     7810.157       13.438        4.005      434.184       86.104        0.039      335.697        6.499      847.387
12/12/2014  05:28:00     -552.940      -25.853      -36.852      167.774      159.196       89.294    28147.963    25343.374     7973.348       18.460        3.073      553.545       92.796        0.028      335.697        6.501      847.419
12/12/2014  05:29:00     -531.278      -25.093      -21.080      128.958      151.672       74.828    16630.105    23004.387     5599.193       16.427        2.262      531.871       64.582        0.015      335.678        6.468      847.430
12/12/2014  05:30:00     -339.184     -126.861       -8.254      163.051      134.026       78.778    26585.780    17962.886     6205.966        9.097        2.538      362.132       78.942        0.048      335.648        6.420      847.421
12/12/2014  05:31:00     -481.339      -70.557       -9.413      209.872      161.970       90.804    44046.236    26234.390     8245.401       15.762        3.926      486.483       98.128        0.041      335.707        6.517      847.416
12/12/2014  05:32:00     -406.486      -75.835      -28.638      189.135      119.163       88.296    35772.053    14199.895     7796.180       11.477        2.888      413.499       90.365        0.048      335.783        6.643      847.429
12/12/2014  05:33:00     -375.051     -118.684      -16.170      167.293      126.536       84.868    27986.809    16011.404     7202.618       10.310        2.560      393.382       96.443        0.060      335.749        6.587      847.428
12/12/2014  05:34:00     -357.396      -86.794      -11.615      194.813      108.982       65.429    37952.276    11876.996     4280.955        9.474        2.706      367.784       88.924        0.058      335.708        6.519      847.437
12/12/2014  05:35:00     -318.304      -93.299      -17.006      179.198      139.236       73.751    32112.066    19386.685     5439.169        8.361        2.847      331.696       74.212        0.050      335.735        6.564      847.439
12/12/2014  05:36:00     -344.431     -102.587      -17.480      146.892      121.151       59.717    21577.377    14677.488     3566.085        8.463        1.991      359.384       45.426        0.016      335.717        6.534      847.412
12/12/2014  05:37:00     -378.696      -22.081      -22.254      183.931      104.543       62.455    33830.442    10929.291     3900.580        9.652        2.433      379.339       76.930        0.041      335.784        6.645      847.398
12/12/2014  05:38:00     -270.702     -110.314        0.441      110.105       99.899       56.505    12123.094     9979.716     3192.777        5.537        1.265      292.317       59.546        0.041      335.743        6.577      847.369
12/12/2014  05:39:00     -195.625      -16.614      -12.952       98.774       79.181       53.714     9756.260     6269.684     2885.240        2.881        0.946      196.329       45.001        0.053      335.833        6.727      847.336
12/12/2014  05:40:00     -209.360      -27.873      -19.222       93.564       60.668       39.531     8754.303     3680.608     1562.692        2.948        0.700      211.207       43.178        0.042      335.751        6.591      847.315
12/12/2014  05:41:00     -167.588       27.096       -8.144      108.471       80.706       59.358    11765.869     6513.492     3523.404        2.534        1.090      169.765       67.225        0.157      335.802        6.675      847.271
12/12/2014  05:42:00     -312.234      -75.741      -18.120      166.655      141.409       74.121    27773.967    19996.458     5493.909        7.840        2.663      321.289       88.873        0.077      335.898        6.835      847.197
12/12/2014  05:43:00     -172.783      -46.113       -0.919       91.618       89.938       52.025     8393.849     8088.915     2706.550        2.558        0.959      178.831       40.733        0.052      335.936        6.898      847.145
12/12/2014  05:44:00     -364.624     -108.326       -0.208      268.154      127.500       78.770    71906.613    16256.133     6204.768       11.951        4.718      380.375      115.551        0.092      335.926        6.884      847.150
12/12/2014  05:45:00     -329.086      -45.476       -2.874      175.128      134.163       78.382    30669.959    17999.713     6143.758        8.258        2.741      332.213       76.175        0.053      335.954        6.927      847.232
12/12/2014  05:46:00     -272.234      -61.015        3.610      143.074      168.164       76.452    20470.272    28279.151     5844.926        6.621        2.730      278.988       69.128        0.061      335.975        6.962      847.307
12/12/2014  05:47:00     -145.429     -129.106        4.654      159.392      121.917       79.131    25405.692    14863.644     6261.708        4.218        2.327      194.469       85.456        0.193      335.968        6.950      847.415
12/12/2014  05:48:00     -180.723     -167.625       10.653      126.666      108.212       75.263    16044.296    11709.894     5664.539        4.714        1.671      246.493       81.814        0.110      335.998        7.001      847.407
12/12/2014  05:49:00     -293.317     -280.233      -15.519      191.014      156.046       97.737    36486.238    24350.377     9552.430       11.758        3.519      405.667      105.880        0.068      336.056        7.100      847.461
12/12/2014  05:50:00     -297.910     -117.191      -10.976      155.088      142.060       72.112    24052.221    20180.949     5200.104        7.601        2.472      320.132       74.230        0.054      336.111        7.192      847.493
12/12/2014  05:51:00     -362.438      -96.746      -14.209      211.434      165.854      100.296    44704.345    27507.566    10059.264       11.158        4.114      375.128      100.493        0.072      336.091        7.157      847.556
12/12/2014  05:52:00     -433.786     -146.735      -24.149      163.801      167.571       86.268    26830.872    28080.134     7442.141       13.631        3.118      457.932       99.051        0.047      336.067        7.116      847.549
12/12/2014  05:53:00     -364.632     -144.682        0.610      229.824      168.973       93.560    52819.069    28551.942     8753.500       12.199        4.506      392.287      102.316        0.068      336.089        7.155      847.566
12/12/2014  05:54:00     -122.140      -39.046       19.341      122.113      130.211       53.867    14911.682    16954.791     2901.625        2.579        1.738      128.229       58.301        0.207      336.142        7.242      847.576
12/12/2014  05:55:00     -189.591      -83.167        1.251      220.073      141.651       93.489    48432.284    20064.957     8740.118        6.003        3.862      207.030       98.148        0.225      336.119        7.203      847.471
12/12/2014  05:56:00     -575.660     -134.057       -9.965      351.446      254.806      127.285   123514.271    64926.173    16201.582       27.701       10.232      591.063      160.931        0.074      336.150        7.255      847.502
12/12/2014  05:57:00     -353.561     -114.236        8.250      243.649      172.579       98.465    59364.835    29783.521     9695.374       11.846        4.942      371.558       98.479        0.070      336.165        7.281      847.724
12/12/2014  05:58:00     -355.849     -123.747       -5.323      232.152      168.469       89.617    53894.610    28381.831     8031.137       11.612        4.515      376.751      105.678        0.079      336.167        7.284      847.851
12/12/2014  05:59:00     -270.006     -153.914      -27.007      153.533      133.169       89.307    23572.268    17734.044     7975.809        7.329        2.464      310.794       83.637        0.072      336.165        7.280      847.922
12/12/2014  06:00:00     -352.198     -103.636      -24.174      124.456      156.222       75.117    15489.369    24405.165     5642.559        9.044        2.277      367.129       64.431        0.031      336.196        7.332      847.954
12/12/2014  06:01:00     -317.582      -71.373      -18.132      217.492      121.948       83.029    47302.752    14871.416     6893.761        8.766        3.453      325.503       99.835        0.094      336.155        7.263      847.981
12/12/2014  06:02:00     -473.275      -54.772      -43.330      274.389      166.316      100.893    75289.408    27661.017    10179.451       17.098        5.656      476.434      132.764        0.078      336.205        7.347      847.972
12/12/2014  06:03:00     -396.343     -218.863       -9.412      252.228      236.162      111.005    63618.749    55772.650    12322.018       16.837        6.586      452.757      124.016        0.075      336.221        7.374      847.988
12/12/2014  06:04:00     -393.981     -116.378      -25.320      209.126      168.461       88.785    43733.482    28379.124     7882.763       12.468        4.000      410.810      105.102        0.065      336.229        7.388      848.021
12/12/2014  06:05:00     -504.302      -35.487      -15.172      198.634      191.015      103.680    39455.376    36486.794    10749.508       17.123        4.335      505.549      107.962        0.046      336.239        7.404      848.030
12/12/2014  06:06:00     -354.450        1.908      -24.102      172.026      147.107       72.625    29592.940    21640.390     5274.335        9.135        2.825      354.455       68.160        0.037      336.269        7.453      848.069
12/12/2014  06:07:00     -390.763     -126.795      -20.550      260.424      135.398       91.628    67820.690    18332.648     8395.699       13.185        4.727      410.819      110.195        0.072      336.203        7.344      848.103
12/12/2014  06:08:00     -421.180     -118.598       -0.003      240.885      173.388       95.726    58025.541    30063.271     9163.443       14.434        4.863      437.559      112.455        0.066      336.200        7.338      848.098
12/12/2014  06:09:00     -532.556       -5.370      -28.831      216.203      211.348       97.551    46743.797    44667.987     9516.274       19.268        5.046      532.583       84.629        0.025      336.225        7.379      848.112
12/12/2014  06:10:00     -327.270      -98.945      -18.266      169.796      184.923       87.905    28830.520    34196.412     7727.235        9.398        3.538      341.900       94.682        0.077      336.218        7.368      848.167
12/12/2014  06:11:00     -264.753       14.243      -11.598      179.604      126.913       93.221    32257.653    16107.007     8690.159        6.373        2.853      265.136       87.321        0.108      336.188        7.318      848.204
12/12/2014  06:12:00     -248.307      -18.211        9.985      186.907      118.974       74.594    34934.042    14154.770     5564.239        5.836        2.733      248.974       84.139        0.114      336.169        7.288      848.231
12/12/2014  06:13:00     -548.714      -66.223      -36.543      267.414      149.598      102.011    71510.134    22379.500    10406.163       20.553        5.215      552.695      121.872        0.049      336.123        7.212      848.192
12/12/2014  06:14:00     -512.744      -78.010      -22.850      206.394      187.777      105.210    42598.328    35260.241    11069.190       17.920        4.446      518.645      112.950        0.047      336.088        7.151      848.130
12/12/2014  06:15:00     -721.572      -99.849      -67.097      275.784      199.125      106.727    76056.916    39650.930    11390.719       33.109        6.355      728.448      128.617        0.031      336.086        7.148      848.094
12/12/2014  06:16:00     -572.873     -164.328      -34.637      212.586      167.398       98.448    45192.646    28021.941     9692.101       21.963        4.145      595.975      112.729        0.036      336.052        7.091      848.128
12/12/2014  06:17:00     -638.914      -89.632      -54.656      222.577      206.958      102.503    49540.401    42831.672    10506.922       26.104        5.144      645.171      113.947        0.031      336.049        7.088      848.179
12/12/2014  06:18:00     -475.580      -62.482      -22.336      205.225      163.320       79.444    42117.391    26673.322     6311.350       15.283        3.755      479.667       87.751        0.033      336.039        7.070      848.193
12/12/2014  06:19:00     -434.857     -160.404      -21.415      242.898      159.988       88.716    58999.220    25596.292     7870.595       15.386        4.623      463.497      107.747        0.054      335.996        6.998      848.129
12/12/2014  06:20:00     -451.406     -136.641      -17.484      215.052      219.069      100.489    46247.379    47991.042    10097.977       16.352        5.217      471.633       93.713        0.039      336.029        7.054      848.112
12/12/2014  06:21:00     -625.106      -16.342      -38.027      272.261      206.986       93.688    74125.813    42843.143     8777.436       25.908        6.287      625.320      109.022        0.030      336.037        7.068      848.129
12/12/2014  06:22:00     -728.400     -149.684      -46.706      285.993      202.455      110.427    81792.253    40987.848    12194.073       34.504        6.749      743.621      139.861        0.035      336.005        7.013      848.043
12/12/2014  06:23:00     -717.117     -223.981      -27.744      268.063      220.709      122.023    71858.010    48712.291    14889.531       35.030        6.773      751.282      135.944        0.033      335.993        6.994      848.021
12/12/2014  06:24:00     -535.730      -87.543      -33.702      270.634      237.805      110.098    73242.847    56551.027    12121.637       21.883        7.096      542.835      103.869        0.037      336.020        7.039      848.057
12/12/2014  06:25:00     -535.296      -66.751      -27.194      209.788      198.087      103.433    44010.965    39238.475    10698.436       19.282        4.697      539.442       91.962        0.029      335.994        6.994      848.031
12/12/2014  06:26:00     -434.088     -144.148       -7.152      190.194      150.667       97.976    36173.699    22700.456     9599.276       13.885        3.424      457.396       91.891        0.040      335.952        6.924      848.067
12/12/2014  06:27:00     -490.698      -85.829      -11.490      190.079      163.995       97.848    36130.092    26894.399     9574.284       16.043        3.630      498.148       93.275        0.035      335.953        6.926      848.147
12/12/2014  06:28:00     -454.379      -77.969      -17.500      217.720      168.898       87.488    47401.819    28526.468     7654.224       14.820        4.179      461.020      103.666        0.051      335.952        6.925      848.241
12/12/2014  06:29:00     -524.194     -104.444      -12.780      201.553      214.269       94.252    40623.735    45911.191     8883.415       19.062        4.771      534.497       93.032        0.030      335.969        6.953      848.302
12/12/2014  06:30:00     -505.262      -45.573      -42.545      229.163      230.408       97.354    52515.580    53087.806     9477.832       18.711        5.754      507.313       97.660        0.037      335.994        6.995      848.386
12/12/2014  06:31:00     -420.902      -35.364      -15.835      208.454      144.752       85.111    43453.110    20953.206     7243.873       12.514        3.583      422.385       66.992        0.025      335.951        6.923      848.382
12/12/2014  06:32:00     -546.597      -50.634      -18.528      269.986      197.535       96.799    72892.248    39020.186     9370.127       21.146        6.064      548.937      108.919        0.039      335.991        6.990      848.344
12/12/2014  06:33:00     -472.492      -46.499      -16.942      214.801      145.305       93.810    46139.291    21113.529     8800.390       15.086        3.803      474.774       96.105        0.041      336.020        7.039      848.332
12/12/2014  06:34:00     -518.633      -41.402      -29.370      241.177      148.241      108.468    58166.166    21975.382    11765.269       18.171        4.595      520.283      120.452        0.054      335.979        6.969      848.327
12/12/2014  06:35:00     -477.212      -23.484      -34.677      217.940      133.144       94.845    47497.967    17727.222     8995.487       15.184        3.711      477.790      101.954        0.046      336.004        7.012      848.305
12/12/2014  06:36:00     -507.258     -131.618      -11.896      181.989      194.825      102.719    33120.118    37956.677    10551.235       17.819        4.081      524.055      103.290        0.039      335.931        6.889      848.271
12/12/2014  06:37:00     -505.734     -153.800      -14.547      220.360      175.751       99.005    48558.523    30888.452     9801.966       18.442        4.462      528.603      102.351        0.037      335.911        6.858      848.300
12/12/2014  06:38:00     -559.589     -169.019       -8.300      272.732      200.536      105.664    74382.583    40214.671    11164.891       23.374        6.288      584.557      118.701        0.041      335.883        6.810      848.334
12/12/2014  06:39:00     -544.178     -126.357      -16.081      210.882      142.693       86.617    44471.284    20361.301     7502.582       19.233        3.617      558.655       86.264        0.024      335.894        6.829      848.367
12/12/2014  06:40:00     -525.173      -55.972      -21.790      248.512      183.008      102.726    61758.126    33491.877    10552.621       19.259        5.290      528.148      113.924        0.047      335.932        6.891      848.352
12/12/2014  06:41:00     -556.173      -57.095      -33.707      198.164      160.515       85.888    39269.133    25765.160     7376.782       19.305        3.621      559.096       83.452        0.022      335.911        6.857      848.384
12/12/2014  06:42:00     -550.637     -100.208      -29.883      223.218      194.118       84.160    49826.338    37681.899     7082.834       20.434        4.730      559.681      102.908        0.034      335.905        6.846      848.395
12/12/2014  06:43:00     -604.782      -84.875      -48.031      261.898      228.019      117.799    68590.590    51992.510    13876.680       25.484        6.723      610.708      128.024        0.044      335.894        6.829      848.403
12/12/2014  06:44:00     -484.213      -82.855      -35.592      168.554      134.681       85.003    28410.495    18138.990     7225.543       14.817        2.689      491.251       96.482        0.039      335.901        6.840      848.418
12/12/2014  06:45:00     -678.252     -141.293      -32.661      290.148      238.840      110.117    84186.076    57044.551    12125.804       31.718        7.668      692.813      117.462        0.029      335.878        6.801      848.454
12/12/2014  06:46:00     -655.418     -106.440      -43.933      309.282      219.755      115.027    95655.365    48292.100    13231.258       29.997        7.859      664.005      112.736        0.029      335.850        6.754      848.425
12/12/2014  06:47:00     -524.656      -85.013      -27.709      280.384      156.089       95.662    78615.012    24363.746     9151.305       19.767        5.607      531.499      124.923        0.055      335.851        6.755      848.559
12/12/2014  06:48:00     -438.659      -14.027      -49.206      141.132      165.083       75.196    19918.246    27252.530     5654.473       12.392        2.641      438.884       61.616        0.020      335.874        6.796      848.572
12/12/2014  06:49:00     -475.598      -83.965       -9.985      240.906      182.515      102.492    58035.627    33311.869    10504.710       16.758        5.093      482.953      108.273        0.050      335.844        6.744      848.605
12/12/2014  06:50:00     -252.821      -36.969        4.613      195.844      160.767       71.991    38354.826    25846.104     5182.654        6.733        3.469      255.510       69.191        0.073      335.894        6.829      848.677
12/12/2014  06:51:00     -496.258      -35.861      -35.088      193.708      129.212       82.800    37522.890    16695.618     6855.827       15.492        3.054      497.552       82.839        0.028      335.813        6.693      848.688
12/12/2014  06:52:00     -493.048      -22.049      -11.727      237.690      184.160       99.879    56496.435    33914.917     9975.820       17.203        5.019      493.540      101.075        0.042      335.816        6.699      848.763
12/12/2014  06:53:00     -430.545     -123.156       -5.820      237.188      154.624       97.171    56258.301    23908.707     9442.182       14.507        4.480      447.813      102.735        0.053      335.816        6.698      848.800
12/12/2014  06:54:00     -489.046      -79.043      -14.638      222.010      156.822       91.014    49288.539    24593.242     8283.588       16.388        4.108      495.393      103.280        0.043      335.816        6.699      848.859
12/12/2014  06:55:00     -712.801     -152.159      -44.781      269.292      153.230      103.693    72517.935    23479.387    10752.283       31.997        5.337      728.860      124.102        0.029      335.837        6.734      848.806
12/12/2014  06:56:00     -414.628     -235.472      -18.051      235.306      179.272      107.733    55368.763    32138.536    11606.407       16.338        4.956      476.827      116.612        0.060      335.841        6.739      848.722
12/12/2014  06:57:00     -359.878      -42.923       -6.365      194.514      172.068       91.363    37835.794    29607.276     8347.234       10.358        3.790      362.428      103.313        0.081      335.862        6.775      848.678
12/12/2014  06:58:00     -706.483       49.115      -42.814      306.372      178.971      111.085    93863.657    32030.473    12339.936       32.077        6.912      708.188      137.413        0.038      335.900        6.838      848.609
12/12/2014  06:59:00     -548.681     -122.815      -18.726      264.368      220.789      107.587    69890.563    48747.811    11575.021       22.332        6.511      562.258      122.234        0.047      335.928        6.885      848.580
12/12/2014  07:00:00     -619.134      -29.960      -26.911      239.538      176.961       99.882    57378.370    31315.206     9976.511       24.179        4.934      619.859      106.806        0.030      335.923        6.876      848.617
12/12/2014  07:01:00     -633.037      -76.492      -35.038      200.453      226.742      105.692    40181.359    51411.736    11170.788       25.527        5.138      637.642       99.398        0.024      335.947        6.916      848.623
12/12/2014  07:02:00     -427.076     -116.277      -20.003      228.862      181.535       82.233    52378.017    32954.815     6762.331       14.419        4.605      442.622       85.599        0.037      336.086        7.148      848.702
12/12/2014  07:03:00     -289.101      -55.949       -8.374      199.321      154.686       82.315    39728.886    23927.756     6775.719        7.859        3.522      294.465       93.213        0.100      336.097        7.167      848.743
12/12/2014  07:04:00     -447.636     -100.696      -19.032      177.424      168.834       95.192    31479.167    28504.772     9061.428       13.995        3.452      458.822      101.127        0.049      336.009        7.021      848.770
12/12/2014  07:05:00     -411.261      -37.605      -12.791      208.663      171.853       73.347    43540.447    29533.562     5379.763       12.457        3.923      412.977       82.270        0.040      336.023        7.044      848.767
12/12/2014  07:06:00     -570.643     -129.168       -8.209      296.103      204.872       90.773    87677.095    41972.618     8239.800       24.011        6.894      585.080      104.674        0.032      336.092        7.159      848.701
12/12/2014  07:07:00     -561.930      -98.833       -1.501      276.233      194.270      118.479    76304.456    37740.739    14037.276       22.678        6.404      570.555      132.962        0.054      335.978        6.969      848.743
12/12/2014  07:08:00     -414.369     -120.423       -1.774      326.702      192.785      131.615   106734.243    37166.068    17322.407       17.368        8.061      431.513      165.750        0.148      335.949        6.919      848.836
12/12/2014  07:09:00     -530.442     -117.052      -41.652      250.024      245.855      116.116    62511.920    60444.783    13482.823       21.659        6.822      543.203      126.003        0.054      335.966        6.948      848.877
12/12/2014  07:10:00     -279.934      -29.639      -26.496      164.538      203.880       86.283    27072.612    41566.916     7444.747        7.800        3.804      281.498       75.849        0.073      335.967        6.950      848.911
12/12/2014  07:11:00     -459.681     -250.422       -3.962      229.851      191.914      105.697    52831.427    36831.143    11171.874       18.741        5.042      523.467      129.315        0.061      335.878        6.801      848.907
12/12/2014  07:12:00     -515.573     -149.730      -35.073      244.716      225.615      112.858    59885.898    50902.347    12736.902       20.647        6.176      536.875      118.652        0.049      335.895        6.829      848.953
12/12/2014  07:13:00     -468.691     -224.192       -5.352      298.483      228.236      128.903    89091.851    52091.756    16616.006       21.385        7.890      519.551      153.579        0.087      335.972        6.959      849.124
12/12/2014  07:14:00     -314.031     -204.440       -9.032      193.608      196.289      101.359    37484.205    38529.523    10273.705       11.337        4.314      374.715       95.452        0.065      335.934        6.896      849.314
12/12/2014  07:15:00     -245.576      -98.488        8.417      181.328      155.002       89.628    32879.923    24025.497     8033.201        6.750        3.247      264.589       93.801        0.126      335.931        6.891      849.438
12/12/2014  07:16:00     -178.561      -65.925       21.821      170.865      141.988       85.836    29194.815    20160.681     7367.840        4.670        2.836      190.342       95.064        0.249      335.887        6.818      849.508
12/12/2014  07:17:00     -408.444     -118.158      -21.520      212.863      168.412       97.187    45310.497    28362.450     9445.350       13.217        4.156      425.192      105.626        0.062      335.875        6.797      849.599
12/12/2014  07:18:00     -240.494     -103.379       -2.949      163.949      153.323       83.629    26879.273    23508.083     6993.814        6.295        2.869      261.773       87.781        0.112      335.890        6.821      849.641
12/12/2014  07:19:00     -211.538     -180.499        9.880      172.358      132.811       81.585    29707.217    17638.736     6656.038        6.570        2.700      278.079       80.474        0.084      335.854        6.762      849.665
12/12/2014  07:20:00     -445.135     -143.840      -29.612      175.347      152.435       88.063    30746.743    23236.467     7755.103       14.071        3.087      467.798       95.145        0.041      335.812        6.692      849.740
12/12/2014  07:21:00     -292.504     -113.430      -13.370      186.783      129.090       86.478    34887.717    16664.335     7478.491        7.881        2.952      313.728       94.085        0.090      335.850        6.755      849.774
12/12/2014  07:22:00     -351.440     -158.659      -15.907      210.268      136.025       87.096    44212.608    18502.801     7585.673       10.960        3.515      385.594       94.562        0.060      335.796        6.665      849.798
12/12/2014  07:23:00     -318.884       69.011       -2.252      275.367      125.130       86.930    75827.067    15657.571     7556.766       10.273        4.952      326.266      121.955        0.140      335.876        6.800      849.843
12/12/2014  07:24:00     -389.628      -18.762      -22.015      160.466      140.979       79.739    25749.229    19875.090     6358.308       10.230        2.599      390.080       75.797        0.038      335.794        6.662      849.854
12/12/2014  07:25:00     -271.619      -18.418       -4.797      226.138      137.774       97.387    51138.395    18981.630     9484.266        7.686        3.980      272.242      115.004        0.178      335.820        6.705      849.881
12/12/2014  07:26:00     -260.436      -15.752       -9.528      148.373      126.195       75.295    22014.517    15925.100     5669.357        5.588        2.180      260.912       64.491        0.061      335.847        6.750      849.903
12/12/2014  07:27:00     -211.394      -20.596        7.470      140.612      121.059       71.198    19771.688    14655.245     5069.154        4.232        1.975      212.395       75.363        0.126      335.809        6.687      849.901
12/12/2014  07:28:00     -249.843        4.677        4.672      191.116      140.364       81.975    36525.325    19702.102     6719.859        6.269        3.147      249.886       89.441        0.128      335.840        6.741      849.865
12/12/2014  07:29:00     -384.173     -108.104      -31.557      158.870      146.059       72.556    25239.677    21333.124     5264.374       10.604        2.592      399.093       79.494        0.040      335.755        6.595      849.852
12/12/2014  07:30:00     -424.768      -68.513      -32.611      156.257      109.185       71.259    24416.292    11921.412     5077.910       11.379        2.071      430.258       75.871        0.031      335.724        6.546      849.867
12/12/2014  07:31:00     -437.247      -64.086      -29.590      210.671      115.160       61.693    44382.228    13261.798     3805.996       12.880        3.073      441.918       74.929        0.029      335.709        6.521      849.854
12/12/2014  07:32:00     -177.649      -77.423        0.474      120.541      102.896       59.946    14530.202    10587.531     3593.537        3.313        1.436      193.787       72.165        0.139      335.724        6.547      849.845
12/12/2014  07:33:00     -258.946     -100.595      -10.363      151.407      120.948       65.886    22923.943    14628.492     4340.965        5.958        2.095      277.799       61.218        0.049      335.707        6.516      849.837
12/12/2014  07:34:00     -348.795     -103.191       -6.158      153.142       97.443       68.473    23452.327     9495.207     4688.565        8.498        1.882      363.739       79.706        0.048      335.673        6.460      849.854
12/12/2014  07:35:00     -452.330      -73.509      -20.876      266.471      149.998       82.802    71006.735    22499.285     6856.098       15.538        5.018      458.264      101.933        0.049      335.697        6.500      849.898
12/12/2014  07:36:00     -390.174     -168.690       -4.686      221.295      153.601       85.056    48971.465    23593.171     7234.499       13.024        3.990      425.079      112.031        0.069      335.674        6.461      849.918
12/12/2014  07:37:00     -283.459      -79.174       -6.031      134.625      123.431       70.091    18123.928    15235.304     4912.767        6.246        1.914      294.309       63.373        0.046      335.721        6.539      849.874
12/12/2014  07:38:00     -341.660      -51.192       -0.255      175.334      122.886       79.377    30742.000    15101.052     6300.736        8.574        2.607      345.474       72.978        0.045      335.708        6.519      849.837
12/12/2014  07:39:00     -382.081      -23.829      -11.691      155.939      128.600       83.121    24316.849    16537.925     6909.124        9.722        2.388      382.823       85.555        0.050      335.664        6.445      849.779
12/12/2014  07:40:00     -471.586     -124.658      -38.746      164.734      142.902       79.859    27137.298    20421.084     6377.413       14.667        2.697      487.784       77.360        0.025      335.609        6.354      849.725
12/12/2014  07:41:00     -356.205       15.314      -13.739      216.893      138.516       88.708    47042.742    19186.735     7869.184       10.069        3.705      356.534      102.056        0.082      335.702        6.509      849.683
12/12/2014  07:42:00     -489.000     -143.079      -13.183      267.317      171.420      103.712    71458.457    29384.824    10756.136       18.566        5.580      509.502      122.653        0.058      335.607        6.350      849.651
12/12/2014  07:43:00     -303.793      -61.765       -6.197      166.875      148.202       84.444    27847.326    21963.820     7130.858        7.653        2.847      310.009       78.471        0.064      335.646        6.416      849.695
12/12/2014  07:44:00     -390.552     -109.378      -11.883      173.030      114.821       59.073    29939.326    13183.949     3489.653       10.561        2.331      405.579       50.917        0.016      335.630        6.388      849.725
12/12/2014  07:45:00     -579.048     -192.697      -23.503      194.006      178.285      101.002    37638.410    31785.415    10201.503       22.629        3.981      610.269      104.724        0.029      335.570        6.287      849.741
12/12/2014  07:46:00     -533.806      -42.678      -34.759      245.461      156.267       89.429    60250.908    24419.414     7997.623       19.030        4.633      535.509      114.050        0.045      335.616        6.366      849.771
12/12/2014  07:47:00     -446.431      -58.513      -22.617      208.987      166.823       87.192    43675.522    27829.817     7602.407       14.116        3.955      450.249       91.043        0.041      335.591        6.324      849.807
12/12/2014  07:48:00     -509.438      -14.110      -25.762      169.592      150.311       83.207    28761.444    22593.389     6923.364       15.932        2.914      509.633       81.574        0.026      335.649        6.419      849.819
12/12/2014  07:49:00     -429.279     -131.667      -20.841      240.514      162.844       88.066    57847.178    26518.054     7755.567       14.707        4.606      449.017      100.445        0.050      335.591        6.324      849.822
12/12/2014  07:50:00     -376.234      -86.388      -29.866      260.149      134.265       95.571    67677.399    18027.118     9133.906       12.235        4.742      386.024      124.969        0.105      335.606        6.349      849.812
12/12/2014  07:51:00     -390.409     -122.748      -19.705      164.958      117.608       66.118    27211.241    13831.744     4371.622       10.664        2.271      409.251       79.722        0.038      335.584        6.313      849.783
12/12/2014  07:52:00     -283.914      -67.819      -22.917      194.009      174.370       84.126    37639.601    30404.767     7077.176        8.041        3.756      291.902       79.351        0.074      335.578        6.302      849.764
12/12/2014  07:53:00     -339.778      -86.108      -19.998      174.788      138.627       75.003    30550.702    19217.407     5625.471        8.932        2.770      350.519       78.592        0.050      335.584        6.313      849.769
12/12/2014  07:54:00     -319.648     -120.242      -25.986      162.074      132.984       63.924    26267.961    17684.870     4086.284        8.266        2.402      341.516       71.408        0.044      335.577        6.301      849.794
12/12/2014  07:55:00     -203.671      -26.092        2.940      151.748      115.456       60.320    23027.557    13330.041     3638.515        4.108        2.000      205.336       57.400        0.078      335.610        6.356      849.873
12/12/2014  07:56:00     -515.453      -85.269       -7.778      237.706      147.872       88.678    56504.338    21866.116     7863.727       17.961        4.312      522.459      106.785        0.042      335.555        6.264      849.954
12/12/2014  07:57:00     -387.364      -14.792       -9.802      141.756      117.930       73.987    20094.842    13907.499     5474.065        9.491        1.974      387.646       76.983        0.039      335.611        6.356      850.075
12/12/2014  07:58:00     -501.232      -64.228      -27.994      199.320      131.431       77.637    39728.369    17274.054     6027.427       15.957        3.151      505.330       99.190        0.039      335.548        6.252      850.159
12/12/2014  07:59:00     -408.562      -63.734      -13.424      160.680      154.231       69.016    25818.160    23787.334     4763.195       11.276        2.718      413.503       66.574        0.026      335.600        6.339      850.239
12/12/2014  08:00:00     -445.333      -66.453      -23.194      184.338      153.009       75.163    33980.451    23411.876     5649.485       13.315        3.152      450.264       83.078        0.034      335.627        6.383      850.334
12/12/2014  08:01:00     -280.475      -82.472      -27.201      151.221      138.439       75.194    22867.793    19165.344     5654.210        6.694        2.384      292.349       70.930        0.059      335.626        6.383      850.398
12/12/2014  08:02:00     -390.656      -29.684      -26.225      188.594      116.073       71.818    35567.547    13472.895     5157.873       10.418        2.710      391.782       87.654        0.050      335.612        6.360      850.449
12/12/2014  08:03:00     -346.509      -28.238      -37.459      173.425      104.540       60.677    30076.347    10928.654     3681.678        8.347        2.234      347.657       72.204        0.043      335.618        6.369      850.455
12/12/2014  08:04:00     -326.529       17.569      -36.937      104.998      112.895       58.289    11024.609    12745.213     3397.569        6.773        1.358      327.002       49.059        0.023      335.673        6.461      850.436
12/12/2014  08:05:00     -376.881      -22.451      -37.174      131.171      104.786       52.339    17205.889    10980.180     2739.393        8.742        1.546      377.549       53.537        0.020      335.580        6.305      850.398
12/12/2014  08:06:00     -323.529      -82.667      -11.766      163.328      102.527       85.899    26675.973    10511.810     7378.609        7.810        2.228      333.923       84.032        0.063      335.564        6.280      850.358
12/12/2014  08:07:00     -312.469      -96.175      -16.638      110.931       89.214       59.722    12305.676     7959.191     3566.716        6.549        1.192      326.935       46.333        0.020      335.573        6.294      850.321
12/12/2014  08:08:00     -231.564      -92.282      -10.719      105.226       94.649       56.106    11072.409     8958.432     3147.906        4.271        1.159      249.275       56.706        0.052      335.580        6.307      850.298
12/12/2014  08:09:00     -228.889      -55.365      -24.811      145.896       81.770       58.420    21285.698     6686.342     3412.899        4.372        1.569      235.490       69.668        0.088      335.604        6.345      850.290
12/12/2014  08:10:00     -362.787      -44.319      -25.938      119.382      170.873       72.512    14252.099    29197.625     5257.935        9.147        2.435      365.484       59.253        0.026      335.578        6.302      850.314
12/12/2014  08:11:00     -211.000      -65.891        2.805      205.681      105.797       74.965    42304.770    11193.049     5619.690        5.398        2.956      221.049       91.484        0.171      335.595        6.332      850.364
12/12/2014  08:12:00     -439.343      -26.849      -41.392      157.856      132.779       73.982    24918.652    17630.164     5473.392       12.173        2.401      440.163       69.301        0.025      335.634        6.394      850.488
12/12/2014  08:13:00     -471.831      -59.174      -42.836      146.578      125.714       72.443    21485.117    15803.965     5248.009       13.524        2.127      475.527       66.842        0.020      335.584        6.311      850.591
12/12/2014  08:14:00     -363.981     -114.918      -13.976      142.846      118.150       68.941    20404.940    13959.373     4752.803        9.249        1.956      381.692       57.204        0.022      335.578        6.302      850.715
12/12/2014  08:15:00     -405.087     -127.461       -6.243      192.753      149.964       83.894    37153.628    22489.333     7038.223       12.352        3.334      424.666       82.738        0.038      335.566        6.281      850.823
12/12/2014  08:16:00     -163.916      -54.437        6.967      135.888       89.579       56.589    18465.427     8024.455     3202.300        2.978        1.485      172.719       62.547        0.131      335.603        6.346      850.940
12/12/2014  08:17:00     -208.125      -37.863       -6.499      112.329       88.861       49.413    12617.857     7896.194     2441.685        3.387        1.148      211.541       53.252        0.063      335.634        6.395      850.971
12/12/2014  08:18:00     -254.394      -90.276        0.980      140.001      116.024       70.680    19600.395    13461.466     4995.697        5.545        1.903      269.937       67.821        0.063      335.587        6.316      850.987
12/12/2014  08:19:00     -408.568      -46.471      -26.269      116.539       87.484       52.318    13581.446     7653.505     2737.129        9.687        1.199      411.203       59.730        0.021      335.574        6.294      850.949
12/12/2014  08:20:00     -451.373      -58.228      -32.499      138.551       95.932       62.533    19196.448     9202.948     3910.382       12.024        1.615      455.114       60.811        0.018      335.563        6.277      850.882
12/12/2014  08:21:00     -479.256      -51.058      -40.341      125.945      179.612       62.066    15862.267    32260.454     3852.168       14.294        2.599      481.968       55.294        0.013      335.567        6.284      850.794
12/12/2014  08:22:00     -485.320      -72.321      -19.708      226.739      154.752       92.072    51410.377    23948.132     8477.216       16.248        4.192      490.679      109.717        0.050      335.573        6.293      850.690
12/12/2014  08:23:00     -377.630     -240.742      -26.759      161.450      122.642       75.419    26066.065    15041.160     5688.090       12.403        2.340      447.840       64.657        0.021      335.551        6.256      850.617
12/12/2014  08:24:00     -460.053      -85.297      -17.481      185.237      159.847       77.559    34312.675    25551.216     6015.440       14.254        3.294      467.894       73.628        0.025      335.566        6.282      850.630
12/12/2014  08:25:00     -482.201      -53.296      -37.942      146.261      159.497       70.306    21392.344    25439.393     4942.890       14.428        2.589      485.137       50.555        0.011      335.600        6.339      850.633
12/12/2014  08:26:00     -398.801     -117.116      -27.352      139.162      106.734       67.171    19366.042    11392.171     4511.877       10.438        1.764      415.642       65.942        0.025      335.566        6.280      850.657
12/12/2014  08:27:00     -421.710      -31.033      -23.529      190.566      151.397       91.624    36315.533    22920.919     8394.975       12.348        3.382      422.851      101.774        0.058      335.606        6.349      850.681
12/12/2014  08:28:00     -419.457      -80.604      -14.280      216.317      116.466       76.657    46793.033    13564.242     5876.219       12.443        3.312      427.131       98.733        0.053      335.568        6.285      850.690
12/12/2014  08:29:00     -402.233      -39.199      -18.773      195.757      169.023       73.919    38320.808    28568.822     5464.024       11.800        3.618      404.139       82.490        0.042      335.587        6.317      850.680
12/12/2014  08:30:00     -304.426      -58.628      -11.597      132.615      116.753       67.779    17586.773    13631.247     4594.046        6.602        1.791      310.020       75.481        0.059      335.636        6.400      850.705
12/12/2014  08:31:00     -548.095     -129.366      -39.252      206.363      170.096       79.512    42585.884    28932.541     6322.162       19.825        3.892      563.156       91.136        0.026      335.588        6.319      850.721
12/12/2014  08:32:00     -316.434      -82.548      -14.449      213.112      150.813       89.431    45416.552    22744.462     7997.848        9.164        3.808      327.024      102.158        0.098      335.596        6.333      850.773
12/12/2014  08:33:00     -363.802      -80.723        0.194      194.298      146.515       97.794    37751.807    21466.651     9563.677       10.381        3.439      372.650       98.001        0.069      335.621        6.374      850.827
12/12/2014  08:34:00     -296.381      -31.589       -9.030      153.716      171.962       78.418    23628.466    29570.833     6149.360        7.412        2.967      298.060       67.996        0.052      335.654        6.429      850.875
12/12/2014  08:35:00     -312.794      -78.186       -7.696      190.528      141.000       82.973    36300.833    19880.920     6884.490        8.353        3.153      322.418       86.292        0.072      335.609        6.355      850.962
12/12/2014  08:36:00     -361.028      -83.552      -23.925      132.740       99.745       67.235    17619.833     9949.061     4520.546        8.499        1.604      370.570       64.960        0.031      335.600        6.339      851.052
12/12/2014  08:37:00     -302.809      -84.543       -4.781      197.372      149.334       85.082    38955.561    22300.533     7238.878        8.367        3.425      314.390       94.828        0.091      335.601        6.341      851.089
12/12/2014  08:38:00     -349.860     -229.090      -30.518      230.676      212.472       95.050    53211.297    45144.560     9034.457       14.158        5.370      418.191       94.454        0.051      335.619        6.369      851.078
12/12/2014  08:39:00     -226.304     -127.675        7.883      226.880      181.566      109.425    51474.357    32966.116    11973.750        8.198        4.821      259.835      132.873        0.262      335.682        6.476      851.061
12/12/2014  08:40:00     -401.301     -194.858      -22.846      244.695      185.886      109.918    59875.544    34553.421    12082.052       15.300        5.326      446.108      132.851        0.089      335.634        6.394      851.082
12/12/2014  08:41:00     -278.733      -82.521        4.047      185.204      145.320       87.992    34300.497    21118.004     7742.667        7.383        3.158      290.692       88.036        0.092      335.636        6.400      851.141
12/12/2014  08:42:00     -293.367     -113.822        0.533      209.166      127.123       85.233    43750.561    16160.373     7264.684        8.308        3.359      314.674       95.780        0.093      335.631        6.389      851.187
12/12/2014  08:43:00     -234.794      -53.075       -5.833      149.031      151.771       78.074    22210.240    23034.464     6095.525        5.465        2.567      240.718       71.165        0.087      335.677        6.467      851.219
12/12/2014  08:44:00     -189.399     -111.650        5.788      192.563      139.037       93.922    37080.492    19331.328     8821.374        5.679        3.262      219.858       98.728        0.202      335.662        6.444      851.180
12/12/2014  08:45:00     -342.149      -87.992       -0.506      229.141      153.854       98.371    52505.493    23671.181     9676.785       10.531        4.293      353.282      105.047        0.088      335.618        6.369      851.129
12/12/2014  08:46:00     -382.728      -45.235       -1.904      153.383      132.948       76.095    23526.234    17675.181     5790.467        9.775        2.350      385.392       77.774        0.041      335.632        6.392      851.079
12/12/2014  08:47:00     -405.724      -78.262      -10.338      216.366      160.724       94.326    46814.359    25832.145     8897.395       12.618        4.077      413.203      103.815        0.063      335.601        6.341      851.031
12/12/2014  08:48:00     -476.462      -88.519      -24.052      188.580      169.998       76.959    35562.368    28899.319     5922.727       15.289        3.519      484.615       74.942        0.024      335.639        6.403      851.000
12/12/2014  08:49:00     -392.666     -105.715      -14.194      191.262      151.225       90.066    36581.292    22868.892     8111.807       11.655        3.378      406.648       92.459        0.052      335.617        6.366      850.970
12/12/2014  08:50:00     -365.267     -124.811      -14.962      222.607      178.123       90.480    49553.730    31727.791     8186.585       11.933        4.473      386.002       95.087        0.061      335.599        6.337      850.886
12/12/2014  08:51:00     -369.988     -152.016      -23.017      240.900      169.468       98.484    58032.999    28719.454     9699.055       12.847        4.823      400.000      109.633        0.075      335.585        6.315      850.824
12/12/2014  08:52:00     -297.858     -112.918      -31.093      171.023      135.796       76.124    29248.771    18440.475     5794.924        7.795        2.674      318.543       63.425        0.040      335.597        6.334      850.865
12/12/2014  08:53:00     -251.352     -149.766        5.367      207.311      155.827       92.251    42977.649    24281.992     8510.333        8.069        3.788      292.588      104.721        0.128      335.568        6.286      850.915
12/12/2014  08:54:00     -342.945     -182.454      -16.065      215.605      186.516      102.426    46485.596    34788.034    10491.028       12.144        4.588      388.460       67.447        0.030      335.559        6.271      850.983
12/12/2014  08:55:00     -386.552      -73.062        3.819      204.038      148.890       89.274    41631.372    22168.116     7969.926       11.326        3.588      393.396      101.337        0.066      335.595        6.330      851.060
12/12/2014  08:56:00     -338.211     -134.578        5.704      232.632      151.926       93.462    54117.710    23081.372     8735.110       10.921        4.297      364.002       98.434        0.073      335.592        6.325      851.112
12/12/2014  08:57:00     -342.413     -128.035        7.489      245.592      175.437      112.045    60315.313    30778.043    12554.006       11.865        5.182      365.567      139.491        0.146      335.637        6.401      851.171
12/12/2014  08:58:00     -406.073     -236.239      -11.028      237.791      184.422       99.001    56544.571    34011.350     9801.173       16.057        5.018      469.791      109.449        0.054      335.626        6.383      851.233
12/12/2014  08:59:00     -311.629     -177.768        0.515      225.155      149.319       97.316    50694.913    22296.161     9470.450       10.557        4.123      358.767      108.402        0.091      335.616        6.367      851.283
12/12/2014  09:00:00     -309.378     -101.109       31.518      217.179      189.617      101.375    47166.877    35954.575    10276.862       10.015        4.670      325.481      117.657        0.131      335.655        6.432      851.326
12/12/2014  09:01:00     -516.751     -115.438       -8.084      284.661      176.556      112.272    81032.165    31172.149    12604.983       20.259        6.240      529.488      133.682        0.064      335.614        6.362      851.363
12/12/2014  09:02:00     -258.408     -175.877       -8.897      235.926      160.369       94.982    55661.239    25718.085     9021.539        9.408        4.520      312.582      108.800        0.121      335.629        6.386      851.377
12/12/2014  09:03:00     -498.930     -182.731      -23.507      277.732      192.105       94.574    77135.116    36904.451     8944.220       20.290        6.149      531.340      114.592        0.047      335.598        6.336      851.366
12/12/2014  09:04:00     -237.608     -148.017        8.340      191.071      175.036       94.616    36508.227    30637.556     8952.193        7.725        3.805      279.940      101.181        0.131      335.633        6.394      851.383
12/12/2014  09:05:00     -448.473      -97.614       -7.241      278.325      174.902      100.269    77464.841    30590.801    10053.843       16.438        5.905      458.973      123.815        0.073      335.596        6.332      851.389
12/12/2014  09:06:00     -293.613     -123.339       -5.417      183.525      169.300       83.200    33681.355    28662.352     6922.231        8.534        3.463      318.467       95.713        0.090      335.592        6.326      851.385
12/12/2014  09:07:00     -404.167     -179.457        4.872      189.968      183.484       91.208    36088.005    33666.535     8318.868       13.681        3.904      442.217       97.932        0.049      335.561        6.273      851.412
12/12/2014  09:08:00     -331.779      -83.884       11.359      205.124      142.856       83.603    42075.703    20407.955     6989.534        9.334        3.474      342.219       93.498        0.075      335.549        6.255      851.441
12/12/2014  09:09:00     -252.933      -28.368        4.383      174.551      123.100       76.479    30467.977    15153.598     5848.978        5.812        2.574      254.519       70.815        0.077      335.644        6.411      851.491
12/12/2014  09:10:00     -299.286     -137.470      -11.295      179.806      153.789       81.195    32330.115    23651.046     6592.573        8.557        3.129      329.348       69.340        0.044      335.562        6.275      851.548
12/12/2014  09:11:00     -346.613      -95.514       -8.570      235.612      143.072       80.684    55513.125    20469.632     6509.979       10.590        4.125      359.533       97.959        0.074      335.513        6.194      851.594
12/12/2014  09:12:00     -463.975      -63.436       -8.147      233.429      177.355       96.211    54489.127    31454.729     9256.484       15.726        4.760      468.291      114.039        0.059      335.473        6.128      851.589
12/12/2014  09:13:00     -424.682      -47.154      -12.676      254.412      162.871       97.075    64725.342    26526.950     9423.481       14.169        5.034      427.292      117.717        0.076      335.485        6.147      851.590
12/12/2014  09:14:00     -435.991        5.138      -46.038      169.197      113.688       64.698    28627.670    12924.925     4185.781       11.898        2.287      436.021       70.975        0.026      335.470        6.122      851.596
12/12/2014  09:15:00     -385.520      -63.782      -19.984      183.888      134.221       75.618    33814.823    18015.378     5718.133       10.531        2.877      390.760       76.264        0.038      335.484        6.146      851.592
12/12/2014  09:16:00     -474.355      -64.498      -21.980      173.605      140.573       92.049    30138.839    19760.713     8472.927       14.400        2.919      478.720       93.091        0.038      335.443        6.077      851.611
12/12/2014  09:17:00     -457.570      -47.028      -15.615      211.476      132.195       86.916    44722.089    17475.525     7554.342       14.078        3.488      459.981       95.980        0.044      335.414        6.029      851.597
12/12/2014  09:18:00     -219.963     -105.082       13.054      208.346      186.702       79.188    43408.106    34857.811     6270.738        7.205        4.227      243.774       69.195        0.081      335.472        6.125      851.593
12/12/2014  09:19:00     -356.768      -94.538       -6.698      258.036      182.527      101.286    66582.554    33316.111    10258.907       12.319        5.508      369.081      112.809        0.093      335.433        6.060      851.568
12/12/2014  09:20:00     -306.680      -78.336       -6.324      187.684      151.767       83.116    35225.237    23033.324     6908.276        8.269        3.258      316.526       87.086        0.076      335.472        6.126      851.565
12/12/2014  09:21:00     -195.019      -93.986       15.698      184.195      165.729       93.660    33927.751    27466.164     8772.202        5.863        3.508      216.485       99.927        0.213      335.478        6.136      851.536
12/12/2014  09:22:00     -308.881      -37.521      -10.369      213.978      104.857       80.559    45786.582    10994.923     6489.753        8.008        3.164      311.151       88.297        0.081      335.488        6.152      851.539
12/12/2014  09:23:00     -391.816       10.877      -17.085      264.082      141.707       83.933    69739.420    20080.905     7044.672       12.538        4.843      391.967      111.320        0.081      335.440        6.073      851.543
12/12/2014  09:24:00     -208.349        3.504        6.086      164.718       89.148       73.104    27132.166     7947.334     5344.148        4.193        2.021      208.379       79.752        0.146      335.553        6.261      851.551
12/12/2014  09:25:00     -304.672     -119.712      -22.488      175.593      133.339       84.988    30832.815    17779.421     7222.999        8.174        2.792      327.347       72.959        0.050      335.417        6.034      851.564
12/12/2014  09:26:00     -167.784      -39.440        6.732      124.461      109.039       63.319    15490.545    11889.593     4009.259        3.056        1.569      172.357       57.398        0.111      335.453        6.095      851.616
12/12/2014  09:27:00     -277.569      -55.964       -2.181      144.995      104.487       74.850    21023.523    10917.585     5602.565        5.885        1.877      283.154       73.535        0.067      335.457        6.101      851.651
12/12/2014  09:28:00     -185.446      -81.212        3.219      147.059      123.999       67.122    21626.467    15375.640     4505.296        4.124        2.075      202.449       66.857        0.109      335.444        6.078      851.690
12/12/2014  09:29:00     -240.465      -93.271       25.077      200.744      138.439       79.369    40298.084    19165.259     6299.424        6.644        3.288      257.921       81.904        0.101      335.436        6.065      851.728
12/12/2014  09:30:00     -253.441      -67.689        0.731      193.872      148.359       63.041    37586.334    22010.420     3974.110        6.618        3.179      262.324       78.460        0.089      335.463        6.110      851.770
12/12/2014  09:31:00     -338.279      -99.704      -26.864      130.779      125.389       64.696    17103.259    15722.396     4185.619        8.105        1.851      352.666       51.286        0.021      335.461        6.108      851.800
12/12/2014  09:32:00     -169.921      -13.502       11.619      158.907      151.780       78.426    25251.322    23037.085     6150.593        4.180        2.722      170.457       82.991        0.237      335.460        6.107      851.812
12/12/2014  09:33:00     -302.650      -33.660      -10.824      164.971      148.474       70.460    27215.472    22044.637     4964.602        7.352        2.711      304.516       68.794        0.051      335.469        6.121      851.845
12/12/2014  09:34:00     -299.144     -121.352      -22.320      162.759       99.624       69.396    26490.616     9925.038     4815.792        7.296        2.062      322.821       83.780        0.067      335.420        6.039      851.851
12/12/2014  09:35:00     -457.782      -75.391      -38.442      156.545       90.115       66.631    24506.187     8120.738     4439.697       12.689        1.853      463.949       57.151        0.015      335.420        6.038      851.861
12/12/2014  09:36:00     -224.088     -115.282        2.337      125.504      139.008       64.711    15751.243    19323.220     4187.554        5.138        1.963      252.003       64.996        0.067      335.462        6.108      851.855
12/12/2014  09:37:00     -375.208     -200.242      -10.109      227.124      159.286       92.603    51585.180    25371.959     8575.243       13.324        4.277      425.297      109.767        0.067      335.413        6.028      851.848
12/12/2014  09:38:00     -274.127      -44.303      -15.641      183.230      128.864       87.194    33573.141    16605.829     7602.752        6.756        2.889      277.684       97.450        0.123      335.453        6.093      851.872
12/12/2014  09:39:00     -147.309      -50.564       10.321      136.699       92.210       65.960    18686.596     8502.592     4350.730        2.795        1.577      155.745       85.561        0.302      335.511        6.193      851.905
12/12/2014  09:40:00     -162.970     -106.344       -0.636      129.678      108.476       71.881    16816.316    11767.147     5166.902        3.580        1.688      194.598       73.818        0.144      335.513        6.194      851.949
12/12/2014  09:41:00     -143.456      -53.664       -4.888      105.210       76.596       59.713    11069.078     5866.940     3565.663        2.199        1.025      153.165       58.040        0.144      335.500        6.173      852.005
12/12/2014  09:42:00     -136.532      -17.448        5.313      129.611       90.766       59.991    16799.097     8238.386     3598.885        2.380        1.432      137.642       65.206        0.224      335.536        6.233      852.057
12/12/2014  09:43:00     -195.226       -2.569        0.119      137.498      101.346       57.622    18905.740    10270.968     3320.265        3.530        1.625      195.243       57.917        0.088      335.540        6.239      852.090
12/12/2014  09:44:00     -248.917      -16.684       -8.525      122.036       93.374       63.552    14892.707     8718.647     4038.849        4.497        1.383      249.475       58.004        0.054      335.498        6.171      852.115
12/12/2014  09:45:00     -309.299       23.540      -13.776      155.354       92.523       58.530    24134.768     8560.515     3425.750        6.626        1.806      310.193       77.082        0.062      335.533        6.228      852.138
12/12/2014  09:46:00     -402.123      -18.866      -21.296      163.455      142.605       75.492    26717.588    20336.187     5698.973       10.762        2.638      402.565       79.475        0.039      335.564        6.279      852.141
12/12/2014  09:47:00     -289.980      -80.090       -0.385      179.122      116.510       64.231    32084.519    13574.492     4125.584        7.013        2.489      300.837       74.390        0.061      335.478        6.136      852.170
12/12/2014  09:48:00     -325.246      -90.709      -17.956      149.965      118.589       57.857    22489.632    14063.246     3347.384        7.711        1.995      337.658       63.756        0.036      335.467        6.117      852.208
12/12/2014  09:49:00     -124.906      -30.075        6.467      107.887       95.843       40.694    11639.583     9185.916     1656.039        1.951        1.124      128.476       50.550        0.155      335.565        6.283      852.252
12/12/2014  09:50:00     -191.845        3.308      -10.818       92.480       74.744       47.974     8552.544     5586.617     2301.507        2.668        0.822      191.873       47.605        0.062      335.570        6.290      852.295
12/12/2014  09:51:00     -116.784      -17.887        3.505      104.014       72.137       51.781    10818.872     5203.786     2681.322        1.633        0.935      118.145       41.216        0.122      335.622        6.377      852.303
12/12/2014  09:52:00     -350.484      -17.860      -19.930      154.504      129.022       69.712    23871.463    16646.599     4859.696        8.446        2.269      350.938       69.918        0.040      335.521        6.206      852.306
12/12/2014  09:53:00     -317.121        9.944      -18.965      175.127       93.371       58.051    30669.537     8718.234     3369.905        7.188        2.138      317.277       64.593        0.041      335.559        6.271      852.312
12/12/2014  09:54:00     -304.542      -53.215      -35.049      189.388      107.769       54.519    35867.946    11614.207     2972.316        7.362        2.523      309.156       61.729        0.040      335.508        6.185      852.322
12/12/2014  09:55:00     -167.057      -74.039      -18.563      114.139       96.142       50.549    13027.638     9243.340     2555.209        2.928        1.241      182.728       58.619        0.103      335.543        6.245      852.348
12/12/2014  09:56:00     -228.875      -50.871       -0.320      131.702      118.784       59.632    17345.402    14109.608     3555.969        4.498        1.751      234.460       67.098        0.082      335.500        6.171      852.348
12/12/2014  09:57:00     -261.888       -7.731      -23.219      114.228       97.090       46.092    13048.093     9426.448     2124.437        4.689        1.230      262.002       36.070        0.019      335.557        6.268      852.373
12/12/2014  09:58:00     -287.338      -59.059      -16.476      106.564       86.603       55.229    11355.801     7500.132     3050.265        5.411        1.095      293.344       38.464        0.017      335.481        6.141      852.377
12/12/2014  09:59:00     -280.488     -125.163      -32.226      169.479      145.845       78.873    28723.183    21270.763     6221.010        7.579        2.811      307.148       59.910        0.038      335.494        6.161      852.377
12/12/2014  10:00:00     -245.359       25.729      -30.513       93.128       74.870       50.208     8672.909     5605.526     2520.852        3.929        0.840      246.704       54.335        0.049      335.651        6.423      852.377
12/12/2014  10:01:00     -276.565      -82.663      -17.283      154.307      106.040       54.709    23810.684    11244.444     2993.080        6.083        1.902      288.654       57.236        0.039      335.554        6.261      852.362
12/12/2014  10:02:00     -400.753     -172.593       -0.827      183.519      147.312       71.562    33679.234    21700.946     5121.161       12.543        3.025      436.338       73.099        0.028      335.493        6.161      852.320
12/12/2014  10:03:00     -215.148     -100.437       -8.831      101.779      101.222       55.125    10358.968    10245.984     3038.718        4.004        1.182      237.437       43.234        0.033      335.536        6.231      852.316
12/12/2014  10:04:00     -195.176     -119.128       -0.651      165.299      105.868       60.881    27323.843    11208.015     3706.536        4.725        2.112      228.659       64.365        0.079      335.573        6.295      852.301
12/12/2014  10:05:00     -253.934      -92.441       -8.435      152.806      129.434       64.005    23349.826    16753.082     4096.678        5.864        2.210      270.237       71.235        0.069      335.565        6.281      852.319
12/12/2014  10:06:00     -117.674      -46.509       11.832      101.827       86.548       51.109    10368.754     7490.626     2612.162        1.831        1.024      126.531       56.612        0.200      335.638        6.406      852.331
12/12/2014  10:07:00     -371.379       -3.151      -22.543      151.990      119.060       72.766    23100.821    14175.315     5294.850        9.050        2.129      371.392       80.063        0.046      335.618        6.369      852.316
12/12/2014  10:08:00     -276.765     -130.719        7.500      167.564      143.261       72.097    28077.672    20523.612     5197.990        7.376        2.690      306.082       77.302        0.064      335.546        6.248      852.305
12/12/2014  10:09:00     -190.847      -92.600        7.041      167.471      112.261       77.928    28046.514    12602.567     6072.713        4.587        2.336      212.126       76.394        0.130      335.585        6.315      852.338
12/12/2014  10:10:00     -197.976      -90.174        2.841      111.115       94.102       62.703    12346.631     8855.191     3931.623        3.623        1.257      217.545       53.346        0.060      335.608        6.353      852.368
12/12/2014  10:11:00     -122.497      -77.048       16.572      131.761       94.743       72.818    17360.997     8976.324     5302.433        2.642        1.582      144.713       76.891        0.282      335.673        6.462      852.426
12/12/2014  10:12:00     -176.886      -75.312       -0.528      133.469       78.932       53.915    17813.843     6230.230     2906.830        3.195        1.348      192.251       61.356        0.102      335.633        6.394      852.465
12/12/2014  10:13:00     -207.956     -128.845        3.364      123.017      107.572       58.635    15133.235    11571.634     3438.081        4.499        1.507      244.636       65.609        0.072      335.617        6.367      852.454
12/12/2014  10:14:00      -83.137      -93.054        7.541       86.469       81.392       56.592     7476.859     6624.680     3202.637        1.646        0.865      124.783       49.156        0.155      335.673        6.464      852.431
12/12/2014  10:15:00     -157.883      -69.798       -5.578      168.325       77.116       45.314    28333.352     5946.885     2053.336        3.307        1.817      172.623       57.887        0.112      335.706        6.518      852.404
12/12/2014  10:16:00     -420.666      -16.496      -20.646      145.876      119.219       75.660    21279.826    14213.196     5724.465       10.943        2.061      420.989       73.327        0.030      335.607        6.349      852.378
12/12/2014  10:17:00     -240.132       11.318       13.032      141.626      125.772       68.314    20057.866    15818.630     4666.760        4.924        2.027      240.399       69.206        0.083      335.716        6.533      852.403
12/12/2014  10:18:00     -153.462        2.401       -1.598       93.329       77.319       42.627     8710.365     5978.215     1817.059        2.003        0.825      153.481       45.358        0.087      335.802        6.677      852.434
12/12/2014  10:19:00     -226.038      -16.867        2.462      124.628       76.799       42.506    15532.209     5898.011     1806.736        3.731        1.162      226.666       50.989        0.051      335.719        6.539      852.465
12/12/2014  10:20:00     -287.366       32.657      -16.300      113.692      113.046       59.534    12925.959    12779.395     3544.280        5.657        1.462      289.216       58.128        0.040      335.729        6.553      852.492
12/12/2014  10:21:00     -233.800      -69.310        2.273      132.302       88.083       48.799    17503.754     7758.661     2381.315        4.355        1.382      243.857       56.522        0.054      335.691        6.491      852.497
12/12/2014  10:22:00     -182.207      -23.746        2.652      132.700       93.413       54.776    17609.253     8725.908     3000.461        3.155        1.467      183.748       63.244        0.118      335.842        6.741      852.511
12/12/2014  10:23:00     -215.370      -21.226      -10.151      155.831      115.120       49.908    24283.236    13252.690     2490.846        4.347        2.001      216.414       56.247        0.068      335.812        6.692      852.529
12/12/2014  10:24:00     -270.936      -55.197      -10.451      120.967       97.865       52.138    14632.915     9577.481     2718.370        5.174        1.346      276.502       59.428        0.046      335.722        6.541      852.560
12/12/2014  10:25:00     -139.559      -28.930       12.228       97.507       73.795       55.903     9507.694     5445.748     3125.128        1.927        0.904      142.526       60.334        0.179      335.787        6.651      852.568
12/12/2014  10:26:00     -135.250      -71.346        9.225       88.705       90.734       44.501     7868.625     8232.711     1980.354        2.077        0.904      152.914       38.518        0.063      335.842        6.743      852.577
12/12/2014  10:27:00     -181.641      -34.610       -8.906      126.984      110.641       48.727    16124.978    12241.371     2374.288        3.250        1.537      184.909       52.051        0.079      335.850        6.757      852.591
12/12/2014  10:28:00     -317.384      -65.309      -22.538      117.165      103.467       61.136    13727.740    10705.414     3737.649        6.683        1.409      324.033       57.960        0.032      335.846        6.748      852.580
12/12/2014  10:29:00     -374.583     -113.664      -15.540      224.186      139.362       77.098    50259.478    19421.684     5944.109       11.453        3.781      391.448       92.364        0.056      335.769        6.619      852.595
12/12/2014  10:30:00     -432.654     -109.248      -42.043      181.657      145.243       86.392    32999.170    21095.672     7463.534       13.121        3.078      446.234       93.116        0.044      335.729        6.554      852.597
12/12/2014  10:31:00     -250.113     -114.559        1.875      153.362      140.222       72.897    23519.968    19662.127     5313.927        6.208        2.425      275.100       79.883        0.084      335.768        6.618      852.611
12/12/2014  10:32:00     -434.685     -161.890      -12.942      159.572      129.195       68.375    25463.126    16691.440     4675.108       13.107        2.341      463.853       69.342        0.022      335.742        6.574      852.601
12/12/2014  10:33:00     -331.214     -114.831       -5.820      123.860       82.869       56.957    15341.213     6867.292     3244.068        7.418        1.273      350.555       61.414        0.031      335.768        6.618      852.642
12/12/2014  10:34:00     -156.069      -65.127       22.513      130.238      120.064       62.710    16961.874    14415.483     3932.518        3.220        1.765      169.113       71.345        0.178      335.865        6.781      852.650
12/12/2014  10:35:00     -167.026     -146.882        8.234      150.969      113.332       66.743    22791.727    12844.122     4454.620        4.481        2.005      222.423       75.896        0.116      335.833        6.727      852.632
12/12/2014  10:36:00     -220.648      -99.618       -2.532      179.968      108.571       63.697    32388.448    11787.574     4057.278        5.341        2.412      242.093       85.889        0.126      335.854        6.764      852.637
12/12/2014  10:37:00     -321.168     -101.947       -0.648      123.081       83.868       56.050    15148.814     7033.819     3141.641        6.943        1.266      336.960       51.825        0.024      335.810        6.687      852.636
12/12/2014  10:38:00     -242.509      -74.634       -2.579      137.256       83.457       57.434    18839.230     6965.097     3298.672        4.674        1.455      253.734       59.804        0.056      335.834        6.729      852.651
12/12/2014  10:39:00     -261.786      -79.581       -0.176      151.901      122.353       71.694    23073.923    14970.313     5140.058        5.902        2.159      273.614       73.365        0.072      335.880        6.804      852.674
12/12/2014  10:40:00     -392.750     -150.206      -15.480      237.617      129.802       93.472    56461.706    16848.680     8737.012       12.953        4.102      420.493       95.853        0.052      335.760        6.605      852.650
12/12/2014  10:41:00     -330.065      -84.730      -17.750      110.962       87.597       54.635    12312.593     7673.306     2985.022        6.970        1.149      340.767       54.662        0.026      335.821        6.707      852.653
12/12/2014  10:42:00     -280.325      -45.331       -6.994      121.897      101.495       57.040    14858.761    10301.259     3253.546        5.454        1.421      283.966       52.335        0.034      335.863        6.776      852.700
12/12/2014  10:43:00     -245.011      -70.813       -7.475      120.294       75.167       53.977    14470.710     5650.132     2913.476        4.406        1.152      255.039       62.002        0.059      335.826        6.714      852.705
12/12/2014  10:44:00     -342.737      -64.633       -0.177      144.185       98.702       66.578    20789.174     9742.003     4432.687        7.830        1.748      348.778       70.675        0.041      335.772        6.624      852.714
12/12/2014  10:45:00     -462.547     -170.450      -27.182      178.373      130.967       70.683    31816.890    17152.484     4996.038       14.884        2.698      492.953       72.659        0.022      335.713        6.527      852.735
12/12/2014  10:46:00     -179.131      -92.250        8.654      142.614      118.139       62.280    20338.658    13956.864     3878.816        3.942        1.909      201.489       67.979        0.114      335.886        6.815      852.759
12/12/2014  10:47:00     -271.759      -92.714      -12.403      172.850      105.114       57.848    29877.078    11048.913     3346.443        6.343        2.214      287.139       81.748        0.081      335.906        6.848      852.792
12/12/2014  10:48:00     -297.293      -91.629      -18.489      110.018       92.096       52.546    12104.030     8481.702     2761.121        6.023        1.167      311.093       39.883        0.016      335.808        6.684      852.782
12/12/2014  10:49:00     -336.001       37.470      -18.594      119.798      102.003       74.155    14351.568    10404.695     5498.922        7.244        1.513      338.084       65.920        0.038      335.857        6.766      852.784
12/12/2014  10:50:00     -122.653        6.360       12.873      119.771       78.603       62.843    14345.186     6178.374     3949.233        1.986        1.224      122.818       70.872        0.333      336.077        7.135      852.803
12/12/2014  10:51:00      -38.683     -123.743       23.191       75.968      171.679       49.721     5771.176    29473.600     2472.159        2.752        1.886      129.649       37.657        0.084      336.012        7.025      852.824
12/12/2014  10:52:00     -287.164     -252.211      -17.720      200.529      195.787      101.931    40211.945    38332.741    10389.975       11.764        4.447      382.195       88.597        0.054      335.849        6.755      852.783
12/12/2014  10:53:00     -304.248     -187.727       -0.187      151.437      157.800       88.046    22933.196    24900.937     7752.116        9.169        2.779      357.503       95.159        0.071      335.789        6.653      852.772
12/12/2014  10:54:00     -327.515     -186.541      -21.021      100.379       99.023       54.409    10075.925     9805.477     2960.309        8.267        1.142      376.913       49.846        0.017      335.859        6.770      852.779
12/12/2014  10:55:00     -132.910      -22.983        5.672       74.129       75.329       48.521     5495.114     5674.388     2354.301        1.587        0.676      134.883       41.940        0.097      336.019        7.040      852.774
12/12/2014  10:56:00     -283.333      -65.136        1.591      129.135      127.895       69.417    16675.838    16357.085     4818.723        6.118        1.893      290.723       68.046        0.055      335.881        6.807      852.761
12/12/2014  10:57:00     -245.342       -3.160       -2.506      140.359      109.838       67.311    19700.662    12064.401     4530.807        4.825        1.815      245.362       68.417        0.078      335.977        6.966      852.750
12/12/2014  10:58:00     -145.613     -101.837        5.907      132.415      146.920       72.477    17533.864    21585.501     5252.889        3.798        2.219      177.691       77.722        0.191      335.986        6.982      852.730
12/12/2014  10:59:00     -163.555     -134.628        8.509      118.322      124.588       62.388    14000.086    15522.177     3892.237        3.917        1.671      211.837       55.168        0.068      335.956        6.933      852.738
12/12/2014  11:00:00     -390.427     -210.600      -17.623      133.396      134.826       65.954    17794.611    18178.084     4349.872       11.870        2.016      443.606       72.955        0.027      335.844        6.745      852.721
12/12/2014  11:01:00     -263.248     -228.832       -0.383      179.163      129.429       96.024    32099.534    16751.893     9220.702        8.986        2.904      348.803      102.321        0.086      335.880        6.806      852.690
12/12/2014  11:02:00     -145.955      -58.569        3.598      160.605       63.492       58.115    25794.012     4031.253     3377.352        2.897        1.660      157.268       76.910        0.239      335.977        6.968      852.698
12/12/2014  11:03:00     -243.831     -168.942      -16.060      163.732      128.057       79.856    26808.213    16398.648     6376.914        6.891        2.479      296.640       85.943        0.084      335.958        6.936      852.696
12/12/2014  11:04:00     -201.210       35.279      -13.589      122.889       87.166       65.258    15101.598     7597.888     4258.558        3.443        1.348      204.280       61.102        0.089      336.060        7.107      852.699
12/12/2014  11:05:00     -197.284      -37.514       -4.386      113.528       98.650       49.361    12888.569     9731.830     2436.473        3.270        1.253      200.819       57.569        0.082      336.004        7.013      852.695
12/12/2014  11:06:00     -162.172        7.827        2.857       90.378       59.944       45.440     8168.126     3593.238     2064.811        2.009        0.691      162.361       43.804        0.073      336.015        7.032      852.699
12/12/2014  11:07:00     -182.665      -19.244        2.964       97.223       72.320       44.787     9452.315     5230.171     2005.886        2.521        0.834      183.676       39.791        0.047      336.158        7.271      852.680
12/12/2014  11:08:00     -214.412      -26.908       20.903      143.099       96.348       62.863    20477.454     9283.013     3951.772        4.042        1.686      216.093       78.780        0.133      336.134        7.230      852.697
12/12/2014  11:09:00     -195.945      -36.338       -6.891      127.634      124.228       60.887    16290.491    15432.532     3707.242        3.759        1.772      199.286       58.549        0.086      336.098        7.169      852.708
12/12/2014  11:10:00     -182.110     -119.408        2.820      104.442       92.022       56.834    10908.133     8467.963     3230.078        3.501        1.130      217.767       54.766        0.063      336.044        7.080      852.724
12/12/2014  11:11:00     -126.381       40.189      -42.375       84.626       82.998       47.960     7161.593     6888.693     2300.191        1.786        0.818      132.618       40.906        0.095      336.117        7.202      852.745
12/12/2014  11:12:00     -199.250      -10.188        4.351      173.204      116.788       55.890    29999.673    13639.446     3123.683        4.328        2.338      199.510       58.682        0.087      336.265        7.450      852.731
12/12/2014  11:13:00     -442.062     -146.866      -11.273      107.312       97.559       58.206    11515.969     9517.854     3387.889       12.076        1.221      465.820       51.294        0.012      335.918        6.868      852.728
12/12/2014  11:14:00     -285.354      -84.014        3.200      156.432      148.904       74.171    24470.962    22172.529     5501.268        7.031        2.607      297.465       77.091        0.067      336.034        7.062      852.743
12/12/2014  11:15:00     -135.222     -103.797        2.654      124.195      151.694       73.523    15424.439    23011.001     5405.625        3.644        2.192      170.466       61.172        0.129      336.098        7.169      852.712
12/12/2014  11:16:00     -232.818      -36.434      -13.532      125.698      118.439       50.426    15799.990    14027.881     2542.805        4.404        1.619      235.651       41.935        0.032      336.130        7.224      852.710
12/12/2014  11:17:00     -349.537      -91.795      -20.849      146.699      112.485       57.409    21520.601    12652.888     3295.770        8.425        1.873      361.389       68.439        0.036      336.013        7.028      852.678
12/12/2014  11:18:00     -240.980      -41.894        1.558      120.608      111.796       60.349    14546.316    12498.366     3641.945        4.525        1.534      244.594       63.420        0.067      336.119        7.204      852.677
12/12/2014  11:19:00     -281.099       -1.061       -7.236      132.344      115.535       61.974    17514.913    13348.240     3840.734        5.688        1.735      281.101       49.814        0.031      336.242        7.409      852.655
12/12/2014  11:20:00     -140.075     -101.318        9.797      122.240      108.223       60.751    14942.637    11712.224     3690.735        3.016        1.517      172.876       73.533        0.181      336.344        7.580      852.653
12/12/2014  11:21:00     -223.524     -215.029       -1.835      157.389      142.070       89.117    24771.308    20183.761     7941.797        7.454        2.645      310.162       94.510        0.093      336.128        7.219      852.632
12/12/2014  11:22:00     -370.708     -201.335      -11.119      155.560      130.136       66.277    24198.876    16935.494     4392.588       11.180        2.276      421.853       70.116        0.028      336.035        7.064      852.625
12/12/2014  11:23:00     -168.656      -99.992        6.077      139.571       96.478       66.295    19480.007     9308.052     4395.015        3.582        1.659      196.070       76.280        0.151      336.215        7.366      852.614
12/12/2014  11:24:00     -245.839      -32.970      -25.729      100.594       63.525       42.334    10119.201     4035.453     1792.140        3.906        0.797      248.040       33.056        0.018      336.285        7.481      852.613
12/12/2014  11:25:00     -202.361      -60.585       -0.279      172.281       95.014       67.867    29680.623     9027.609     4605.964        4.396        2.166      211.235       89.496        0.180      336.306        7.517      852.603
12/12/2014  11:26:00     -241.438     -104.439       11.891      172.630      136.798       85.749    29800.972    18713.796     7352.844        6.259        2.793      263.059       83.184        0.100      336.139        7.238      852.573
12/12/2014  11:27:00     -148.544     -147.760       30.646      161.640      116.881       87.111    26127.369    13661.264     7588.310        4.610        2.369      209.519       84.405        0.162      336.042        7.077      852.572
12/12/2014  11:28:00     -125.286      -58.377       10.431      119.964      105.631       50.536    14391.409    11157.824     2553.886        2.365        1.405      138.219       56.718        0.168      336.312        7.527      852.568
12/12/2014  11:29:00     -210.795     -144.340       -4.318      124.601      100.503       55.183    15525.342    10100.761     3045.188        4.697        1.434      255.477       58.239        0.052      336.197        7.334      852.542
12/12/2014  11:30:00     -212.101     -138.540       12.222      170.458      100.510       63.173    29055.982    10102.176     3990.886        5.373        2.157      253.338       82.726        0.107      336.186        7.315      852.535
12/12/2014  11:31:00     -257.129     -150.750       10.311      184.451      134.597       85.514    34022.305    18116.380     7312.640        7.419        2.973      298.062       82.202        0.076      336.136        7.232      852.520
12/12/2014  11:32:00     -489.139     -254.306      -14.920      212.602      161.607       82.763    45199.769    26116.714     6849.651       19.114        3.908      551.297       95.669        0.030      335.943        6.910      852.519
12/12/2014  11:33:00     -345.353     -152.259        9.282      245.277      176.911       91.712    60160.639    31297.644     8411.014       12.118        4.993      377.427      111.907        0.088      335.971        6.957      852.493
12/12/2014  11:34:00     -262.862     -124.259        0.287      139.337       93.569       62.621    19414.845     8755.104     3921.397        5.831        1.605      290.752       58.341        0.040      336.033        7.061      852.530
12/12/2014  11:35:00     -335.374     -133.877        2.270      224.932      173.167       98.164    50594.443    29986.843     9636.147       11.029        4.511      361.108      110.347        0.093      336.056        7.099      852.502
12/12/2014  11:36:00     -420.630     -172.469      -26.996      183.095      171.412       71.157    33523.907    29382.151     5063.359       13.767        3.398      454.615       72.802        0.026      336.029        7.052      852.482
12/12/2014  11:37:00     -322.336      -38.907      -20.861      151.924      133.470       69.873    23080.962    17814.308     4882.167        7.580        2.289      324.676       62.465        0.037      336.126        7.215      852.501
12/12/2014  11:38:00     -177.054     -136.178        8.893      151.317      136.538       86.686    22896.730    18642.594     7514.380        4.950        2.453      223.367       90.371        0.164      336.185        7.315      852.462
12/12/2014  11:39:00     -155.181      -32.452        0.199      171.353      145.186       93.140    29361.796    21079.019     8675.123        4.211        2.956      158.538       89.095        0.316      336.231        7.392      852.466
12/12/2014  11:40:00     -227.607      -18.885        4.756      129.633       98.238       58.309    16804.843     9650.650     3399.936        4.101        1.493      228.389       57.217        0.063      336.233        7.395      852.482
12/12/2014  11:41:00     -282.967     -209.026       -4.230      221.125      158.869       87.273    48896.467    25239.340     7616.621       10.275        4.088      351.799       98.286        0.078      336.104        7.179      852.462
12/12/2014  11:42:00     -270.788      -78.098      -13.016      218.831      157.538       87.850    47886.872    24818.259     7717.551        7.999        4.021      281.825       80.687        0.082      336.156        7.265      852.446
12/12/2014  11:43:00     -306.856     -105.524       -9.240      198.514      111.795       76.963    39407.948    12498.189     5923.364        8.159        2.891      324.493       89.989        0.077      336.121        7.208      852.454
12/12/2014  11:44:00     -290.222     -130.020       -0.165      135.612      124.708       69.166    18390.619    15552.002     4784.002        6.992        1.936      318.016       66.985        0.044      336.060        7.106      852.454
12/12/2014  11:45:00     -303.100      -17.121        7.916      296.625      168.511       93.466    87986.283    28395.993     8735.923       10.865        6.256      303.583      126.549        0.174      336.180        7.306      852.454
12/12/2014  11:46:00     -386.173      -27.018      -11.015      170.506      123.092       76.784    29072.311    15151.563     5895.715       10.004        2.506      387.117       82.662        0.046      336.091        7.159      852.453
12/12/2014  11:47:00     -236.392       40.137       26.049      239.016      121.068       83.077    57128.547    14657.570     6901.770        6.841        3.934      239.775      114.312        0.227      336.282        7.476      852.443
12/12/2014  11:48:00     -320.275     -148.604      -21.301      172.621      220.978       68.366    29797.989    48831.311     4673.914       10.419        4.165      353.071       66.489        0.035      336.190        7.324      852.465
12/12/2014  11:49:00     -286.143     -158.076       -7.880      192.936      140.476       86.039    37224.229    19733.394     7402.732        8.563        3.218      326.903      103.781        0.101      336.125        7.213      852.455
12/12/2014  11:50:00     -391.936     -117.758      -25.069      205.287       96.035       72.806    42142.850     9222.799     5300.728       11.238        2.833      409.244       87.986        0.046      336.133        7.227      852.460
12/12/2014  11:51:00     -299.682      -73.712      -11.318      145.825      141.698       75.243    21265.012    20078.245     5661.445        7.118        2.350      308.614       73.843        0.057      336.182        7.308      852.470
12/12/2014  11:52:00     -196.007      -75.338        4.201      204.241      110.501       74.201    41714.239    12210.531     5505.793        5.176        2.972      209.987       89.757        0.183      336.261        7.442      852.476
12/12/2014  11:53:00     -179.364     -232.791        0.323      147.976      118.163       70.422    21896.919    13962.448     4959.281        6.358        2.041      293.876       70.872        0.058      336.196        7.333      852.485
12/12/2014  11:54:00     -307.237     -184.771       -4.296      206.054      148.530       72.303    42458.402    22061.017     5227.793        9.914        3.487      358.518       83.756        0.055      336.219        7.370      852.460
12/12/2014  11:55:00     -358.639     -277.422       -7.506      217.164      232.467       85.809    47160.291    54040.885     7363.224       15.708        5.428      453.415      112.468        0.062      336.152        7.259      852.439
12/12/2014  11:56:00     -303.742     -152.107       -6.465      195.933      131.123       76.559    38389.778    17193.357     5861.271        8.843        3.072      339.700       84.738        0.062      336.325        7.547      852.481
12/12/2014  11:57:00     -383.903       42.844      -25.255      154.717       93.032       59.710    23937.227     8655.043     3565.249        9.300        1.808      386.287       57.513        0.022      336.318        7.534      852.515
12/12/2014  11:58:00     -167.478      -77.380        6.815      113.450      129.573       59.369    12871.000    16789.155     3524.623        3.363        1.659      184.490       68.940        0.140      336.424        7.715      852.513
12/12/2014  11:59:00     -144.835      -89.710        8.551      162.478      105.359       74.168    26399.021    11100.586     5500.819        3.604        2.150      170.367       84.682        0.247      336.357        7.602      852.488
12/12/2014  12:00:00     -189.228     -156.097       19.264      158.394      108.077       81.708    25088.775    11680.705     6676.197        5.199        2.172      245.304       88.818        0.131      336.303        7.511      852.488
12/12/2014  12:01:00     -331.672     -216.383      -13.726      162.789      138.537       75.062    26500.162    19192.552     5634.321       10.416        2.566      396.015       85.868        0.047      336.163        7.278      852.464
12/12/2014  12:02:00     -265.699        2.684      -14.094      164.511      125.482       81.656    27063.856    15745.856     6667.641        6.013        2.474      265.713       89.115        0.112      336.448        7.754      852.463
12/12/2014  12:03:00     -316.729      -62.099      -12.592      126.627       98.088       56.386    16034.514     9621.253     3179.436        6.658        1.442      322.759       64.164        0.040      336.269        7.452      852.472
12/12/2014  12:04:00     -180.780      -19.773        1.016      101.159       74.536       46.767    10233.104     5555.553     2187.136        2.552        0.899      181.859       44.492        0.060      336.462        7.777      852.493
12/12/2014  12:05:00     -248.852     -104.056      -13.891      172.181      107.519       52.891    29646.164    11560.240     2797.465        5.847        2.200      269.731       74.074        0.075      336.349        7.590      852.496
12/12/2014  12:06:00     -271.239     -146.923      -18.899      194.148      155.602       69.965    37693.472    24212.098     4895.160        8.114        3.340      308.475       84.592        0.075      336.318        7.537      852.488
12/12/2014  12:07:00     -205.362       -1.972        2.753      184.898       77.358       62.099    34187.406     5984.246     3856.227        4.310        2.201      205.371       85.596        0.174      336.524        7.882      852.509
12/12/2014  12:08:00     -370.612        1.397      -16.619      147.275      106.546       68.980    21689.826    11352.097     4758.226        8.771        1.890      370.615       74.351        0.040      336.391        7.657      852.501
12/12/2014  12:09:00     -250.241      -48.471      -14.855      129.308       91.376       49.558    16720.511     8349.507     2456.024        4.635        1.376      254.892       33.001        0.017      336.375        7.633      852.513
12/12/2014  12:10:00     -151.418      -73.984       22.579      144.756      159.860       79.326    20954.191    25555.132     6292.693        4.085        2.640      168.527       76.605        0.207      336.518        7.872      852.528
12/12/2014  12:11:00     -212.763     -164.090        9.891      178.534      116.899       64.645    31874.318    13665.492     4178.925        6.100        2.486      268.688       86.396        0.103      336.294        7.495      852.499
12/12/2014  12:12:00     -189.442      -45.650        0.305      155.572      105.046       56.074    24202.702    11034.742     3144.303        3.817        1.919      194.865       67.238        0.119      336.325        7.547      852.482
12/12/2014  12:13:00     -139.181      -15.956       19.822       89.513      102.788       59.840     8012.636    10565.324     3580.766        2.108        1.108      140.093       51.934        0.137      336.574        7.965      852.489
12/12/2014  12:14:00     -216.392      -98.554      -10.736      135.419       91.144       59.013    18338.247     8307.287     3482.569        4.338        1.506      237.778       70.728        0.088      336.436        7.734      852.486
12/12/2014  12:15:00      -86.045      -40.175       24.773      120.217       84.050       54.145    14452.222     7064.324     2931.641        1.703        1.222       94.962       69.857        0.541      336.706        8.188      852.480
12/12/2014  12:16:00     -184.487       27.521        3.401      109.712       84.510       56.240    12036.688     7142.006     3162.968        2.857        1.117      186.528       53.130        0.081      336.623        8.048      852.497
12/12/2014  12:17:00     -279.956      -86.738      -13.953      164.256      130.409       65.674    26980.103    17006.383     4313.137        6.719        2.415      293.085       61.272        0.044      336.457        7.768      852.489
12/12/2014  12:18:00     -298.643       16.695       -9.003      194.202      122.388       71.006    37714.410    14978.830     5041.863        7.363        2.887      299.109       79.798        0.071      336.469        7.788      852.487
12/12/2014  12:19:00     -173.835      -39.880        2.113      127.402       87.066       65.246    16231.163     7580.539     4257.103        2.994        1.403      178.351       70.553        0.156      336.570        7.959      852.483
12/12/2014  12:20:00     -208.024      -18.721       -7.543      136.701      118.389       67.751    18687.282    14015.858     4590.192        4.048        1.865      208.865       62.156        0.089      336.528        7.888      852.473
12/12/2014  12:21:00     -212.449      -13.775       -3.929      117.552       82.466       57.704    13818.556     6800.688     3329.716        3.464        1.197      212.895       67.972        0.102      336.617        8.038      852.491
12/12/2014  12:22:00     -277.867      -84.224      -16.156      132.586       88.178       57.675    17579.178     7775.313     3326.430        5.662        1.434      290.351       59.067        0.041      336.501        7.842      852.505
12/12/2014  12:23:00     -365.069      -59.725      -27.237      137.994      116.920       78.536    19042.232    13670.364     6167.922        8.822        1.944      369.922       70.078        0.036      336.555        7.932      852.505
12/12/2014  12:24:00     -394.186     -186.226      -17.381      190.992      142.505       71.671    36477.878    20307.567     5136.755       12.613        3.096      435.962       79.276        0.033      336.331        7.558      852.493
12/12/2014  12:25:00     -201.386     -140.296       10.609      172.235      148.954       91.635    29664.882    22187.226     8397.023        6.029        3.012      245.437      102.964        0.176      336.439        7.738      852.501
12/12/2014  12:26:00     -287.183     -150.384       -6.605      168.326      141.631       77.375    28333.781    20059.406     5986.853        7.975        2.719      324.175       75.745        0.055      336.382        7.643      852.499
12/12/2014  12:27:00     -404.457     -183.692      -19.687      176.358      134.238       83.984    31102.296    18019.881     7053.328       12.693        2.809      444.216       84.853        0.036      336.206        7.350      852.541
12/12/2014  12:28:00     -247.852      -60.911       -4.949      172.298      144.976       74.331    29686.614    21017.966     5525.123        6.069        2.811      255.227       71.612        0.079      336.367        7.618      852.529
12/12/2014  12:29:00     -334.520       -8.889      -24.272      160.414      150.509       61.620    25732.574    22653.087     3797.029        8.237        2.609      334.638       68.454        0.042      336.259        7.436      852.543
12/12/2014  12:30:00     -174.853      -50.178       -2.372      120.031       99.142       69.226    14407.402     9829.135     4792.221        3.106        1.451      181.910       71.830        0.156      336.455        7.765      852.557
12/12/2014  12:31:00     -220.226      -70.864       20.803      171.174      147.994       86.367    29300.409    21902.164     7459.178        5.630        2.933      231.347       95.008        0.169      336.378        7.636      852.573
12/12/2014  12:32:00     -389.134     -156.144      -16.526      192.600      164.567       87.571    37094.904    27082.406     7668.708       12.395        3.592      419.292       95.731        0.052      336.170        7.288      852.558
12/12/2014  12:33:00     -520.663     -317.124      -29.711      181.881      133.252       88.401    33080.879    17756.086     7814.709       21.558        2.933      609.637       84.064        0.019      336.083        7.143      852.564
12/12/2014  12:34:00     -313.340     -162.009      -26.044      153.358      161.428       69.739    23518.765    26059.118     4863.523        8.976        2.722      352.745       58.548        0.028      336.128        7.220      852.591
12/12/2014  12:35:00     -308.586     -128.738      -11.242      164.029      129.770       75.959    26905.549    16840.217     5769.726        8.071        2.476      334.364       76.666        0.053      336.194        7.328      852.582
12/12/2014  12:36:00     -204.270      -26.311        1.059      162.560      134.970       73.163    26425.717    18216.845     5352.811        4.620        2.500      205.958       81.590        0.157      336.363        7.613      852.612
12/12/2014  12:37:00     -260.981      -72.071        6.859      130.145      100.888       55.004    16937.754    10178.473     3025.428        5.174        1.507      270.750       62.132        0.053      336.246        7.416      852.587
12/12/2014  12:38:00     -265.736      -77.755      -17.817      108.284       90.585       59.619    11725.493     8205.721     3554.465        5.023        1.174      276.878       58.625        0.045      336.254        7.429      852.580
12/12/2014  12:39:00     -108.965      -50.478       -4.044      109.501       68.899       60.796    11990.534     4747.047     3696.129        1.743        1.022      120.089       60.689        0.255      336.405        7.684      852.589
12/12/2014  12:40:00      -81.809      -26.513       -8.866       92.104       52.543       35.329     8483.098     2760.778     1248.143        0.998        0.625       85.998       43.067        0.251      336.567        7.955      852.596
12/12/2014  12:41:00     -228.979      -23.169      -12.754      190.883      124.878       68.150    36436.147    15594.492     4644.466        5.489        2.834      230.148       93.041        0.163      336.297        7.502      852.613
12/12/2014  12:42:00     -312.937      -66.397       -4.341      120.081       97.085       54.855    14419.560     9425.532     3009.024        6.460        1.343      319.903       63.340        0.039      336.300        7.507      852.606
12/12/2014  12:43:00     -252.218     -144.257        1.692      141.514       90.398       67.497    20026.286     8171.773     4555.844        5.858        1.638      290.558       65.004        0.050      336.382        7.643      852.613
12/12/2014  12:44:00     -473.022      -61.755      -23.778      229.611      165.329       98.552    52721.310    27333.609     9712.545       15.893        4.488      477.036      116.532        0.060      336.235        7.397      852.669
12/12/2014  12:45:00     -396.041        0.173      -27.033      194.301      113.995       72.187    37753.023    12994.949     5210.913       10.676        2.798      396.041       85.766        0.047      336.249        7.421      852.684
12/12/2014  12:46:00     -307.846       18.105      -16.101      193.611      153.336       68.471    37485.157    23511.781     4688.330        8.051        3.284      308.378       82.418        0.071      336.403        7.677      852.673
12/12/2014  12:47:00     -242.930      -43.382      -32.282      184.207      133.750       74.356    33932.173    17889.107     5528.825        5.963        2.868      246.773       79.621        0.104      336.396        7.666      852.678
12/12/2014  12:48:00     -231.545       84.977      -46.063      144.063      158.188       74.046    20754.224    25023.328     5482.794        5.710        2.563      246.646       87.048        0.125      336.284        7.479      852.711
12/12/2014  12:49:00     -344.260      -33.890      -35.211      104.076      110.922       53.916    10831.778    12303.784     2906.933        7.347        1.302      345.925       48.068        0.019      336.174        7.295      852.692
12/12/2014  12:50:00     -253.987       73.315      -15.452      152.784      115.060       67.103    23342.836    13238.728     4502.789        5.560        2.054      264.356       69.957        0.070      336.245        7.414      852.686
12/12/2014  12:51:00     -127.156       19.417      -10.048      120.884       69.256       58.965    14612.900     4796.380     3476.897        1.976        1.144      128.630       34.475        0.072      336.291        7.493      852.683
12/12/2014  12:52:00      -94.630      -46.139       15.559       98.220       64.771       57.255     9647.116     4195.341     3278.080        1.422        0.856      105.279       52.996        0.253      336.389        7.656      852.673
12/12/2014  12:53:00     -230.378       64.355      -18.591       92.513       81.240       40.973     8558.680     6599.993     1678.815        3.720        0.842      239.198       42.802        0.032      336.456        7.765      852.693
12/12/2014  12:54:00     -212.970       53.963       -4.959      110.501       91.001       66.686    12210.513     8281.095     4447.048        3.661        1.247      219.700       58.090        0.070      336.249        7.421      852.669
12/12/2014  12:55:00     -212.503      -14.669       -7.435      106.354       94.841       50.944    11311.094     8994.751     2595.335        3.416        1.145      213.009       50.195        0.056      336.457        7.770      852.667
12/12/2014  12:56:00     -310.616      -66.675      -20.679       94.550       82.132       52.046     8939.621     6745.615     2708.755        5.987        0.920      317.691       47.971        0.023      336.309        7.521      852.649
12/12/2014  12:57:00     -258.539      -76.556       -0.149      104.484       77.296       51.153    10916.874     5974.746     2616.647        4.610        0.975      269.635       52.209        0.037      336.425        7.714      852.645
12/12/2014  12:58:00     -167.568     -109.132       -2.359      100.924       53.632       40.008    10185.742     2876.364     1600.601        2.733        0.733      199.973       44.347        0.049      336.461        7.775      852.662
12/12/2014  12:59:00     -288.259     -115.607      -10.431      149.375       95.270       53.241    22312.769     9076.296     2834.641        6.539        1.711      310.577       57.816        0.035      336.455        7.765      852.654
12/12/2014  13:00:00     -373.331     -112.037      -16.369      144.094      143.139       62.243    20763.159    20488.856     3874.178        9.865        2.256      389.780       68.005        0.030      336.527        7.884      852.626
12/12/2014  13:01:00     -259.316     -225.245       -7.840      153.837      127.050       65.492    23665.839    16141.611     4289.185        8.106        2.205      343.482       68.912        0.040      336.467        7.785      852.633
12/12/2014  13:02:00     -384.774     -251.994      -19.462      158.886      129.951       79.903    25244.902    16887.331     6384.442       13.021        2.426      459.948       69.678        0.023      336.357        7.600      852.618
12/12/2014  13:03:00     -394.513     -193.597      -16.082      140.482      136.941       79.156    19735.168    18752.927     6265.716       11.906        2.238      439.455       75.965        0.030      336.359        7.603      852.623
12/12/2014  13:04:00     -362.114     -254.972      -19.883      131.301      110.654       67.683    17239.919    12244.258     4580.975       11.529        1.703      442.874       63.644        0.021      336.439        7.735      852.615
12/12/2014  13:05:00     -208.626      -50.383       -2.482      128.207      116.239       56.504    16436.974    13511.435     3192.748        3.960        1.657      214.624       51.228        0.057      336.557        7.937      852.620
12/12/2014  13:06:00     -298.933     -167.709      -12.954      182.291      131.521       74.239    33229.875    17297.832     5511.503        8.684        2.802      342.764       81.799        0.057      336.522        7.878      852.605
12/12/2014  13:07:00     -376.730     -308.192        2.264      190.371      194.034       98.672    36241.001    37649.356     9736.137       16.025        4.181      486.732      100.008        0.042      336.420        7.706      852.621
12/12/2014  13:08:00     -557.751     -338.935      -37.316      219.300      200.022       97.438    48092.655    40008.737     9494.136       26.246        4.880      652.659       98.403        0.023      336.290        7.489      852.610
12/12/2014  13:09:00     -446.560     -142.695        4.559      182.713      181.996       82.554    33383.895    33122.594     6815.204       14.655        3.666      468.805       91.487        0.038      336.349        7.589      852.673
12/12/2014  13:10:00     -147.298      -63.889       11.708      159.595       79.405       65.690    25470.652     6305.076     4315.133        3.100        1.805      160.556       66.195        0.170      336.594        8.000      852.691
12/12/2014  13:11:00     -265.643     -144.310      -13.800      154.058      104.987       62.741    23733.915    11022.371     3936.412        6.513        1.935      302.310       70.912        0.055      336.480        7.805      852.694
12/12/2014  13:12:00     -138.545      -41.483       -0.665      119.804      100.381       49.856    14352.946    10076.306     2485.574        2.391        1.346      144.622       50.506        0.122      336.700        8.177      852.704
12/12/2014  13:13:00     -129.487      -17.269       -2.389       84.045       78.747       40.411     7063.626     6201.043     1633.059        1.598        0.745      130.634       34.020        0.068      336.975        8.636      852.704
12/12/2014  13:14:00     -209.598       14.767       -0.439      131.955       99.629       54.349    17412.240     9925.892     2953.838        3.721        1.515      210.118       62.546        0.089      336.788        8.321      852.709
12/12/2014  13:15:00     -171.349      -99.327       -3.246      115.519       88.814       56.441    13344.529     7887.938     3185.531        3.182        1.221      198.057       51.052        0.066      336.778        8.306      852.695
12/12/2014  13:16:00      -97.276     -104.982       15.605      114.439       96.864       66.293    13096.331     9382.557     4394.740        2.380        1.344      143.122       64.080        0.200      336.799        8.341      852.694
12/12/2014  13:17:00     -213.789      -88.082       -9.896      100.458       99.101       48.123    10091.903     9821.090     2315.827        3.789        1.111      231.223       40.666        0.031      336.734        8.233      852.709
12/12/2014  13:18:00     -305.921       -2.238       -5.815      163.831      137.048       75.192    26840.667    18782.108     5653.843        7.244        2.564      305.929       88.439        0.084      336.704        8.182      852.727
12/12/2014  13:19:00     -418.434      -80.554      -26.161      167.264      138.402       70.137    27977.363    19155.215     4919.139       11.715        2.603      426.117       73.977        0.030      336.569        7.956      852.727
12/12/2014  13:20:00     -305.855      -60.148      -11.537      154.653       97.172       63.109    23917.461     9442.306     3982.683        6.731        1.867      311.713       69.666        0.050      336.583        7.979      852.728
12/12/2014  13:21:00     -291.564      -89.324      -11.796      125.406      112.532       57.525    15726.571    12663.464     3309.090        6.241        1.585      304.940       58.621        0.037      336.708        8.188      852.740
12/12/2014  13:22:00     -359.328      -95.709      -17.290      145.286      148.732       80.831    21108.032    22121.215     6533.717        9.416        2.488      371.856       80.587        0.047      336.657        8.103      852.760
12/12/2014  13:23:00     -355.525     -125.795        0.596      172.638      143.080       76.406    29803.964    20471.804     5837.892        9.916        2.806      377.124       91.222        0.059      336.680        8.140      852.758
12/12/2014  13:24:00     -555.175     -169.102      -30.230      161.803      143.222       76.756    26180.112    20512.401     5891.479       19.515        2.629      580.357       74.500        0.016      336.426        7.716      852.774
12/12/2014  13:25:00     -284.998     -120.662       -3.079      144.424      122.003       63.719    20858.414    14884.648     4060.156        6.779        1.990      309.489       67.799        0.048      336.543        7.912      852.797
12/12/2014  13:26:00     -304.630      -65.501      -19.874      109.816      109.892       59.034    12059.491    12076.210     3484.957        6.255        1.381      311.592       59.627        0.037      336.598        8.005      852.830
12/12/2014  13:27:00     -260.461     -117.105      -10.592      112.952      134.541       63.792    12758.232    18101.282     4069.356        5.829        1.746      285.576       57.866        0.041      336.661        8.109      852.824
12/12/2014  13:28:00     -197.661        3.125        0.898      154.307       89.028       63.918    23810.686     7925.926     4085.546        3.744        1.791      197.685       83.856        0.180      336.734        8.232      852.831
12/12/2014  13:29:00     -332.633      105.481      -20.004      156.050      106.717       65.745    24351.451    11388.611     4322.364        8.111        2.003      348.957       57.819        0.027      336.737        8.235      852.808
12/12/2014  13:30:00     -146.755      -23.514       36.191      169.526      114.742       79.839    28739.155    13165.650     6374.204        3.583        2.414      148.627       87.684        0.348      337.066        8.788      852.818
12/12/2014  13:31:00     -353.722     -224.428       -5.344      213.314      149.904       87.211    45502.701    22471.179     7605.833       12.553        3.779      418.912       94.149        0.051      336.608        8.021      852.824
12/12/2014  13:32:00     -163.214      -70.889       23.594      182.951      111.016       81.538    33471.060    12324.497     6648.519        4.232        2.622      177.944       99.541        0.313      336.724        8.218      852.850
12/12/2014  13:33:00     -432.189     -256.908      -22.731      182.203      154.958       90.935    33197.767    24011.942     8269.260       15.938        3.274      502.781       86.667        0.030      336.493        7.827      852.870
12/12/2014  13:34:00     -304.030     -243.475       -7.490      194.283      141.788       83.336    37745.956    20103.731     6944.832       10.827        3.240      389.505       91.528        0.055      336.578        7.971      852.883
12/12/2014  13:35:00     -135.555     -116.269       15.257      166.973      140.067       89.357    27879.930    19618.673     7984.640        4.379        2.774      178.588       98.681        0.305      336.779        8.308      852.898
12/12/2014  13:36:00     -170.733      -82.892        4.474      191.244      103.610       58.740    36574.140    10734.937     3450.377        4.339        2.538      189.791       85.696        0.204      336.770        8.292      852.916
12/12/2014  13:37:00     -373.029      -50.123      -18.882      120.381      112.902       60.492    14491.598    12746.930     3659.224        8.645        1.545      376.381       61.950        0.027      336.614        8.030      852.933
12/12/2014  13:38:00     -129.728     -107.628       -7.072      105.566       79.406       53.162    11144.119     6305.358     2826.224        2.437        1.014      168.562       46.104        0.075      336.708        8.189      852.934
12/12/2014  13:39:00     -113.697     -179.876        9.150      139.547      101.240       76.440    19473.440    10249.620     5843.074        4.046        1.778      212.797       87.160        0.168      336.724        8.216      852.938
12/12/2014  13:40:00     -292.488     -147.516        1.328      205.159      144.932       77.271    42090.129    21005.373     5970.798        8.818        3.453      327.582       94.868        0.084      336.676        8.134      852.943
12/12/2014  13:41:00     -233.866     -187.920       -8.952      185.404      152.041       97.151    34374.827    23116.469     9438.347        7.850        3.346      300.012      102.271        0.116      336.516        7.868      852.927
12/12/2014  13:42:00     -250.179     -115.372       -3.913      157.560      100.743       70.518    24825.272    10149.095     4972.815        5.792        1.997      275.500       77.269        0.079      336.561        7.944      852.956
12/12/2014  13:43:00     -312.548     -100.287      -12.320      149.423      135.442       77.204    22327.238    18344.533     5960.453        7.725        2.332      328.244       79.541        0.059      336.657        8.103      852.991
12/12/2014  13:44:00     -217.553      -56.475        8.639      132.913      130.353       63.450    17665.882    16991.926     4025.917        4.463        1.934      224.764       67.398        0.090      336.732        8.228      852.994
12/12/2014  13:45:00     -160.821     -123.855       10.627      119.194       94.834       59.929    14207.195     8993.557     3591.473        3.405        1.340      202.986       63.515        0.098      336.742        8.245      853.021
12/12/2014  13:46:00     -188.779     -130.464        3.788      140.032      104.698       70.413    19608.907    10961.643     4958.004        4.409        1.776      229.474       65.523        0.082      336.727        8.221      853.026
12/12/2014  13:47:00     -237.707        4.153      -18.722      118.128       62.718       48.413    13954.340     3933.489     2343.777        3.855        1.012      237.743       62.983        0.070      336.684        8.148      853.064
12/12/2014  13:48:00      -65.395      -72.915       -4.700       87.498       84.566       43.251     7655.885     7151.410     1870.678        1.314        0.834       97.945       49.382        0.254      336.717        8.206      853.063
12/12/2014  13:49:00     -259.765       -1.925       -7.395      166.938      110.354       55.397    27868.364    12178.017     3068.878        5.532        2.156      259.772       52.467        0.041      336.732        8.230      853.084
12/12/2014  13:50:00     -305.988      -64.277      -17.926      141.705      129.547       78.315    20080.286    16782.534     6133.291        7.053        2.150      312.666       81.333        0.068      336.563        7.947      853.084
12/12/2014  13:51:00     -425.853       63.234      -32.126      148.526      114.550       65.876    22059.965    13121.641     4339.634       11.294        1.976      430.522       69.833        0.026      336.495        7.831      853.098
12/12/2014  13:52:00     -392.846      -86.307       -8.891      130.307      112.849       57.758    16979.931    12734.975     3335.930        9.745        1.653      402.215       57.785        0.021      336.365        7.614      853.106
12/12/2014  13:53:00     -261.111      -65.580       -3.712      109.908       85.346       52.898    12079.690     7283.953     2798.192        4.732        1.108      269.221       54.035        0.040      336.354        7.596      853.108
12/12/2014  13:54:00     -130.221      -41.236       12.614      100.986       76.623       39.850    10198.157     5871.063     1588.046        1.823        0.883      136.594       49.344        0.131      336.467        7.787      853.114
12/12/2014  13:55:00      -15.628        8.561       18.101       57.985       49.576       39.993     3362.292     2457.810     1599.438        0.403        0.371       17.820       40.099        5.064      336.769        8.294      853.118
12/12/2014  13:56:00     -127.995      141.462      -21.378       51.767       73.952       40.691     2679.872     5468.856     1655.722        2.333        0.490      190.772       29.516        0.024      336.586        7.986      853.167
12/12/2014  13:57:00      -65.454       70.133      -18.826       62.485       45.528       36.310     3904.368     2072.781     1318.417        0.842        0.365       95.932       25.228        0.069      336.539        7.910      853.197
12/12/2014  13:58:00      -41.907       -1.700      -18.875       86.576       74.000       39.998     7495.479     5476.066     1599.815        0.834        0.729       41.942       43.319        1.067      336.458        7.774      853.188
12/12/2014  13:59:00       16.092      231.159      -32.217       96.708      161.322       59.677     9352.347    26024.925     3561.341        4.683        1.947      231.718       76.185        0.108      336.327        7.551      853.163
12/12/2014  14:00:00     -150.481      244.831      -35.010      108.747      165.087       58.338    11825.887    27253.692     3403.325        6.314        2.124      287.379       64.374        0.050      336.434        7.730      853.174
12/12/2014  14:01:00     -190.581      196.979      -34.007      124.144       69.291       54.342    15411.659     4801.186     2953.064        4.972        1.158      274.084       46.431        0.029      336.450        7.756      853.178
12/12/2014  14:02:00     -177.074      202.653      -40.801       66.108       88.571       52.499     4370.272     7844.790     2756.118        4.453        0.749      269.117       45.090        0.028      336.526        7.883      853.205
12/12/2014  14:03:00     -158.201      147.603      -34.282       65.601       81.353       47.293     4303.532     6618.338     2236.581        3.057        0.658      216.366       28.049        0.017      336.482        7.811      853.256
12/12/2014  14:04:00      -46.604      121.156      -14.415       64.901       78.001       44.461     4212.191     6084.178     1976.824        1.466        0.614      129.811       48.650        0.140      336.281        7.477      853.265
12/12/2014  14:05:00      -50.698       15.178        3.260       31.947       34.464       23.001     1020.611     1187.766      529.036        0.277        0.137       52.921       15.352        0.084      336.789        8.328      853.261
12/12/2014  14:06:00     -120.899       98.301      -28.637       64.894       88.712       41.611     4211.171     7869.747     1731.469        1.945        0.691      155.819       45.545        0.085      336.431        7.725      853.280
12/12/2014  14:07:00      -98.410      135.648      -12.406       67.452       68.637       53.884     4549.731     4710.974     2903.490        2.020        0.608      167.586       50.109        0.089      336.605        8.018      853.271
12/12/2014  14:08:00     -171.003      261.858      -34.367       99.508      130.986       65.403     9901.785    17157.333     4277.612        6.516        1.567      312.748       78.535        0.063      336.456        7.767      853.288
12/12/2014  14:09:00     -153.905      166.928      -39.237       93.495       81.628       42.932     8741.298     6663.060     1843.175        3.517        0.862      227.050       49.987        0.048      336.437        7.736      853.317
12/12/2014  14:10:00     -138.647      167.464      -34.405       69.363      106.989       41.558     4811.215    11446.723     1727.049        3.321        0.899      217.410       33.697        0.024      336.382        7.644      853.312
12/12/2014  14:11:00     -139.457      182.787      -20.543       90.867      122.053       60.626     8256.753    14897.008     3675.540        4.005        1.341      229.912       49.890        0.047      336.445        7.748      853.331
12/12/2014  14:12:00     -199.802      177.088      -36.133      115.159       89.623       53.007    13261.536     8032.233     2809.736        4.834        1.205      266.985       52.696        0.039      336.218        7.368      853.353
12/12/2014  14:13:00     -143.414      195.835      -31.101       75.177       89.025       50.680     5651.542     7925.514     2568.489        3.801        0.807      242.732       43.421        0.032      336.311        7.524      853.342
12/12/2014  14:14:00     -126.271      267.089      -31.888      106.056      141.044       60.495    11247.934    19893.391     3659.684        6.154        1.740      295.434       53.038        0.032      336.333        7.560      853.358
12/12/2014  14:15:00     -155.304      253.699      -46.734       83.270       95.681       54.207     6933.954     9154.934     2938.413        5.484        0.951      297.461       51.026        0.029      336.285        7.480      853.374
12/12/2014  14:16:00     -210.746      204.259      -37.813       93.896      137.652       63.253     8816.402    18948.171     4000.890        5.966        1.588      293.489       54.716        0.035      336.297        7.500      853.405
12/12/2014  14:17:00     -159.350      220.439      -37.014       75.342      104.959       66.096     5676.487    11016.404     4368.729        4.820        1.053      272.003       58.150        0.046      336.345        7.581      853.426
12/12/2014  14:18:00     -210.306      225.149      -54.052      103.666      102.829       47.156    10746.685    10573.858     2223.698        6.069        1.177      308.092       51.148        0.028      336.268        7.452      853.445
12/12/2014  14:19:00     -208.965      191.435      -50.518      102.704       95.268       53.047    10548.086     9075.989     2813.941        5.265        1.122      283.397       47.716        0.028      336.284        7.480      853.467
12/12/2014  14:20:00     -113.476      103.841       -3.321       84.493       80.922       59.673     7139.031     6548.380     3560.826        2.046        0.862      153.817       62.879        0.167      336.381        7.643      853.469
12/12/2014  14:21:00     -119.405       12.473        7.441      151.305      105.316       68.569    22893.221    11091.565     4701.766        2.657        1.934      120.054       76.121        0.402      336.349        7.590      853.444
12/12/2014  14:22:00     -139.062       34.718      -21.051      109.547      106.467       59.717    12000.608    11335.248     3566.134        2.394        1.345      143.330       36.919        0.066      336.340        7.575      853.476
12/12/2014  14:23:00     -257.365      103.421      -31.793      174.509      154.371       91.225    30453.391    23830.452     8321.942        7.026        3.130      277.367       94.119        0.115      336.255        7.431      853.517
12/12/2014  14:24:00     -291.104       56.484      -33.388      113.696      133.283       80.153    12926.670    17764.254     6424.523        6.307        1.856      296.534       71.984        0.059      336.167        7.282      853.537
12/12/2014  14:25:00     -276.051      -54.399      -38.041      142.120      134.784       75.810    20198.083    18166.692     5747.154        6.235        2.206      281.359       66.107        0.055      336.102        7.174      853.485
12/12/2014  14:26:00     -283.411      -63.411       -4.793      126.318      131.590       62.098    15956.277    17315.972     3856.113        6.074        1.856      290.418       58.510        0.041      336.214        7.362      853.489
12/12/2014  14:27:00     -205.207      147.371      -42.279      105.689      179.767       63.268    11170.119    32316.031     4002.812        5.654        2.374      252.642       80.578        0.102      336.332        7.562      853.533
12/12/2014  14:28:00     -247.365      269.983      -49.686      132.726      115.566       67.402    17616.163    13355.482     4543.039        8.602        1.776      366.170       69.325        0.036      336.228        7.385      853.561
12/12/2014  14:29:00     -170.812      199.673      -31.031      102.893      151.396       69.565    10586.871    22920.711     4839.290        5.417        1.917      262.766       75.766        0.083      336.155        7.265      853.575
12/12/2014  14:30:00     -261.549      -22.564      -32.875       91.909      129.209       52.016     8447.215    16694.896     2705.703        4.892        1.392      262.521       47.722        0.033      336.289        7.488      853.588
12/12/2014  14:31:00     -271.969      -79.554      -17.491      128.385      119.165       64.442    16482.806    14200.316     4152.741        5.771        1.742      283.366       53.347        0.035      336.147        7.249      853.622
12/12/2014  14:32:00     -254.578      -58.053      -16.095       88.894       75.741       39.436     7902.150     5736.661     1555.216        4.181        0.760      261.113       35.130        0.018      336.139        7.237      853.645
12/12/2014  14:33:00     -301.146      -48.914      -13.206      100.416       97.526       48.133    10083.440     9511.248     2316.778        5.758        1.096      305.092       38.356        0.016      336.126        7.216      853.673
12/12/2014  14:34:00     -303.888      -20.787      -49.293      103.484      113.647       43.778    10708.934    12915.694     1916.534        6.037        1.277      304.598       41.855        0.019      336.217        7.367      853.693
12/12/2014  14:35:00     -236.869       27.938      -25.198      168.470      142.405       49.302    28382.094    20279.257     2430.645        5.430        2.555      238.511       71.417        0.090      336.184        7.313      853.699
12/12/2014  14:36:00     -273.764      -14.606      -39.642      153.088      124.623       79.002    23436.085    15531.008     6241.345        6.096        2.260      274.153       85.888        0.098      336.273        7.462      853.686
12/12/2014  14:37:00     -213.812       -1.661       -5.738      148.690      113.749       87.229    22108.842    12938.753     7608.954        4.420        2.133      213.818       94.816        0.197      336.268        7.453      853.717
12/12/2014  14:38:00     -303.439      -52.542      -25.220      153.627      176.390       73.584    23601.295    31113.314     5414.672        7.779        3.006      307.955       63.548        0.043      336.263        7.445      853.743
12/12/2014  14:39:00     -251.044      -66.840       -7.043      115.611       84.845       52.658    13365.825     7198.745     2772.827        4.543        1.167      259.789       52.643        0.041      336.180        7.305      853.761
12/12/2014  14:40:00     -182.954      -48.839      -15.059       76.568       93.439       55.476     5862.697     8730.865     3077.569        2.687        0.884      189.360       44.738        0.056      336.325        7.549      853.780
12/12/2014  14:41:00     -142.348      -59.830      -32.249      145.682      131.888       70.536    21223.389    17394.411     4975.334        3.423        2.180      154.411       57.038        0.136      336.288        7.488      853.783
12/12/2014  14:42:00     -232.950       25.321      -25.978       83.199       85.731       54.617     6922.026     7349.860     2983.070        3.641        0.863      234.322       39.736        0.029      336.389        7.656      853.804
12/12/2014  14:43:00     -140.685      -46.019        9.001      122.757       79.247       60.246    15069.271     6280.027     3629.628        2.348        1.249      148.020       67.891        0.210      336.323        7.544      853.810
12/12/2014  14:44:00     -175.740      -37.446      -14.576       70.527       53.754       32.480     4974.116     2889.546     1054.928        2.071        0.446      179.686       29.538        0.027      336.293        7.494      853.833
12/12/2014  14:45:00     -166.527      -80.155        2.495       90.558       61.502       43.637     8200.752     3782.438     1904.214        2.402        0.694      184.813       44.083        0.057      336.294        7.497      853.853
12/12/2014  14:46:00     -327.131      -88.507      -19.755       97.645       82.269       44.893     9534.566     6768.261     2015.372        6.677        0.916      338.893       35.053        0.011      336.283        7.476      853.885
12/12/2014  14:47:00     -204.276      -71.816        2.899      130.203      105.221       66.838    16952.832    11071.450     4467.368        3.969        1.625      216.532       70.679        0.107      336.232        7.393      853.905
12/12/2014  14:48:00     -276.374      -16.902      -14.199      142.580      132.929       68.188    20328.989    17670.072     4649.659        5.975        2.132      276.890       44.174        0.025      336.230        7.389      853.932
12/12/2014  14:49:00     -219.270        2.133       -5.112      139.851       89.092       54.600    19558.308     7937.409     2981.168        3.929        1.524      219.280       56.426        0.066      336.338        7.570      853.943
12/12/2014  14:50:00     -246.546     -110.254      -15.873      141.206      128.359       60.416    19939.200    16476.147     3650.065        5.662        2.003      270.075       56.347        0.044      336.171        7.291      853.942
12/12/2014  14:51:00     -320.774      -55.727      -15.991      141.778       93.792       59.622    20100.938     8797.019     3554.737        6.935        1.623      325.579       58.824        0.033      336.156        7.265      853.937
12/12/2014  14:52:00     -233.019      -96.543      -15.533      111.526       95.288       54.067    12438.031     9079.818     2923.249        4.415        1.222      252.227       56.605        0.050      336.156        7.266      853.929
12/12/2014  14:53:00     -151.340       35.356        3.044       78.775       73.564       42.253     6205.558     5411.731     1785.305        1.878        0.670      155.415       39.770        0.065      336.284        7.481      853.930
12/12/2014  14:54:00     -168.322      -38.015      -20.474       95.212       94.135       45.137     9065.382     8861.452     2037.308        2.508        0.998      172.561       45.404        0.069      336.238        7.403      853.947
12/12/2014  14:55:00     -332.123     -102.260       -3.661       94.200       83.381       50.613     8873.707     6952.352     2561.670        6.958        0.919      347.510       47.378        0.019      336.104        7.179      853.932
12/12/2014  14:56:00     -237.834     -115.683        0.616      185.257      118.428       69.984    34320.299    14025.194     4897.772        6.158        2.662      264.476       93.629        0.125      336.157        7.267      853.915
12/12/2014  14:57:00     -269.802     -142.692        1.242      172.357      107.085       67.522    29706.925    11467.155     4559.212        6.944        2.287      305.212       88.340        0.084      336.113        7.194      853.909
12/12/2014  14:58:00     -284.354      -70.380      -21.664      124.059       98.396       55.910    15390.512     9681.865     3125.952        5.723        1.410      292.935       53.907        0.034      336.106        7.180      853.903
12/12/2014  14:59:00     -360.909      -42.155      -18.800      117.120      101.578       64.522    13717.033    10318.141     4163.069        8.029        1.410      363.362       64.755        0.032      336.109        7.186      853.901
12/12/2014  15:00:00     -366.519      -82.068       -9.969      176.662      131.960       62.172    31209.532    17413.533     3865.313        9.682        2.624      375.595       81.245        0.047      336.065        7.114      853.891
12/12/2014  15:01:00     -355.865      -41.114      -33.555      112.621       87.197       56.004    12683.589     7603.255     3136.487        7.644        1.171      358.232       57.583        0.026      336.130        7.221      853.891
12/12/2014  15:02:00     -257.207      -73.393      -11.101       93.343       79.035       37.445     8712.890     6246.535     1402.148        4.401        0.818      267.474       38.493        0.021      336.123        7.209      853.896
12/12/2014  15:03:00     -208.236       44.204       -9.906       86.637       92.443       49.342     7505.947     8545.745     2434.655        3.195        0.924      212.877       45.001        0.045      336.363        7.612      853.909
12/12/2014  15:04:00     -168.897        5.638       -6.161      101.681       63.966       43.953    10339.023     4091.706     1931.841        2.248        0.818      168.991       53.292        0.099      336.430        7.724      853.927
12/12/2014  15:05:00     -195.192      -38.303       -1.204       98.674       76.458       47.442     9736.635     5845.823     2250.763        2.870        0.892      198.915       58.255        0.086      336.261        7.440      853.950
12/12/2014  15:06:00     -221.287      -26.390       -2.931      111.414      103.633       45.971    12413.171    10739.824     2113.345        3.746        1.263      222.855       51.547        0.054      336.225        7.381      853.961
12/12/2014  15:07:00     -206.004      -26.339        1.225       76.072       53.390       37.526     5786.910     2850.459     1408.223        2.659        0.502      207.681       34.984        0.028      336.220        7.373      853.972
12/12/2014  15:08:00     -157.652      -23.423        2.226       98.995       65.104       39.999     9799.937     4238.567     1599.949        2.052        0.782      159.383       44.257        0.077      336.272        7.460      853.990
12/12/2014  15:09:00      -71.335        4.919       15.421      120.205       84.912       51.089    14449.309     7210.111     2610.070        1.481        1.213       71.504       62.695        0.769      336.458        7.771      854.003
12/12/2014  15:10:00     -118.082      -49.460        0.957       55.809       58.658       34.759     3114.607     3440.737     1208.207        1.208        0.388      128.022       33.479        0.068      336.288        7.488      853.997
12/12/2014  15:11:00      -83.871      -51.784        9.974      105.408       68.516       44.088    11110.808     4694.436     1943.726        1.378        0.887       98.570       51.605        0.274      336.280        7.475      853.998
12/12/2014  15:12:00      -10.165      -12.116        6.501       56.597       35.894       22.868     3203.183     1288.364      522.936        0.265        0.251       15.815       26.398        2.786      336.339        7.575      854.005
12/12/2014  15:13:00     -119.156       73.106        4.064      135.659      103.077       71.310    18403.454    10624.822     5085.161        2.683        1.706      139.795       84.264        0.363      336.337        7.569      854.025
12/12/2014  15:14:00     -256.908       41.428      -39.378      112.515       69.238       49.557    12659.569     4793.833     2455.870        4.458        0.995      260.226       51.935        0.040      336.088        7.151      854.034
12/12/2014  15:15:00     -147.542      -22.951      -12.782      121.202       66.015       51.614    14689.965     4358.043     2663.971        2.208        1.086      149.316       52.932        0.126      336.203        7.345      854.034
12/12/2014  15:16:00     -231.522       14.334      -19.156      144.218       78.577       49.381    20798.859     6174.369     2438.502        4.179        1.471      231.965       66.530        0.082      336.349        7.588      854.051
12/12/2014  15:17:00      -35.944       16.116       14.603       59.017       54.950       37.140     3483.060     3019.488     1379.353        0.482        0.394       39.391       35.493        0.812      336.338        7.572      854.055
12/12/2014  15:18:00     -164.909      -33.391      -13.915      130.617       64.296       53.348    17060.834     4133.962     2846.023        2.627        1.202      168.255       65.828        0.153      336.337        7.568      854.076
12/12/2014  15:19:00     -229.958      -25.137      -23.904       91.374      113.408       54.153     8349.161    12861.337     2932.519        3.911        1.207      231.328       48.044        0.043      336.280        7.473      854.107
12/12/2014  15:20:00     -160.215      -26.357       -8.643       85.701       85.767       44.081     7344.582     7356.040     1943.163        2.154        0.832      162.369       43.529        0.072      336.388        7.655      854.133
12/12/2014  15:21:00     -191.481        7.099      -29.680       99.122       82.400       41.808     9825.145     6789.808     1747.949        2.798        0.918      191.613       42.217        0.049      336.291        7.490      854.158
12/12/2014  15:22:00     -133.207       55.713      -17.247       51.374       47.128       29.333     2639.248     2221.048      860.405        1.343        0.286      144.388       26.971        0.035      336.457        7.772      854.172
12/12/2014  15:23:00     -171.256      -36.613      -28.647       84.825       66.768       31.483     7195.299     4457.996      991.169        2.206        0.632      175.126       32.814        0.035      336.297        7.503      854.214
12/12/2014  15:24:00     -211.653      -48.704      -20.330      129.545       83.871       40.684    16781.866     7034.320     1655.180        3.652        1.274      217.185       45.357        0.044      336.282        7.475      854.237
12/12/2014  15:25:00     -266.160     -117.983       -5.858       84.682       64.634       38.514     7171.096     4177.515     1483.349        4.881        0.642      291.137       41.480        0.020      336.234        7.396      854.248
12/12/2014  15:26:00     -258.767      -85.757      -13.969       79.498       83.478       44.605     6319.876     6968.637     1989.595        4.489        0.764      272.607       40.584        0.022      336.307        7.516      854.285
12/12/2014  15:27:00     -248.535      -70.578      -12.766      116.373      166.183       58.013    13542.791    27616.779     3365.482        5.571        2.226      258.362       56.525        0.048      335.984        6.979      854.290
12/12/2014  15:28:00     -218.896      110.426      -19.350      138.064       75.454       41.642    19061.563     5693.358     1734.019        4.348        1.324      245.172       48.166        0.039      336.256        7.433      854.310
12/12/2014  15:29:00     -359.445       -8.142      -26.570      141.642      114.555       58.021    20062.363    13122.737     3366.439        8.326        1.828      359.538       54.986        0.023      336.131        7.222      854.348
12/12/2014  15:30:00     -506.169     -189.576      -25.253      175.974      160.346       86.682    30967.016    25710.684     7513.830       17.847        3.210      540.505       74.962        0.019      335.956        6.932      854.331
12/12/2014  15:31:00     -302.920      -84.658       -4.843      189.771      183.757       79.936    36012.843    33766.707     6389.718        8.754        3.808      314.527       70.196        0.050      335.873        6.794      854.374
12/12/2014  15:32:00     -236.262     -135.336       -7.215      177.525      102.608       85.011    31514.980    10528.353     7226.805        6.172        2.464      272.278       90.298        0.110      335.911        6.857      854.389
12/12/2014  15:33:00     -228.766     -101.162       -7.163      145.020       99.938       63.017    21030.762     9987.535     3971.194        4.880        1.749      250.135       71.423        0.082      335.913        6.860      854.405
12/12/2014  15:34:00     -106.802      -34.497       14.654      140.531       81.282       63.463    19748.867     6606.729     4027.541        2.159        1.519      112.235       63.982        0.325      335.936        6.900      854.433
12/12/2014  15:35:00     -151.238     -111.513       -9.303      144.713      114.512       67.646    20941.882    13112.896     4576.003        3.700        1.932      187.904       50.492        0.072      335.952        6.925      854.445
12/12/2014  15:36:00     -391.018       26.429      -32.900      161.795      137.865       70.518    26177.553    19006.722     4972.838       10.241        2.508      391.910       77.193        0.039      335.746        6.582      854.458
12/12/2014  15:37:00     -272.432      -17.492       -5.825      191.291      131.585       73.183    36592.185    17314.556     5355.710        6.690        2.963      272.993       87.659        0.103      335.884        6.813      854.464
12/12/2014  15:38:00     -291.438     -106.518      -22.221      142.978      112.889       52.620    20442.684    12744.033     2768.915        6.636        1.798      310.294       44.364        0.020      335.737        6.567      854.479
12/12/2014  15:39:00     -286.633       -6.335      -16.514      117.835      114.446       61.624    13885.130    13097.945     3797.558        5.662        1.539      286.703       55.449        0.037      335.847        6.749      854.490
12/12/2014  15:40:00     -191.761      -17.207       -6.582      119.382       98.090       47.278    14252.172     9621.698     2235.173        3.161        1.305      192.532       48.875        0.064      335.853        6.762      854.525
12/12/2014  15:41:00     -305.590      -65.431      -25.119       87.233       99.897       44.742     7609.644     9979.352     2001.830        5.894        0.980      312.516       33.077        0.011      335.746        6.581      854.531
12/12/2014  15:42:00     -210.898      -51.710       10.250      187.576       99.512       64.264    35184.686     9902.573     4129.852        4.823        2.461      217.145       86.831        0.160      335.780        6.639      854.538
12/12/2014  15:43:00     -309.436      -89.890      -18.733      158.959       98.927       74.614    25267.914     9786.603     5567.304        7.239        2.031      322.228       71.410        0.049      335.700        6.507      854.546
12/12/2014  15:44:00     -271.254      -52.690       -8.561      125.471      111.368       60.244    15742.977    12402.762     3629.291        5.410        1.589      276.324       63.524        0.053      335.768        6.618      854.556
12/12/2014  15:45:00     -340.109      -81.919      -11.014      142.824      107.574       63.368    20398.719    11572.239     4015.523        7.924        1.799      349.836       67.463        0.037      335.681        6.474      854.554
12/12/2014  15:46:00     -356.251     -133.746      -13.083      134.994      108.341       58.965    18223.288    11737.854     3476.815        8.920        1.672      380.530       63.093        0.027      335.718        6.534      854.565
12/12/2014  15:47:00     -414.759      -58.761      -39.980      142.375      127.716       76.559    20270.619    16311.487     5861.277       10.975        2.122      418.900       46.910        0.013      335.698        6.502      854.565
12/12/2014  15:48:00     -240.987     -102.412      -26.862      128.933      101.902       66.646    16623.652    10384.069     4441.642        5.036        1.572      261.845       66.395        0.064      335.755        6.598      854.562
12/12/2014  15:49:00     -481.722     -130.275      -15.849      156.288      158.916       72.993    24425.886    25254.177     5327.960       15.213        2.750      499.027       70.408        0.020      335.656        6.432      854.574
12/12/2014  15:50:00     -484.853      -27.733      -40.891      156.395      135.736       60.679    24459.415    18424.245     3681.974       14.204        2.328      485.646       68.535        0.020      335.698        6.501      854.572
12/12/2014  15:51:00     -358.214     -130.189      -14.383      128.590      110.511       56.553    16535.285    12212.670     3198.261        8.870        1.597      381.138       50.457        0.018      335.685        6.480      854.589
12/12/2014  15:52:00     -317.063      -14.944      -13.986      122.648       88.938       61.281    15042.451     7910.052     3755.415        6.382        1.335      317.415       71.118        0.050      335.713        6.527      854.622
12/12/2014  15:53:00     -349.766      -67.468       -6.976      123.871       97.129       61.758    15343.942     9434.013     3814.040        7.776        1.430      356.213       65.554        0.034      335.695        6.496      854.633
12/12/2014  15:54:00     -435.963     -137.281       -6.447      135.178       99.199       52.589    18273.176     9840.397     2765.573       11.991        1.544      457.066       51.709        0.013      335.622        6.374      854.655
12/12/2014  15:55:00     -280.717      -96.353        0.314      119.993       89.829       50.167    14398.423     8069.230     2516.690        5.653        1.249      296.793       55.642        0.035      335.647        6.416      854.678
12/12/2014  15:56:00     -266.817       38.471       -1.665      161.969      122.533       61.874    26233.937    15014.317     3828.360        5.887        2.254      269.576       69.130        0.066      335.779        6.637      854.686
12/12/2014  15:57:00     -355.950      -46.471        1.490      135.993      107.440       66.675    18494.143    11543.340     4445.565        8.167        1.724      358.971       69.547        0.038      335.650        6.421      854.711
12/12/2014  15:58:00     -346.744     -145.392      -25.883      127.843      121.265       62.396    16343.854    14705.301     3893.203        8.848        1.747      375.992       54.192        0.021      335.598        6.335      854.730
12/12/2014  15:59:00     -248.220      -14.218       -8.120      115.710       88.303       47.140    13388.846     7797.356     2222.192        4.264        1.170      248.627       51.525        0.043      335.794        6.662      854.746
12/12/2014  16:00:00     -420.924      -83.130      -10.832      136.677      106.681       70.480    18680.620    11380.751     4967.444       10.961        1.751      429.054       70.242        0.027      335.559        6.271      854.751
12/12/2014  16:01:00     -420.371      -38.002      -23.448      159.096      119.104       76.324    25311.636    14185.683     5825.324       11.201        2.266      422.085       76.137        0.033      335.543        6.243      854.770
12/12/2014  16:02:00     -390.452      -13.905       -1.819      195.094      106.880       78.685    38061.606    11423.414     6191.332       10.415        2.784      390.699       93.063        0.057      335.583        6.311      854.769
12/12/2014  16:03:00     -444.743      -32.315      -23.575      174.843       99.786       75.362    30570.234     9957.303     5679.448       12.279        2.310      445.915       90.087        0.041      335.542        6.241      854.784
12/12/2014  16:04:00     -433.654      -34.252      -16.468      170.193      171.793       81.381    28965.571    29512.833     6622.799       12.729        3.255      435.005       85.215        0.038      335.571        6.290      854.799
12/12/2014  16:05:00     -353.639      -75.468       -4.667      164.725      134.159       67.990    27134.196    17998.721     4622.602        9.026        2.488      361.602       78.284        0.047      335.494        6.163      854.793
12/12/2014  16:06:00     -324.025      -15.308      -11.583      196.391      126.016       77.673    38569.610    15880.147     6033.052        8.291        3.024      324.387       95.019        0.086      335.569        6.288      854.811
12/12/2014  16:07:00     -364.405      -61.725      -23.375      122.607       96.514       58.210    15032.437     9314.967     3388.462        8.244        1.387      369.595       55.230        0.022      335.422        6.043      854.804
12/12/2014  16:08:00     -435.240       -2.779      -24.108      150.654      146.825       60.096    22696.540    21557.723     3611.536       11.893        2.393      435.249       61.044        0.020      335.454        6.097      854.775
12/12/2014  16:09:00     -325.691      -67.715      -20.080      148.655      128.045       72.972    22098.325    16395.507     5324.853        7.743        2.191      332.656       73.119        0.048      335.513        6.194      854.763
12/12/2014  16:10:00     -465.052      -50.070      -39.156      128.786      155.976       65.900    16585.919    24328.596     4342.834       13.278        2.263      467.739       48.919        0.011      335.459        6.104      854.755
12/12/2014  16:11:00     -426.788      -89.751      -34.249      155.663      185.017       74.737    24231.048    34231.206     5585.595       12.770        3.202      436.123       74.392        0.029      335.468        6.118      854.755
12/12/2014  16:12:00     -282.347      -36.326        4.689      172.204      135.070       85.199    29654.116    18243.882     7258.906        6.810        2.758      284.675       87.686        0.095      335.490        6.156      854.759
12/12/2014  16:13:00     -250.519      -37.933      -14.808      131.050       90.691       59.290    17174.033     8224.829     3515.258        4.666        1.446      253.374       67.298        0.071      335.522        6.209      854.760
12/12/2014  16:14:00     -237.728      -24.256      -10.710      179.404      106.980       75.878    32185.926    11444.720     5757.426        5.329        2.469      238.962       89.236        0.139      335.486        6.151      854.765
12/12/2014  16:15:00     -526.298      -75.648      -36.321      183.490      123.878       79.503    33668.436    15345.757     6320.802       16.967        2.767      531.707       92.736        0.030      335.456        6.099      854.772
12/12/2014  16:16:00     -311.966      -83.616       -8.210      157.573      117.582       68.990    24829.094    13825.460     4759.642        7.389        2.171      322.978       69.596        0.046      335.492        6.160      854.772
12/12/2014  16:17:00     -309.459      -49.855      -15.578      150.709      102.794       70.523    22713.235    10566.513     4973.534        6.837        1.913      313.449       72.058        0.053      335.526        6.215      854.773
12/12/2014  16:18:00     -234.529      -56.046        6.424      125.726       93.119       61.654    15807.124     8671.173     3801.264        4.323        1.414      241.133       65.668        0.074      335.507        6.185      854.782
12/12/2014  16:19:00     -317.392       15.468       -9.863      178.447      108.256       70.093    31843.445    11719.461     4913.030        7.477        2.424      317.769       76.160        0.057      335.533        6.226      854.791
12/12/2014  16:20:00     -432.655      -25.341       -4.195      197.547      129.215       82.324    39024.745    16696.398     6777.195       12.516        3.125      433.396       85.413        0.039      335.559        6.270      854.769
12/12/2014  16:21:00     -239.244       20.503       -5.242      151.617      131.158       66.642    22987.865    17202.346     4441.207        5.115        2.232      240.121       67.401        0.079      335.620        6.373      854.773
12/12/2014  16:22:00     -242.503      -97.063      -14.684      204.717      165.761       85.714    41908.871    27476.726     7346.913        7.257        3.837      261.206      109.918        0.177      335.579        6.304      854.780
12/12/2014  16:23:00     -382.640      -61.925      -18.410      132.051      134.705       72.214    17437.550    18145.466     5214.801        9.568        2.040      387.619       72.131        0.035      335.559        6.270      854.811
12/12/2014  16:24:00     -394.508      -60.507      -25.734      157.839      110.079       55.225    24913.207    12117.294     3049.811       10.001        2.004      399.122       69.508        0.030      335.553        6.261      854.809
12/12/2014  16:25:00     -390.479     -135.273      -14.176      159.926      126.658       75.208    25576.361    16042.164     5656.275       10.911        2.364      413.246       74.685        0.033      335.544        6.245      854.825
12/12/2014  16:26:00     -178.077      -46.083       -4.405      131.654       92.827       63.044    17332.789     8616.905     3974.561        3.188        1.496      183.943       69.881        0.144      335.610        6.357      854.841
12/12/2014  16:27:00     -272.359      -52.886      -12.851       91.948       89.986       55.629     8454.420     8097.487     3094.635        4.839        0.982      277.447       53.585        0.037      335.619        6.370      854.866
12/12/2014  16:28:00     -248.473      -56.815      -15.559      154.244      112.795       60.277    23791.065    12722.689     3633.274        5.267        2.007      254.886       62.529        0.060      335.603        6.343      854.891
12/12/2014  16:29:00     -258.222      -68.305       -6.973      116.449      107.651       57.406    13560.485    11588.716     3295.395        4.991        1.422      267.104       61.990        0.054      335.528        6.219      854.906
12/12/2014  16:30:00     -309.751      -13.274      -23.835       98.217      105.325       51.953     9646.643    11093.450     2699.154        6.006        1.172      310.035       50.059        0.026      335.570        6.288      854.921
12/12/2014  16:31:00     -408.811       29.356      -48.458      136.954       87.780       50.307    18756.330     7705.303     2530.768        9.966        1.450      409.863       66.787        0.027      335.567        6.282      854.940
12/12/2014  16:32:00     -381.094       52.857      -37.846      139.711       99.022       51.457    19519.172     9805.441     2647.851        9.071        1.599      384.743       62.244        0.026      335.484        6.144      854.975
12/12/2014  16:33:00     -155.483       37.605       -2.470       72.131       90.968       47.125     5202.812     8275.208     2220.790        2.064        0.785      159.966       34.365        0.046      335.570        6.291      854.997
12/12/2014  16:34:00     -260.830      -73.431      -25.233       69.780       74.579       44.911     4869.290     5562.004     2017.029        4.325        0.622      270.970       40.429        0.022      335.500        6.171      855.042
12/12/2014  16:35:00     -242.986      -38.248      -18.213      155.313      107.958       61.357    24122.026    11654.976     3764.682        5.018        1.977      245.978       66.184        0.072      335.479        6.139      855.057
12/12/2014  16:36:00     -276.985      -54.545      -26.091      107.312       80.190       46.944    11515.801     6430.361     2203.786        5.026        1.007      282.305       41.687        0.022      335.416        6.032      855.071
12/12/2014  16:37:00     -179.972       65.363      -23.683      142.349      107.872       67.556    20263.256    11636.438     4563.818        3.684        1.823      191.474       66.702        0.121      335.538        6.236      855.118
12/12/2014  16:38:00     -162.634       55.459      -23.411       80.410       60.999       53.348     6465.748     3720.830     2845.969        2.155        0.652      171.830       38.257        0.050      335.510        6.190      855.148
12/12/2014  16:39:00      -75.090       13.674       15.874       82.077       69.845       52.866     6736.664     4878.287     2794.865        1.024        0.720       76.325       42.531        0.311      335.575        6.299      855.160
12/12/2014  16:40:00     -105.957       53.512        8.184       90.315       58.725       46.956     8156.780     3448.604     2204.834        1.398        0.691      118.703       48.147        0.165      335.532        6.228      855.187
12/12/2014  16:41:00     -103.591       32.150      -23.757       44.806       48.009       33.863     2007.598     2304.832     1146.726        0.889        0.273      108.466       15.139        0.019      335.592        6.330      855.197
12/12/2014  16:42:00      -52.026       20.835       -4.388       51.387       58.018       35.138     2640.628     3366.126     1234.661        0.520        0.362       56.043       31.929        0.325      335.552        6.261      855.204
12/12/2014  16:43:00     -174.459       71.716      -29.536       99.513       66.012       42.312     9902.885     4357.590     1790.280        2.625        0.803      188.624       52.861        0.079      335.427        6.051      855.211
12/12/2014  16:44:00     -125.025       75.579      -17.586       67.822       61.720       33.401     4599.818     3809.331     1115.626        1.559        0.476      146.094       30.451        0.043      335.481        6.143      855.222
12/12/2014  16:45:00      -84.990       47.646      -18.052       52.313       53.870       30.267     2736.638     2902.000      916.070        0.819        0.328       97.434       29.053        0.089      335.595        6.334      855.237
12/12/2014  16:46:00      -88.856       44.177        5.368       68.556       55.800       39.655     4699.872     3113.611     1572.548        0.963        0.469       99.232       38.610        0.151      335.548        6.255      855.243
12/12/2014  16:47:00     -115.901       44.310      -18.266       68.218       70.973       37.085     4653.753     5037.211     1375.301        1.340        0.553      124.082       38.663        0.097      335.474        6.131      855.256
12/12/2014  16:48:00     -156.365       70.881      -15.598       63.479       73.551       41.633     4029.619     5409.794     1733.290        2.044        0.559      171.680       39.675        0.053      335.518        6.204      855.270
12/12/2014  16:49:00      -94.159      142.709      -26.386       79.006       79.244       45.077     6241.995     6279.651     2031.923        2.224        0.728      170.972       37.519        0.048      335.431        6.059      855.284
12/12/2014  16:50:00     -120.227       66.591      -16.785       60.290       69.949       42.136     3634.886     4892.917     1775.462        1.473        0.515      137.437       43.446        0.100      335.544        6.247      855.271
12/12/2014  16:51:00      -79.871      -32.461       -8.796       76.537       59.717       44.728     5857.890     3566.102     2000.556        0.947        0.571       86.216       55.765        0.418      335.434        6.064      855.268
12/12/2014  16:52:00      -66.263       30.728       -5.041       70.534       43.500       33.435     4975.109     1892.277     1117.879        0.667        0.399       73.041       37.343        0.261      335.448        6.089      855.266
12/12/2014  16:53:00     -144.968       53.919      -12.053       68.712       33.940       37.294     4721.334     1151.933     1390.820        1.566        0.363      154.671       43.609        0.079      335.528        6.221      855.306
12/12/2014  16:54:00     -178.838       57.823      -25.242       72.332       78.125       36.420     5231.886     6103.543     1326.438        2.431        0.633      187.953       35.912        0.037      335.535        6.233      855.328
12/12/2014  16:55:00      -66.136       32.347        1.198       79.666       60.154       39.273     6346.729     3618.492     1542.380        0.846        0.575       73.623       38.054        0.267      335.411        6.026      855.311
12/12/2014  16:56:00      -74.086        8.590       -0.662       55.766       62.592       33.038     3109.811     3917.783     1091.537        0.684        0.406       74.582       29.346        0.155      335.415        6.033      855.311
12/12/2014  16:57:00     -105.875      158.097      -18.374       78.576      102.322       40.220     6174.246    10469.725     1617.610        2.740        0.913      190.274       38.102        0.040      335.427        6.051      855.338
12/12/2014  16:58:00      -66.453      -50.198        3.107       89.331       65.056       38.646     7979.953     4232.238     1493.536        1.032        0.685       83.282       37.952        0.208      335.419        6.038      855.321
12/12/2014  16:59:00     -179.739       35.205      -30.071      128.036       84.078       54.345    16393.117     7069.052     2953.423        3.043        1.321      183.155       46.107        0.063      335.403        6.012      855.312
12/12/2014  17:00:00     -117.058      -45.611        9.259       74.727       88.125       45.541     5584.054     7766.089     2073.954        1.564        0.771      125.630       33.575        0.071      335.419        6.040      855.320
12/12/2014  17:01:00     -164.614       25.779       -6.091      103.007       94.288       69.100    10610.465     8890.133     4774.808        2.603        1.214      166.621       50.972        0.094      335.369        5.954      855.334
12/12/2014  17:02:00     -243.275      -24.600      -42.191       80.728      118.375       59.782     6517.069    14012.536     3573.905        4.283        1.205      244.516       44.491        0.033      335.346        5.916      855.331
12/12/2014  17:03:00     -199.700        5.736      -27.077      102.168      140.583       60.364    10438.277    19763.631     3643.769        3.724        1.692      199.783       48.424        0.059      335.364        5.945      855.317
12/12/2014  17:04:00     -292.822       30.018      -40.598      105.645      202.848       67.306    11160.792    41147.284     4530.097        7.255        2.842      294.356       63.898        0.047      335.298        5.835      855.315
12/12/2014  17:05:00     -207.190       34.217      -25.616      118.203      100.186       56.907    13971.840    10037.194     3238.382        3.600        1.362      209.997       62.759        0.089      335.342        5.909      855.317
12/12/2014  17:06:00     -265.963      -44.807      -22.577      118.288       65.102       50.343    13991.982     4238.317     2534.458        4.701        1.038      269.711       47.146        0.031      335.318        5.869      855.279
12/12/2014  17:07:00     -236.868       14.339      -19.310      153.318      175.675       64.629    23506.426    30861.828     4176.873        5.760        2.927      237.302       66.119        0.078      335.287        5.817      855.282
12/12/2014  17:08:00     -211.894       56.136      -18.720      147.227       94.068       68.148    21675.648     8848.874     4644.087        4.178        1.758      219.204       70.213        0.103      335.285        5.815      855.284
12/12/2014  17:09:00     -140.737       -2.558       -3.255       96.597       69.773       45.491     9331.061     4868.279     2069.440        1.804        0.813      140.760       53.433        0.144      335.348        5.919      855.249
12/12/2014  17:10:00     -147.561      -22.219        1.547      108.928       88.943       56.876    11865.258     7910.923     3234.837        2.264        1.151      149.225       58.950        0.156      335.299        5.838      855.257
12/12/2014  17:11:00     -103.323        4.911        2.850       89.983      115.270       59.280     8096.853    13287.109     3514.137        1.780        1.245      103.439       36.875        0.127      335.371        5.960      855.255
12/12/2014  17:12:00     -157.817      -32.697      -18.362      129.815      109.877       56.047    16851.956    12072.859     3141.303        2.918        1.603      161.168       28.415        0.031      335.283        5.812      855.242
12/12/2014  17:13:00     -339.447      -54.284      -22.384      168.692      112.481       67.289    28457.022    12651.897     4527.799        8.215        2.282      343.761       83.869        0.060      335.228        5.719      855.256
12/12/2014  17:14:00     -277.922      -82.888      -12.737      154.596       91.983       54.238    23899.848     8460.957     2941.755        5.978        1.765      290.019       62.003        0.046      335.113        5.529      855.244
12/12/2014  17:15:00     -307.942      -86.765      -15.736      132.967      111.613       52.862    17680.342    12457.524     2794.365        6.776        1.647      319.932       51.782        0.026      335.105        5.518      855.265
12/12/2014  17:16:00     -260.067      -32.771      -31.334      129.866       73.580       44.797    16865.133     5413.955     2006.810        4.698        1.214      262.124       50.433        0.037      335.128        5.555      855.282
12/12/2014  17:17:00     -104.874       -7.262       -0.515       70.168       59.405       31.873     4923.617     3528.952     1015.897        1.026        0.473      105.125       27.772        0.070      335.162        5.613      855.295
12/12/2014  17:18:00     -150.216       34.628      -16.628       90.064       77.584       32.693     8111.453     6019.285     1068.838        1.962        0.760      154.155       27.074        0.031      335.215        5.700      855.306
12/12/2014  17:19:00     -137.635      -75.412       12.091      111.072       63.711       45.358    12337.081     4059.117     2057.390        2.161        0.923      156.940       43.109        0.075      335.112        5.528      855.329
12/12/2014  17:20:00     -166.139      -20.537       -0.554      132.542       70.373       50.790    17567.399     4952.311     2579.658        2.656        1.255      167.404       59.437        0.126      335.090        5.491      855.336
12/12/2014  17:21:00     -140.238      -21.726      -11.913       56.735       57.770       38.441     3218.863     3337.341     1477.722        1.416        0.402      141.911       27.921        0.039      335.176        5.637      855.349
12/12/2014  17:22:00      -24.798      -34.075        0.463       69.988       43.402       28.632     4898.307     1883.715      819.767        0.469        0.380       42.143       25.743        0.373      335.118        5.541      855.365
12/12/2014  17:23:00      -93.117       11.351      -29.928       98.028       72.625       32.631     9609.554     5274.444     1064.810        1.282        0.797       93.807       27.215        0.084      335.107        5.521      855.395
12/12/2014  17:24:00      -56.916       65.308      -10.477       42.265       61.622       27.362     1786.310     3797.321      748.686        0.697        0.317       86.628       19.725        0.052      335.091        5.496      855.409
12/12/2014  17:25:00      -21.198       38.418        0.816       45.308       43.896       29.132     2052.824     1926.846      848.698        0.338        0.241       43.879       29.152        0.441      335.184        5.649      855.428
12/12/2014  17:26:00      -50.257      123.074       -0.834       63.100       80.078       45.855     3981.635     6412.433     2102.657        1.508        0.625      132.940       38.980        0.086      335.165        5.617      855.449
12/12/2014  17:27:00      -88.723      121.120      -16.781       60.655       53.329       38.956     3678.975     2844.026     1517.568        1.543        0.402      150.139       37.317        0.062      335.126        5.552      855.497
12/12/2014  17:28:00      -27.210      134.299      -15.128       57.344       47.303       28.304     3288.372     2237.528      801.136        1.267        0.316      137.028       21.249        0.024      335.094        5.499      855.516
12/12/2014  17:29:00      -37.169       91.392      -12.305       54.201       45.824       27.998     2937.733     2099.801      783.884        0.785        0.291       98.661       26.037        0.070      335.167        5.622      855.544
12/12/2014  17:30:00        5.033      181.471      -30.258       33.596       75.310       22.304     1128.671     5671.582      497.473        2.058        0.365      181.541       28.545        0.025      335.015        5.367      855.570
12/12/2014  17:31:00      -36.233      211.001      -31.007       41.662       72.779       25.212     1735.704     5296.764      635.651        2.723        0.383      214.089       34.909        0.027      335.064        5.449      855.602
12/12/2014  17:32:00      -37.858      176.091      -14.604       46.486       73.180       32.120     2160.913     5355.267     1031.676        2.060        0.427      180.115       36.078        0.040      335.173        5.630      855.623
12/12/2014  17:33:00      -62.841      140.878      -10.815       55.238       74.034       39.908     3051.194     5481.048     1592.641        1.702        0.506      154.258       39.429        0.065      335.158        5.607      855.629
12/12/2014  17:34:00      -62.793      174.805      -23.602       68.305       56.245       44.380     4665.587     3163.467     1969.612        2.243        0.490      185.742       35.600        0.037      335.066        5.452      855.639
12/12/2014  17:35:00     -108.475      190.758      -28.072       81.882       75.023       46.740     6704.583     5628.393     2184.621        3.173        0.726      219.444       46.034        0.044      335.041        5.408      855.659
12/12/2014  17:36:00      -45.645      288.271      -41.528       92.301      107.277       45.122     8519.452    11508.260     2035.959        5.448        1.103      291.862       45.000        0.024      334.946        5.250      855.657
12/12/2014  17:37:00      -55.138      259.278      -23.388       66.487      122.731       50.524     4420.563    15062.838     2552.718        4.642        1.102      265.076       55.484        0.044      334.935        5.233      855.668
12/12/2014  17:38:00     -102.036      317.814      -37.435       69.305       97.834       44.132     4803.194     9571.472     1947.664        6.457        0.816      333.792       44.290        0.018      334.936        5.235      855.691
12/12/2014  17:39:00      -65.422      233.382      -21.637       61.260       78.792       42.368     3752.738     6208.166     1795.021        3.548        0.588      242.378       36.962        0.023      334.984        5.314      855.707
12/12/2014  17:40:00      -34.666      323.195      -34.085       55.258       70.085       37.575     3053.485     4911.857     1411.872        5.810        0.469      325.049       29.028        0.008      334.909        5.188      855.716
12/12/2014  17:41:00      -19.079      258.417      -34.291       62.619       85.139       35.525     3921.169     7248.726     1262.042        4.037        0.622      259.120       40.060        0.024      334.906        5.185      855.727
12/12/2014  17:42:00        6.802      220.666      -16.622       55.257      118.235       49.663     3053.391    13979.452     2466.443        3.425        0.975      220.771       56.049        0.064      334.866        5.118      855.742
12/12/2014  17:43:00      -86.267      343.514      -37.420       66.648       82.420       44.670     4441.894     6793.009     1995.453        7.003        0.662      354.180       33.870        0.009      334.865        5.117      855.789
12/12/2014  17:44:00      -93.212      286.441      -27.814       51.213       85.910       37.730     2622.787     7380.557     1423.560        5.147        0.571      301.226       40.765        0.018      334.868        5.121      855.829
12/12/2014  17:45:00       22.336      290.171      -33.992       69.874      169.213       69.840     4882.368    28632.951     4877.582        6.212        1.920      291.030       91.678        0.099      334.835        5.067      855.827
12/12/2014  17:46:00      -27.987      324.413      -37.572       81.312       94.458       46.002     6611.641     8922.250     2116.217        6.254        0.883      325.618       49.283        0.023      334.826        5.051      855.849
12/12/2014  17:47:00       -8.031      300.715      -33.832       81.837      110.498       51.124     6697.339    12209.794     2613.681        5.658        1.076      300.823       56.208        0.035      334.848        5.086      855.865
12/12/2014  17:48:00      -80.677      302.394      -35.928       72.397       91.436       49.354     5241.323     8360.528     2435.864        5.764        0.802      312.971       48.961        0.024      334.891        5.160      855.897
12/12/2014  17:49:00      -58.231      385.470      -43.537       65.289       92.078       40.759     4262.656     8478.434     1661.295        8.413        0.720      389.843       40.910        0.011      334.886        5.152      855.942
12/12/2014  17:50:00      -59.278      326.117      -42.003       46.276       71.753       34.987     2141.425     5148.447     1224.122        6.007        0.426      331.460       27.045        0.007      334.863        5.114      855.978
12/12/2014  17:51:00      -81.445      192.613      -38.837       50.252      103.779       37.829     2525.243    10770.049     1430.999        2.998        0.736      209.124       45.592        0.048      334.970        5.293      856.006
12/12/2014  17:52:00      -43.880      236.244      -49.317       76.381       78.867       38.332     5834.002     6220.031     1469.328        3.684        0.676      240.285       32.325        0.018      334.869        5.121      856.032
12/12/2014  17:53:00      -54.460      216.889      -24.549       60.480      105.615       48.297     3657.811    11154.462     2332.621        3.387        0.857      223.622       51.123        0.052      334.908        5.189      856.052
12/12/2014  17:54:00      -81.576      209.998      -17.151       62.437      118.957       46.090     3898.331    14150.876     2124.295        3.561        1.009      225.286       57.775        0.066      334.982        5.312      856.076
12/12/2014  17:55:00      -47.739      221.390      -21.604       56.230       83.507       44.492     3161.833     6973.346     1979.537        3.193        0.606      226.479       45.171        0.040      334.876        5.134      856.098
12/12/2014  17:56:00      -61.196      244.476      -27.166       46.245      100.405       34.005     2138.614    10081.070     1156.371        3.881        0.669      252.019       40.822        0.026      334.880        5.143      856.110
12/12/2014  17:57:00     -104.014      204.381      -32.530       59.978       94.609       43.590     3597.313     8950.880     1900.131        3.405        0.722      229.326       36.920        0.026      334.989        5.324      856.115
12/12/2014  17:58:00     -126.276      102.969      -18.811       60.044       55.575       42.600     3605.245     3088.605     1814.769        1.770        0.425      162.937       31.277        0.037      335.115        5.534      856.131
12/12/2014  17:59:00      -71.743      117.027      -23.038       54.730       54.589       23.896     2995.396     2979.912      571.007        1.296        0.327      137.268       26.089        0.036      334.956        5.271      856.122
12/12/2014  18:00:00      -84.372      110.280      -16.897       70.389       62.041       41.271     4954.642     3849.053     1703.285        1.503        0.525      138.854       40.953        0.087      335.030        5.394      856.118
12/12/2014  18:01:00      -80.218      149.644      -18.624       73.369       71.840       42.813     5383.004     5160.969     1832.930        2.077        0.619      169.789       39.198        0.053      334.995        5.333      856.119
12/12/2014  18:02:00     -170.935      174.408      -23.974       88.040       93.795       42.549     7751.109     8797.459     1810.427        3.928        0.918      244.207       36.253        0.022      334.935        5.234      856.126
12/12/2014  18:03:00     -109.095      118.736      -16.197       58.565      109.069       43.297     3429.875    11895.955     1874.664        2.173        0.860      161.245       28.696        0.032      335.037        5.403      856.147
12/12/2014  18:04:00     -158.061      -26.390      -21.463       64.307       68.009       40.012     4135.375     4625.213     1600.924        1.825        0.518      160.249       26.040        0.026      334.955        5.269      856.153
12/12/2014  18:05:00      -83.425       21.248       -8.383       74.511       43.172       32.704     5551.940     1863.851     1069.528        0.798        0.424       86.088       32.411        0.142      334.846        5.087      856.151
12/12/2014  18:06:00      -29.150      -12.843       10.462       53.482       51.435       33.230     2860.282     2645.609     1104.236        0.387        0.331       31.854       30.400        0.911      334.888        5.157      856.161
12/12/2014  18:07:00     -100.229       -9.172       -3.998       40.576       61.488       33.733     1646.440     3780.749     1137.896        0.835        0.328      100.648       31.255        0.096      334.827        5.055      856.184
12/12/2014  18:08:00      -73.307      130.845      -20.670       50.755       51.800       37.331     2576.082     2683.249     1393.597        1.479        0.333      149.981       35.528        0.056      334.851        5.096      856.185
12/12/2014  18:09:00      -76.603       10.346       -6.347       35.130       28.448       28.035     1234.125      809.284      785.988        0.442        0.141       77.298       25.152        0.106      335.121        5.545      856.186
12/12/2014  18:10:00      -14.151       51.609       13.009       44.796       38.094       34.249     2006.649     1451.125     1172.963        0.383        0.232       53.514       36.863        0.475      334.905        5.187      856.202
12/12/2014  18:11:00     -109.663       93.395      -27.965       34.909       50.883       28.559     1218.622     2589.122      815.600        1.308        0.231      144.043       22.210        0.024      334.958        5.273      856.219
12/12/2014  18:12:00     -148.092      117.067      -28.842       61.737       53.616       41.064     3811.457     2874.690     1686.217        2.242        0.419      188.775       37.235        0.039      334.892        5.163      856.237
12/12/2014  18:13:00      -95.635      110.038      -12.579       48.692       63.216       37.158     2370.921     3996.317     1380.686        1.458        0.387      145.789       27.101        0.035      334.930        5.227      856.246
12/12/2014  18:14:00     -117.942      125.453      -19.017       53.397       65.379       33.802     2851.238     4274.371     1142.573        1.914        0.413      172.188       19.223        0.012      334.879        5.142      856.249
12/12/2014  18:15:00      -66.750       75.558      -14.621       40.189       40.430       26.310     1615.138     1634.600      692.203        0.716        0.197      100.819       22.367        0.049      334.842        5.081      856.256
12/12/2014  18:16:00     -153.001      130.436      -45.900       50.698       52.444       33.606     2570.263     2750.425     1129.381        2.449        0.323      201.055       37.331        0.034      334.861        5.110      856.263
12/12/2014  18:17:00     -112.271       42.663      -10.695       56.011       74.693       39.016     3137.180     5579.104     1522.230        1.239        0.512      120.104       36.824        0.094      334.831        5.063      856.255
12/12/2014  18:18:00      -92.534      113.036      -11.588       50.627       76.617       38.597     2563.120     5870.097     1489.739        1.570        0.496      146.081       31.395        0.046      334.762        4.947      856.268
12/12/2014  18:19:00     -117.371      120.322      -33.213       33.677       40.663       23.598     1134.160     1653.449      556.875        1.635        0.167      168.088       12.778        0.006      334.748        4.924      856.270
12/12/2014  18:20:00     -123.213      178.173      -29.128       59.261       68.032       43.995     3511.832     4628.390     1935.564        2.892        0.504      216.627       38.455        0.032      334.739        4.906      856.277
12/12/2014  18:21:00     -129.016      128.281      -27.156       51.635       53.597       33.752     2666.166     2872.648     1139.176        2.026        0.334      181.937       22.252        0.015      334.806        5.020      856.298
12/12/2014  18:22:00      -84.751      109.865      -16.096       54.047       60.456       31.422     2921.108     3654.955      987.324        1.354        0.378      138.755       27.758        0.040      334.785        4.986      856.324
12/12/2014  18:23:00     -152.357      142.256      -37.812       51.600       63.851       31.939     2662.580     4076.975     1020.099        2.632        0.388      208.445       33.318        0.026      334.754        4.933      856.334
12/12/2014  18:24:00      -88.337       97.184       -9.623       38.441       46.174       30.568     1477.701     2132.021      934.385        1.094        0.227      131.332       27.463        0.044      334.740        4.912      856.352
12/12/2014  18:25:00     -113.942       11.085      -33.488       56.035       38.872       33.459     3139.935     1511.004     1119.526        1.000        0.289      114.480        9.919        0.008      334.838        5.074      856.364
12/12/2014  18:26:00     -142.737       18.610      -21.085       66.248       54.708       28.225     4388.758     2992.997      796.659        1.467        0.409      143.945       31.443        0.048      334.690        4.828      856.384
12/12/2014  18:27:00      -40.531       77.118      -14.144       51.369       38.905       34.571     2638.821     1513.571     1195.177        0.657        0.267       87.121       27.153        0.097      334.706        4.854      856.403
12/12/2014  18:28:00     -137.084      132.080      -32.031      100.781      100.271       37.201    10156.733    10054.227     1383.919        2.942        1.080      190.361       42.874        0.051      334.773        4.964      856.432
12/12/2014  18:29:00      -80.254      224.881      -29.102       50.797       92.938       38.806     2580.290     8637.495     1505.884        3.529        0.636      238.773       37.745        0.025      334.703        4.846      856.456
12/12/2014  18:30:00      -85.116      141.255      -20.120       36.859       55.889       32.866     1358.597     3123.551     1080.189        1.658        0.278      164.917       26.029        0.025      334.733        4.899      856.474
12/12/2014  18:31:00     -137.277      161.586      -23.053       64.115       82.209       50.516     4110.766     6758.250     2551.855        2.945        0.671      212.026       50.143        0.056      334.714        4.867      856.495
12/12/2014  18:32:00     -124.958      137.908      -20.931       58.215       67.888       38.662     3388.955     4608.745     1494.788        2.228        0.475      186.100       31.741        0.029      334.775        4.968      856.520
12/12/2014  18:33:00     -144.934      180.590      -31.552       60.833       84.234       47.393     3700.705     7095.411     2246.142        3.383        0.652      231.556       49.110        0.045      334.722        4.878      856.536
12/12/2014  18:34:00     -141.483      163.182      -35.473       67.965       66.363       43.638     4619.203     4404.113     1904.307        2.941        0.546      215.976       38.466        0.032      334.715        4.868      856.560
12/12/2014  18:35:00     -153.817      186.559      -43.370       73.383       84.802       46.723     5385.084     7191.408     2183.040        3.755        0.738      241.794       41.695        0.030      334.740        4.908      856.573
12/12/2014  18:36:00     -106.009      122.374       -5.527       89.708       93.222       57.097     8047.591     8690.255     3260.048        2.312        1.000      161.905       52.458        0.105      334.699        4.841      856.572
12/12/2014  18:37:00     -146.365      168.236      -21.578       83.634       74.149       50.701     6994.636     5498.120     2570.632        3.262        0.753      222.993       54.573        0.060      334.765        4.951      856.591
12/12/2014  18:38:00     -162.613      178.196      -35.935       80.592       73.835       50.593     6495.032     5451.609     2559.660        3.699        0.725      241.240       57.624        0.057      334.700        4.840      856.602
12/12/2014  18:39:00      -87.690      138.210       -1.409       69.998       90.599       47.735     4899.714     8208.213     2278.592        2.109        0.769      163.682       44.152        0.073      334.732        4.897      856.596
12/12/2014  18:40:00      -79.066      215.757      -32.651       70.092       89.089       42.827     4912.911     7936.814     1834.117        3.427        0.734      229.788       40.922        0.032      334.660        4.775      856.585
12/12/2014  18:41:00     -131.338      223.493      -35.839       79.893       57.902       45.801     6382.938     3352.652     2097.692        4.016        0.592      259.227       41.982        0.026      334.683        4.812      856.585
12/12/2014  18:42:00     -103.296      171.013      -15.637       74.306       66.958       44.567     5521.450     4483.403     1986.243        2.607        0.600      199.788       42.410        0.045      334.681        4.810      856.607
12/12/2014  18:43:00      -64.409      143.088      -16.809       65.895       84.546       41.718     4342.094     7148.027     1740.411        1.907        0.662      156.916       36.382        0.054      334.727        4.887      856.605
12/12/2014  18:44:00     -111.608      130.969      -18.636       56.282       74.497       45.143     3167.640     5549.816     2037.918        2.035        0.538      172.074       38.246        0.049      334.690        4.826      856.618
12/12/2014  18:45:00     -128.035      246.234      -43.285       78.557       88.705       58.129     6171.256     7868.638     3378.946        4.815        0.871      277.533       49.215        0.031      334.641        4.744      856.632
12/12/2014  18:46:00     -120.902      242.616      -29.068       58.207       75.957       41.171     3388.092     5769.492     1695.076        4.259        0.543      271.071       40.443        0.022      334.702        4.845      856.650
12/12/2014  18:47:00     -118.862      250.956      -23.266       66.916       92.410       52.573     4477.800     8539.578     2763.889        4.671        0.789      277.681       53.623        0.037      334.679        4.806      856.660
12/12/2014  18:48:00      -98.657      216.818      -34.744       67.467       85.980       45.387     4551.812     7392.615     2059.999        3.597        0.700      238.208       42.889        0.032      334.710        4.858      856.654
12/12/2014  18:49:00     -154.073      140.224      -26.299       91.916       57.649       49.387     8448.468     3323.384     2439.079        2.915        0.711      208.329       50.438        0.059      334.811        5.027      856.667
12/12/2014  18:50:00     -105.991      190.800      -32.307       73.306       75.196       42.901     5373.782     5654.471     1840.514        3.077        0.643      218.263       33.635        0.024      334.682        4.812      856.686
12/12/2014  18:51:00      -61.156      115.365        2.141       46.606       89.772       43.164     2172.134     8059.072     1863.172        1.457        0.605      130.572       42.621        0.107      334.728        4.890      856.692
12/12/2014  18:52:00     -130.912      168.740      -33.983       83.927       70.442       50.536     7043.684     4962.106     2553.881        3.066        0.728      213.567       47.080        0.049      334.676        4.802      856.699
12/12/2014  18:53:00     -178.375      218.730      -41.631       70.792      101.991       43.709     5011.518    10402.232     1910.472        4.936        0.866      282.242       37.406        0.018      334.662        4.778      856.715
12/12/2014  18:54:00     -142.299      166.024      -24.681       74.946      116.572       53.010     5616.862    13589.094     2810.099        3.521        1.101      218.661       53.254        0.059      334.672        4.797      856.725
12/12/2014  18:55:00     -189.139      174.640      -34.983      110.478      167.253       59.195    12205.444    27973.522     3504.026        5.558        2.184      257.435       61.179        0.056      334.619        4.706      856.737
12/12/2014  18:56:00     -143.520       54.354      -23.686       74.156       87.154       46.964     5499.043     7595.830     2205.654        1.970        0.765      153.468       47.232        0.095      334.693        4.833      856.751
12/12/2014  18:57:00     -127.216       73.917       -9.473       66.517       56.342       32.417     4424.571     3174.412     1050.869        1.519        0.432      147.131       30.076        0.042      334.762        4.948      856.760
12/12/2014  18:58:00     -187.996      140.446      -32.913       99.467       69.101       55.821     9893.690     4774.982     3116.025        3.696        0.889      234.665       52.981        0.051      334.670        4.791      856.763
12/12/2014  18:59:00     -167.385      152.424      -37.800       60.515       66.012       38.433     3662.104     4357.631     1477.111        3.109        0.475      226.386       35.946        0.025      334.663        4.780      856.765
12/12/2014  19:00:00     -157.305      146.205      -38.577       86.886       83.244       54.609     7549.136     6929.578     2982.197        3.253        0.873      214.757       39.728        0.034      334.645        4.750      856.765
12/12/2014  19:01:00     -187.008      163.559      -40.173      102.166       82.571       54.927    10437.919     6818.016     3017.005        4.180        1.014      248.443       54.745        0.049      334.669        4.789      856.781
12/12/2014  19:02:00     -183.165      143.720      -27.832       89.980       85.011       52.946     8096.403     7226.818     2803.331        3.655        0.906      232.820       50.514        0.047      334.690        4.825      856.796
12/12/2014  19:03:00     -145.602      196.040      -22.957       71.660       97.855       63.431     5135.210     9575.618     4023.532        3.944        0.937      244.196       59.972        0.060      334.667        4.788      856.789
12/12/2014  19:04:00     -164.956      179.101      -36.153       72.632       71.981       46.633     5275.396     5181.281     2174.619        3.661        0.632      243.491       29.911        0.015      334.730        4.891      856.794
12/12/2014  19:05:00     -164.106      166.688      -36.153       55.507       84.611       47.007     3080.989     7158.964     2209.670        3.423        0.622      233.914       44.246        0.036      334.718        4.871      856.823
12/12/2014  19:06:00     -149.873      116.028      -15.610       67.791      110.660       51.860     4595.567    12245.683     2689.474        2.785        0.977      189.538       40.041        0.045      334.772        4.962      856.838
12/12/2014  19:07:00     -149.607        1.456      -16.828       82.016      124.543       48.377     6726.659    15510.954     2340.379        2.362        1.229      149.614       40.081        0.072      334.706        4.855      856.847
12/12/2014  19:08:00     -114.442       -1.417      -20.424       71.506       70.659       42.431     5113.055     4992.686     1800.427        1.271        0.595      114.451       32.611        0.081      334.817        5.040      856.855
12/12/2014  19:09:00     -138.658       -0.013      -18.575       74.664       54.997       31.463     5574.702     3024.623      989.898        1.458        0.479      138.658       23.078        0.028      334.801        5.012      856.856
12/12/2014  19:10:00     -148.606        4.249      -13.155       66.734       71.782       40.879     4453.407     5152.679     1671.095        1.677        0.564      148.667       31.364        0.045      334.735        4.903      856.852
12/12/2014  19:11:00     -179.005      215.249      -20.730       75.116      136.270       59.943     5642.373    18569.526     3593.192        5.330        1.390      279.955       62.704        0.050      334.658        4.770      856.872
12/12/2014  19:12:00      -92.398       57.383       -9.303       42.566       72.607       33.835     1811.847     5271.733     1144.797        1.007        0.411      108.767       21.374        0.039      334.913        5.199      856.885
12/12/2014  19:13:00      -79.937       39.487      -25.839       52.186       80.655       34.919     2723.362     6505.286     1219.318        0.953        0.522       89.158       29.367        0.108      334.823        5.050      856.897
12/12/2014  19:14:00     -103.992       34.644      -26.733       51.472       77.669       27.998     2649.363     6032.529      783.887        1.110        0.473      109.610       19.042        0.030      334.821        5.046      856.903
12/12/2014  19:15:00     -101.790        2.899      -22.038       58.650       44.062       29.645     3439.874     1941.496      878.799        0.856        0.313      101.831       30.951        0.092      334.810        5.027      856.914
12/12/2014  19:16:00     -123.036        3.883      -27.827       57.767       74.336       39.936     3336.985     5525.907     1594.910        1.319        0.523      123.097       27.233        0.049      334.771        4.963      856.925
12/12/2014  19:17:00     -138.836       16.800      -10.804       62.312      106.085       50.877     3882.790    11254.010     2588.490        1.870        0.886      139.849       57.954        0.172      334.697        4.839      856.941
12/12/2014  19:18:00     -128.112       61.595      -30.255       84.829       67.892       34.526     7195.912     4609.345     1192.059        1.706        0.650      142.150       37.027        0.068      334.624        4.717      856.954
12/12/2014  19:19:00      -96.461       53.293      -18.549       55.380       80.531       39.220     3066.977     6485.202     1538.224        1.179        0.555      110.204       22.766        0.043      334.690        4.828      856.973
12/12/2014  19:20:00      -71.529       36.565       -2.235       58.458       50.894       40.741     3417.354     2590.211     1659.798        0.706        0.383       80.333       41.413        0.266      334.665        4.787      856.983
12/12/2014  19:21:00     -118.720       48.795      -20.706       73.392       67.409       43.017     5386.390     4544.002     1850.443        1.434        0.589      128.356       38.653        0.091      334.658        4.774      856.998
12/12/2014  19:22:00     -117.286      145.648      -31.123       87.198       94.610       51.623     7603.569     8951.024     2664.909        2.757        0.961      187.001       57.307        0.094      334.539        4.574      857.012
12/12/2014  19:23:00     -169.110      168.146      -42.134       81.684       91.729       40.776     6672.342     8414.249     1662.701        3.769        0.837      238.477       43.622        0.033      334.518        4.541      857.019
12/12/2014  19:24:00     -211.401      208.129      -61.566       87.790       86.610       52.198     7707.150     7501.369     2724.597        5.486        0.897      296.661       55.630        0.035      334.563        4.614      857.029
12/12/2014  19:25:00      -95.206       65.450      -10.286       65.947       71.220       36.283     4349.059     5072.326     1316.446        1.209        0.537      115.533       30.109        0.068      334.590        4.662      857.033
12/12/2014  19:26:00     -133.288       82.134       -1.725       75.206       57.842       60.039     5655.981     3345.649     3604.697        1.856        0.630      156.562       35.762        0.052      334.692        4.831      857.038
12/12/2014  19:27:00     -119.325      149.320      -28.327       79.709       97.799       42.342     6353.573     9564.710     1792.864        2.752        0.886      191.141       44.715        0.055      334.588        4.657      857.043
12/12/2014  19:28:00     -125.450      163.068      -28.243       71.972      101.559       49.856     5179.988    10314.201     2485.626        3.055        0.899      205.740       49.424        0.058      334.572        4.631      857.042
12/12/2014  19:29:00     -155.759      189.954      -29.939      104.408       93.075       63.217    10901.102     8663.000     3996.434        4.240        1.178      245.649       69.144        0.079      334.587        4.653      857.045
12/12/2014  19:30:00     -166.726      175.020      -24.333       78.377       68.903       52.440     6142.945     4747.675     2749.961        3.633        0.682      241.722       39.708        0.027      334.650        4.759      857.052
12/12/2014  19:31:00     -130.231       69.861      -10.980       69.481       44.169       37.639     4827.632     1950.881     1416.717        1.508        0.410      147.786       25.003        0.029      334.636        4.737      857.057
12/12/2014  19:32:00     -174.015      162.301      -27.120       65.287       84.274       50.971     4262.330     7102.170     2598.068        3.566        0.698      237.956       45.565        0.037      334.609        4.691      857.067
12/12/2014  19:33:00     -129.660      178.345      -26.660       70.510       59.746       42.797     4971.641     3569.637     1831.596        2.985        0.519      220.496       39.695        0.032      334.566        4.619      857.065
12/12/2014  19:34:00     -163.688      165.891      -33.738       64.223       90.363       42.346     4124.591     8165.559     1793.215        3.476        0.704      233.053       37.420        0.026      334.605        4.682      857.072
12/12/2014  19:35:00     -158.888      120.063      -18.715       68.602       99.018       41.052     4706.208     9804.518     1685.284        2.810        0.810      199.150       36.451        0.034      334.614        4.699      857.086
12/12/2014  19:36:00     -151.049      133.986      -25.665       66.595       77.501       45.799     4434.856     6006.337     2097.555        2.698        0.627      201.911       34.426        0.029      334.546        4.586      857.100
12/12/2014  19:37:00     -182.886      182.742      -52.304      105.011       77.403       51.074    11027.337     5991.162     2608.522        4.460        0.981      258.538       61.976        0.057      334.661        4.777      857.114
12/12/2014  19:38:00     -172.658      174.172      -36.316       89.720       93.373       49.820     8049.643     8718.489     2481.996        4.035        0.963      245.248       41.225        0.028      334.538        4.572      857.126
12/12/2014  19:39:00     -164.314      211.704      -46.437       93.157       95.955       45.497     8678.305     9207.303     2069.937        4.696        0.998      267.988       59.188        0.049      334.502        4.513      857.134
12/12/2014  19:40:00      -95.908      170.490      -21.122       64.143       97.313       44.758     4114.279     9469.770     2003.243        2.715        0.779      195.615       46.053        0.055      334.497        4.507      857.147
12/12/2014  19:41:00     -221.319      279.402      -66.376      106.679       87.556       56.678    11380.435     7666.119     3212.448        7.685        1.113      356.438       61.421        0.030      334.478        4.474      857.180
12/12/2014  19:42:00     -117.462      113.900      -19.524       66.047       66.525       40.314     4362.176     4425.608     1625.197        1.878        0.521      163.617       33.242        0.041      334.601        4.678      857.196
12/12/2014  19:43:00     -142.605      208.992      -27.745       80.287      115.052       45.066     6446.026    13237.046     2030.913        4.324        1.086      253.010       37.467        0.022      334.538        4.574      857.213
12/12/2014  19:44:00     -164.702      124.806      -16.996       68.464       78.839       53.125     4687.292     6215.576     2822.291        2.836        0.686      206.647       41.325        0.040      334.552        4.596      857.218
12/12/2014  19:45:00     -168.137      170.953      -30.136       72.384       74.253       47.527     5239.411     5513.551     2258.791        3.570        0.651      239.781       37.658        0.025      334.538        4.573      857.232
12/12/2014  19:46:00     -181.391      178.213      -37.195       97.904       58.474       47.025     9585.289     3419.209     2211.364        4.063        0.761      254.289       43.639        0.029      334.504        4.516      857.245
12/12/2014  19:47:00     -177.178      157.625      -32.902       83.749       92.579       44.226     7013.894     8570.888     1955.954        3.743        0.877      237.145       41.269        0.030      334.511        4.528      857.255
12/12/2014  19:48:00     -175.033      181.297      -29.261       60.313       91.596       47.119     3637.708     8389.862     2220.233        3.930        0.712      252.002       39.689        0.025      334.584        4.649      857.271
12/12/2014  19:49:00     -202.642      178.781      -46.983       99.629      116.851       48.834     9925.899    13654.273     2384.775        5.059        1.298      270.234       47.792        0.031      334.573        4.631      857.283
12/12/2014  19:50:00     -135.782      184.930      -19.473       72.332      135.556       49.744     5231.914    18375.345     2474.503        3.954        1.304      229.425       55.527        0.059      334.550        4.594      857.297
12/12/2014  19:51:00     -146.441      169.435      -17.965       97.570      120.997       59.854     9519.990    14640.236     3582.556        3.910        1.387      223.949       62.061        0.077      334.641        4.745      857.302
12/12/2014  19:52:00     -222.558      214.223      -40.782      100.449      102.679       64.762    10090.020    10542.948     4194.114        6.095        1.241      308.907       47.167        0.023      334.575        4.635      857.340
12/12/2014  19:53:00     -176.606      143.898      -28.264       91.017       75.181       55.926     8284.015     5652.207     3127.711        3.488        0.853      227.807       37.924        0.028      334.635        4.734      857.358
12/12/2014  19:54:00     -134.317      216.276      -26.348       84.088      116.137       53.726     7070.844    13487.708     2886.474        4.447        1.172      254.590       45.960        0.033      334.577        4.637      857.365
12/12/2014  19:55:00     -144.678      152.134      -24.326       64.573       90.659       42.235     4169.721     8219.040     1783.793        2.942        0.709      209.944       33.180        0.025      334.651        4.761      857.372
12/12/2014  19:56:00     -187.845      163.459      -47.413       75.669       77.530       43.341     5725.757     6010.907     1878.453        3.893        0.681      249.007       36.563        0.022      334.662        4.778      857.384
12/12/2014  19:57:00     -173.705      216.748      -40.487       78.699       84.230       49.698     6193.565     7094.705     2469.916        4.727        0.788      277.765       49.300        0.032      334.729        4.890      857.406
12/12/2014  19:58:00     -193.406      186.634      -53.628       83.238       98.891       49.607     6928.646     9779.418     2460.861        4.714        0.958      268.772       49.959        0.035      334.674        4.798      857.424
12/12/2014  19:59:00     -144.141      105.724      -18.656       68.664      105.776       42.363     4714.744    11188.560     1794.640        2.500        0.885      178.757       30.304        0.029      334.707        4.854      857.440
12/12/2014  20:00:00     -145.969      224.031      -37.109       49.454       88.037       42.756     2445.689     7750.558     1828.047        4.245        0.601      267.389       31.595        0.014      334.646        4.751      857.461
12/12/2014  20:01:00     -116.333       56.698       -9.997       45.878       74.215       33.582     2104.774     5507.888     1127.720        1.279        0.437      129.414       32.982        0.065      334.705        4.853      857.477
12/12/2014  20:02:00      -84.860       70.758      -15.728       32.330       45.058       27.397     1045.210     2030.235      750.603        0.814        0.191      110.489       16.006        0.021      334.767        4.956      857.507
12/12/2014  20:03:00      -76.489       79.555       -5.382       41.139       77.072       29.536     1692.404     5940.038      872.371        1.035        0.425      110.361       26.667        0.058      334.816        5.037      857.521
12/12/2014  20:04:00      -60.183       54.486       -5.618       43.866       70.068       33.271     1924.246     4909.501     1106.991        0.728        0.397       81.183       33.011        0.165      334.848        5.091      857.532
12/12/2014  20:05:00     -136.687       75.081      -22.288       60.227       54.704       39.399     3627.331     2992.493     1552.311        1.649        0.409      155.950       28.948        0.034      334.841        5.078      857.549
12/12/2014  20:06:00     -106.666      162.930      -26.703       48.954       54.086       33.147     2396.527     2925.261     1098.703        2.253        0.321      194.740       23.954        0.015      334.763        4.947      857.570
12/12/2014  20:07:00      -92.957      119.542      -19.425       40.142       73.823       34.212     1611.377     5449.824     1170.455        1.577        0.412      151.431       26.567        0.031      334.791        4.994      857.581
12/12/2014  20:08:00     -130.526      174.804      -25.244       68.193       68.553       44.021     4650.228     4699.448     1937.847        2.976        0.564      218.160       40.216        0.034      334.724        4.883      857.608
12/12/2014  20:09:00     -127.118      161.316      -34.889       64.221       49.451       41.163     4124.336     2445.359     1694.376        2.583        0.413      205.382       39.584        0.037      334.750        4.925      857.627
12/12/2014  20:10:00     -101.469      148.314      -17.550       69.139       96.242       48.645     4780.139     9262.571     2366.307        2.450        0.820      179.703       46.730        0.068      334.695        4.835      857.645
12/12/2014  20:11:00     -117.193      205.940      -25.749       92.117       98.753       53.835     8485.509     9752.177     2898.247        3.897        1.057      236.950       45.011        0.036      334.806        5.017      857.659
12/12/2014  20:12:00     -228.152      192.645      -48.289       78.597       91.520       48.195     6177.496     8375.852     2322.740        5.418        0.844      298.606       41.853        0.020      334.679        4.805      857.682
12/12/2014  20:13:00     -154.857       22.908      -20.972      107.216       95.454       40.322    11495.180     9111.514     1625.853        2.358        1.112      156.542       31.070        0.039      334.694        4.834      857.673
12/12/2014  20:14:00     -110.792       54.293      -19.600       45.709       45.425       34.659     2089.328     2063.386     1201.278        1.048        0.268      123.380       27.508        0.050      334.755        4.936      857.697
12/12/2014  20:15:00     -142.294      102.366      -24.616      104.306      156.934       63.866    10879.800    24628.309     4078.826        3.545        1.979      175.289       78.172        0.199      334.711        4.861      857.721
12/12/2014  20:16:00     -106.513      115.432      -18.590       49.319       59.927       40.540     2432.406     3591.221     1643.531        1.634        0.383      157.066       32.133        0.042      334.767        4.955      857.741
12/12/2014  20:17:00     -114.522       96.994      -14.947       50.949      104.431       45.070     2595.797    10905.754     2031.310        1.914        0.777      150.077       42.539        0.080      334.646        4.754      857.755
12/12/2014  20:18:00      -65.977       49.818       -7.899       48.221       59.796       30.780     2325.272     3575.561      947.425        0.687        0.342       82.673       23.392        0.080      334.748        4.924      857.765
12/12/2014  20:19:00     -146.150       26.271      -21.696       60.954       99.189       38.736     3715.372     9838.553     1500.443        1.878        0.753      148.493       29.912        0.041      334.676        4.802      857.774
12/12/2014  20:20:00      -81.293      143.847       -6.992       45.005       92.867       40.294     2025.475     8624.231     1623.587        1.981        0.614      165.228       34.122        0.043      334.741        4.910      857.791
12/12/2014  20:21:00     -129.698       24.778      -16.768       63.350       89.088       26.633     4013.218     7936.610      709.322        1.519        0.633      132.043       28.105        0.045      334.636        4.736      857.804
12/12/2014  20:22:00      -51.289       24.595        4.571       49.390       63.904       28.391     2439.395     4083.753      806.023        0.529        0.366       56.881       22.134        0.151      334.775        4.970      857.809
12/12/2014  20:23:00     -143.599        5.589      -13.192       74.049       56.622       33.110     5483.303     3206.054     1096.249        1.530        0.489      143.708       29.105        0.041      334.711        4.861      857.821
12/12/2014  20:24:00     -111.423      111.343      -24.914       77.758       52.766       31.856     6046.374     2784.248     1014.829        1.764        0.492      157.520       30.887        0.038      334.677        4.806      857.827
12/12/2014  20:25:00      -70.505       51.859      -18.517       45.695       39.326       24.286     2088.064     1546.517      589.806        0.611        0.211       87.523       24.702        0.080      334.695        4.837      857.829
12/12/2014  20:26:00     -105.180      104.298      -24.852       50.989       48.791       33.322     2599.828     2380.572     1110.336        1.432        0.305      148.125       35.198        0.056      334.745        4.918      857.838
12/12/2014  20:27:00     -106.442      141.399      -29.718       46.510       71.973       36.917     2163.206     5180.157     1362.846        2.045        0.435      176.985       24.344        0.019      334.714        4.866      857.849
12/12/2014  20:28:00      -75.486      131.297       -8.873       58.618       62.723       44.655     3436.125     3934.210     1994.088        1.619        0.468      151.450       31.634        0.044      334.694        4.835      857.855
12/12/2014  20:29:00     -202.817       70.682      -39.798       51.589       72.349       35.260     2661.392     5234.373     1243.247        2.842        0.457      214.780       32.387        0.023      334.700        4.843      857.872
12/12/2014  20:30:00      -98.986      156.987      -27.268       64.373       85.191       42.500     4143.848     7257.514     1806.292        2.419        0.660      185.589       42.042        0.051      334.688        4.825      857.898
12/12/2014  20:31:00      -87.057      142.610      -16.839       50.678      110.519       37.949     2568.254    12214.540     1440.089        2.221        0.811      167.082       43.875        0.069      334.779        4.975      857.908
12/12/2014  20:32:00     -103.421      122.626      -24.831       52.989       76.069       33.541     2807.821     5786.437     1125.012        1.803        0.486      160.415       33.298        0.043      334.716        4.871      857.924
12/12/2014  20:33:00      -92.082      120.498      -26.740       52.214       83.929       41.843     2726.326     7044.159     1750.854        1.762        0.576      151.654       41.419        0.075      334.785        4.985      857.933
12/12/2014  20:34:00     -112.860      150.486       -5.435       86.077       72.481       51.477     7409.273     5253.491     2649.849        2.536        0.766      188.104       49.777        0.070      334.712        4.863      857.939
12/12/2014  20:35:00     -104.455      134.588      -28.108       62.037       61.957       43.608     3848.580     3838.656     1901.617        1.970        0.479      170.366       33.826        0.039      334.737        4.905      857.956
12/12/2014  20:36:00     -159.195      220.784      -41.769       59.191      108.895       47.790     3503.555    11858.063     2283.881        4.674        0.882      272.192       42.095        0.024      334.626        4.718      857.965
12/12/2014  20:37:00     -155.519      139.308      -32.887       54.775       81.138       36.699     3000.289     6583.429     1346.811        2.780        0.547      208.790       34.439        0.027      334.663        4.781      857.977
12/12/2014  20:38:00     -144.581      132.170      -35.878       59.522       58.424       36.026     3542.821     3413.421     1297.891        2.396        0.413      195.890       34.450        0.031      334.722        4.880      857.994
12/12/2014  20:39:00     -113.324      129.694      -26.538       55.179       59.260       36.986     3044.762     3511.710     1367.945        1.914        0.396      172.229       33.867        0.039      334.714        4.867      858.000
12/12/2014  20:40:00     -106.555      117.696      -14.966       46.553       50.555       40.457     2167.193     2555.857     1636.748        1.589        0.318      158.766       33.827        0.045      334.705        4.853      858.020
12/12/2014  20:41:00     -147.254      133.564      -24.992       67.474       70.665       41.413     4552.806     4993.504     1715.018        2.570        0.563      198.804       38.236        0.037      334.672        4.796      858.048
12/12/2014  20:42:00     -102.739       89.048      -19.875       70.289       67.761       37.635     4940.599     4591.586     1416.413        1.491        0.547      135.959       41.377        0.093      334.633        4.733      858.063
12/12/2014  20:43:00      -82.901      105.933      -12.278       40.633       55.848       33.034     1651.069     3118.967     1091.256        1.205        0.293      134.516       29.660        0.049      334.709        4.859      858.078
12/12/2014  20:44:00     -127.495      174.787      -43.193       63.505      105.148       50.607     4032.921    11056.092     2561.098        3.316        0.883      216.345       61.437        0.081      334.692        4.830      858.083
12/12/2014  20:45:00     -130.576      141.929      -24.631       76.388      101.323       51.117     5835.064    10266.275     2612.906        2.825        0.936      192.857       57.090        0.088      334.659        4.773      858.081
12/12/2014  20:46:00     -186.119      192.239      -44.791       83.082       99.729       52.693     6902.683     9945.849     2776.524        4.661        0.981      267.575       52.800        0.039      334.718        4.871      858.097
12/12/2014  20:47:00     -132.342      288.227      -39.339       92.855       91.148       53.295     8622.024     8307.985     2840.404        6.095        0.989      317.158       39.341        0.015      334.671        4.793      858.111
12/12/2014  20:48:00     -156.193      233.356      -39.773       80.297      128.670       51.246     6447.551    16555.945     2626.187        5.303        1.281      280.805       44.359        0.025      334.715        4.867      858.120
12/12/2014  20:49:00     -143.680      225.472      -29.654       75.074       78.898       55.616     5636.078     6224.907     3093.174        4.365        0.748      267.360       49.237        0.034      334.682        4.810      858.127
12/12/2014  20:50:00      -89.090      192.652      -17.367       45.737       87.459       45.129     2091.891     7649.024     2036.645        2.856        0.589      212.254       30.597        0.021      334.747        4.919      858.135
12/12/2014  20:51:00     -110.873      253.383      -30.161       49.782       70.359       35.134     2478.258     4950.394     1234.385        4.303        0.433      276.579       24.761        0.008      334.695        4.831      858.136
12/12/2014  20:52:00     -134.412      118.825      -14.665       49.439       72.656       45.846     2444.260     5278.913     2101.818        2.111        0.491      179.404       23.977        0.018      334.720        4.877      858.151
12/12/2014  20:53:00     -157.937      119.655      -30.250       60.693       67.097       33.471     3683.648     4502.065     1120.322        2.474        0.465      198.145       34.465        0.030      334.663        4.781      858.153
12/12/2014  20:54:00     -166.720      154.733      -45.646       64.576       68.697       37.565     4170.082     4719.253     1411.159        3.206        0.515      227.460       33.320        0.021      334.669        4.790      858.159
12/12/2014  20:55:00     -153.867       24.354      -24.763       76.716       95.325       43.030     5885.395     9086.816     1851.562        2.085        0.841      155.783       37.634        0.058      334.688        4.824      858.159
12/12/2014  20:56:00     -194.506       27.164      -13.802       74.418       70.467       46.971     5538.085     4965.636     2206.237        2.573        0.635      196.394       44.900        0.052      334.670        4.793      858.169
12/12/2014  20:57:00     -190.989       11.718      -10.580       96.465      130.529       60.664     9305.499    17037.769     3680.061        3.337        1.501      191.348       47.696        0.062      334.718        4.873      858.164
12/12/2014  20:58:00     -132.501       67.990        2.418      109.020       98.980       61.577    11885.256     9797.071     3791.767        2.382        1.274      148.926       64.423        0.187      334.762        4.946      858.169
12/12/2014  20:59:00     -113.197       58.148        3.607       79.198       83.146       59.432     6272.317     6913.249     3532.117        1.646        0.836      127.258       43.846        0.119      334.859        5.110      858.147
12/12/2014  21:00:00     -241.230       57.731      -22.889      101.337      121.082       66.102    10269.205    14660.882     4369.494        4.567        1.465      248.042       63.230        0.065      334.798        5.004      858.156
12/12/2014  21:01:00     -180.461       67.616      -21.304       68.528       71.309       48.830     4696.139     5085.017     2384.326        2.488        0.608      192.712       28.019        0.021      334.826        5.053      858.160
12/12/2014  21:02:00     -245.343       75.371      -26.017      144.749       93.691       46.800    20952.360     8778.034     2190.223        4.923        1.596      256.659       47.499        0.034      334.757        4.937      858.185
12/12/2014  21:03:00     -273.372       92.537      -29.574      123.970      119.402       71.066    15368.624    14256.789     5050.386        5.942        1.734      288.609       66.526        0.053      334.797        5.001      858.204
12/12/2014  21:04:00     -226.590       14.543      -35.002      101.656      112.231       55.751    10333.848    12595.886     3108.152        3.940        1.302      227.056       50.241        0.049      334.779        4.973      858.207
12/12/2014  21:05:00     -171.010       59.043      -18.617      105.383       82.424       46.516    11105.652     6793.745     2163.774        2.657        1.003      180.916       41.536        0.053      334.808        5.023      858.216
12/12/2014  21:06:00     -262.979       84.746      -37.224       93.719       73.526       51.099     8783.174     5406.033     2611.099        4.726        0.840      276.297       41.638        0.023      334.761        4.943      858.210
12/12/2014  21:07:00     -256.641      121.760      -34.336      118.824       94.577       58.346    14119.067     8944.809     3404.212        5.416        1.323      284.060       56.065        0.039      334.774        4.965      858.232
12/12/2014  21:08:00     -202.365       54.700      -19.403      113.317      104.013       63.944    12840.729    10818.733     4088.839        3.603        1.387      209.627       58.459        0.078      334.768        4.955      858.239
12/12/2014  21:09:00     -234.898       87.179      -12.986       99.040       92.099       60.969     9808.828     8482.267     3717.201        4.247        1.100      250.554       36.185        0.021      334.784        4.982      858.245
12/12/2014  21:10:00     -157.879       -3.681      -16.819       68.213       57.412       31.569     4653.076     3296.151      996.602        1.708        0.447      157.922       22.548        0.020      334.771        4.961      858.244
12/12/2014  21:11:00     -190.129       60.029      -30.248      117.036      130.417       67.238    13697.440    17008.582     4520.988        3.794        1.761      199.381       74.823        0.141      334.782        4.978      858.248
12/12/2014  21:12:00     -205.053       52.638      -33.231       69.977       71.768       40.380     4896.712     5150.714     1630.552        2.880        0.584      211.701       30.586        0.021      334.762        4.945      858.265
12/12/2014  21:13:00     -140.006       37.046      -16.483       69.081       65.444       32.924     4772.175     4282.902     1083.993        1.569        0.507      144.825       27.787        0.037      334.827        5.055      858.270
12/12/2014  21:14:00     -157.514      111.261      -20.153      102.843       97.318       58.585    10576.685     9470.853     3432.149        3.053        1.174      192.846       65.090        0.114      334.800        5.008      858.288
12/12/2014  21:15:00     -191.349      139.069      -26.171       99.231       69.159       55.169     9846.840     4783.027     3043.576        3.715        0.884      236.547       48.784        0.043      334.790        4.993      858.305
12/12/2014  21:16:00     -147.180      237.024      -35.631       81.685      153.855       55.289     6672.507    23671.312     3056.832        5.625        1.670      279.002       50.261        0.032      334.732        4.895      858.309
12/12/2014  21:17:00     -133.694      183.733      -19.398       84.297      111.430       57.249     7106.067    12416.652     3277.397        3.740        1.140      227.226       53.568        0.056      334.721        4.876      858.317
12/12/2014  21:18:00     -105.944       61.887      -13.764       65.407       57.613       41.409     4278.030     3319.303     1714.675        1.228        0.466      122.696       32.412        0.070      334.854        5.101      858.326
12/12/2014  21:19:00     -112.150       48.975       -2.659       90.385       77.721       50.801     8169.360     6040.609     2580.758        1.588        0.840      122.377       43.434        0.126      334.841        5.079      858.321
12/12/2014  21:20:00     -128.731       88.828      -14.307       76.112       72.196       46.484     5792.985     5212.232     2160.786        1.891        0.658      156.404       29.977        0.037      334.806        5.019      858.327
12/12/2014  21:21:00     -235.879      109.892      -46.865       99.588       87.828       48.299     9917.837     7713.837     2332.754        4.493        0.998      260.221       34.398        0.017      334.809        5.023      858.348
12/12/2014  21:22:00     -230.713       57.994      -23.207       97.819      109.259       61.801     9568.553    11937.463     3819.395        4.122        1.266      237.890       52.331        0.048      334.809        5.023      858.361
12/12/2014  21:23:00     -118.326       84.039      -21.178       50.824       80.277       36.505     2583.041     6444.415     1332.598        1.593        0.518      145.133       36.274        0.062      334.898        5.172      858.373
12/12/2014  21:24:00     -193.362       51.167      -34.628       51.006       63.039       44.921     2601.563     3973.952     2017.880        2.490        0.430      200.018       19.403        0.009      334.849        5.091      858.389
12/12/2014  21:25:00     -150.337       73.709      -29.628       90.189       66.789       43.192     8134.069     4460.810     1865.582        2.168        0.723      167.435       40.631        0.059      334.914        5.202      858.400
12/12/2014  21:26:00     -125.082      163.030      -22.047       90.600      112.952       52.629     8208.327    12758.064     2769.792        3.322        1.187      205.485       48.352        0.055      334.850        5.092      858.412
12/12/2014  21:27:00     -121.909      -15.999       -4.710       88.680       42.890       45.175     7864.229     1839.589     2040.772        1.344        0.587      122.954       38.499        0.098      334.853        5.099      858.419
12/12/2014  21:28:00      -63.305       46.010      -13.887       43.461       72.958       40.061     1888.827     5322.852     1604.905        0.757        0.441       78.259       25.547        0.107      334.879        5.143      858.426
12/12/2014  21:29:00      -79.006      -18.969        3.741       84.792       76.660       48.309     7189.645     5876.705     2333.726        1.100        0.770       81.252       44.668        0.302      334.967        5.288      858.427
12/12/2014  21:30:00     -134.495      135.818      -26.889      106.586      115.083       52.457    11360.546    13244.188     2751.736        3.230        1.368      191.142       54.202        0.080      334.924        5.214      858.450
12/12/2014  21:31:00     -181.811      181.294      -28.829       86.916       80.634       52.228     7554.374     6501.809     2727.726        4.177        0.839      256.754       48.933        0.036      334.920        5.207      858.460
12/12/2014  21:32:00     -143.686      142.409      -15.283       83.056       56.698       49.262     6898.272     3214.660     2426.752        2.685        0.627      202.302       27.086        0.018      334.928        5.222      858.465
12/12/2014  21:33:00     -171.091      149.104      -30.741       96.872       70.704       52.236     9384.101     4998.992     2728.579        3.478        0.856      226.945       52.522        0.054      334.889        5.157      858.480
12/12/2014  21:34:00     -123.882      210.233      -28.889       53.066       69.570       36.438     2815.980     4840.043     1327.706        3.468        0.449      244.017       25.579        0.011      334.862        5.110      858.471
12/12/2014  21:35:00     -122.342       91.473       -8.050       58.350       49.871       34.806     3404.778     2487.071     1211.489        1.525        0.355      152.757       29.232        0.037      334.974        5.299      858.479
12/12/2014  21:36:00     -135.930      127.431      -32.756       51.440       75.240       35.630     2646.064     5661.132     1269.516        2.268        0.479      186.322       28.409        0.023      334.895        5.167      858.485
12/12/2014  21:37:00     -132.340       44.806      -14.609       71.903       75.487       38.487     5170.015     5698.302     1481.233        1.604        0.617      139.719       44.854        0.103      334.928        5.222      858.487
12/12/2014  21:38:00      -67.665       37.139      -13.587       45.290       39.053       29.168     2051.218     1525.130      850.743        0.528        0.221       77.187       19.219        0.062      334.876        5.138      858.502
12/12/2014  21:39:00      -46.812       91.286       -2.445       60.340       79.680       45.371     3640.888     6348.871     2058.505        1.129        0.602      102.589       43.497        0.180      334.919        5.210      858.501
12/12/2014  21:40:00     -106.355       79.431      -11.700       51.989       61.420       37.910     2702.836     3772.401     1437.166        1.283        0.396      132.743       27.398        0.043      334.958        5.274      858.505
12/12/2014  21:41:00     -157.704       20.420      -11.237       67.998       55.111       38.243     4623.707     3037.220     1462.544        1.727        0.456      159.020       34.249        0.046      334.872        5.130      858.520
12/12/2014  21:42:00     -133.792       18.444      -22.783       39.398       33.203       26.976     1552.229     1102.425      727.721        1.107        0.169      135.058       23.694        0.031      334.935        5.235      858.523
12/12/2014  21:43:00     -104.945      -59.669      -17.112       69.771       40.484       28.383     4868.009     1638.922      805.580        1.109        0.366      120.722       22.014        0.033      334.930        5.229      858.543
12/12/2014  21:44:00     -138.682       16.396       -9.902       40.046       33.291       17.740     1603.715     1108.304      314.707        1.131        0.151      139.648       18.976        0.018      334.853        5.099      858.559
12/12/2014  21:45:00      -82.201      -24.223        5.511       73.686       41.400       29.169     5429.635     1713.982      850.858        0.768        0.400       85.696       37.059        0.187      334.886        5.154      858.575
12/12/2014  21:46:00     -117.882       35.065      -23.383       61.790       79.416       30.155     3817.996     6306.854      909.352        1.335        0.552      122.987       40.519        0.109      334.888        5.157      858.589
12/12/2014  21:47:00     -243.402      -10.691      -20.213       82.572       83.560       41.942     6818.093     6982.340     1759.104        3.766        0.778      243.637       25.388        0.011      334.896        5.169      858.580
12/12/2014  21:48:00     -213.827      -59.735       -4.097       74.182       55.243       42.747     5502.905     3051.747     1827.316        2.984        0.519      222.014       44.723        0.041      334.865        5.115      858.595
12/12/2014  21:49:00     -239.042       -1.033      -19.066       78.959       65.733       32.750     6234.599     4320.816     1072.533        3.456        0.581      239.044       40.130        0.028      334.791        4.993      858.612
12/12/2014  21:50:00     -148.874      -74.225      -13.334       69.107       52.988       32.286     4775.733     2807.748     1042.408        1.824        0.431      166.352       26.501        0.025      334.803        5.014      858.624
12/12/2014  21:51:00     -181.587      -46.090      -15.730       86.631       74.920       34.288     7504.891     5612.957     1175.672        2.482        0.715      187.345       34.131        0.033      334.865        5.118      858.637
12/12/2014  21:52:00     -175.902      -42.473       -9.060       72.203       78.509       32.627     5213.233     6163.645     1064.495        2.263        0.622      180.957       36.747        0.041      334.906        5.186      858.647
12/12/2014  21:53:00     -189.381        8.231      -17.537       68.101       81.106       37.626     4637.797     6578.203     1415.717        2.443        0.632      189.560       39.868        0.044      334.847        5.088      858.654
12/12/2014  21:54:00     -116.711       41.727       -2.090       68.610       43.306       33.239     4707.299     1875.387     1104.858        1.153        0.384      123.946       30.514        0.061      334.926        5.221      858.648
12/12/2014  21:55:00     -100.573       30.106       -7.622       37.510       26.049       25.647     1407.030      678.567      657.752        0.691        0.137      104.983       12.738        0.015      335.077        5.472      858.637
12/12/2014  21:56:00      -44.540        3.702        0.988       30.721       27.331       22.734      943.807      746.993      516.837        0.210        0.110       44.694       20.433        0.209      335.166        5.618      858.638
12/12/2014  21:57:00     -114.420      -61.227      -23.973       42.872       35.420       15.405     1837.972     1254.542      237.329        1.037        0.166      129.771       12.687        0.010      334.893        5.167      858.638
12/12/2014  21:58:00     -237.595      -76.814      -29.630       30.149       29.011       18.634      908.959      841.626      347.221        3.266        0.105      249.703       12.673        0.003      334.934        5.229      858.642
12/12/2014  21:59:00     -172.034      -18.539      -11.850       56.266       54.404       30.221     3165.832     2959.751      913.332        1.856        0.352      173.030       29.571        0.029      334.928        5.221      858.658
12/12/2014  22:00:00     -159.802      -23.952      -10.670       54.390       47.245       29.394     2958.295     2232.095      863.986        1.614        0.303      161.587       29.040        0.032      334.992        5.332      858.670
12/12/2014  22:01:00     -146.865      -73.407       -0.987       56.382       55.467       29.891     3178.916     3076.540      893.473        1.705        0.357      164.189       23.933        0.021      334.932        5.229      858.682
12/12/2014  22:02:00     -111.707      -56.692        3.772       65.874       39.346       24.325     4339.430     1548.098      591.694        1.109        0.324      125.269       23.840        0.036      334.937        5.238      858.696
12/12/2014  22:03:00      -71.100      -50.672        4.781       57.267       43.674       25.897     3279.463     1907.401      670.667        0.675        0.293       87.309       32.590        0.139      334.968        5.292      858.710
12/12/2014  22:04:00     -156.851     -176.576      -18.676       47.185       37.170       24.024     2226.420     1381.612      577.160        3.016        0.209      236.181       20.194        0.007      334.963        5.278      858.717
12/12/2014  22:05:00     -107.598     -108.725       -2.221       49.349       62.532       37.423     2435.354     3910.223     1400.451        1.557        0.387      152.966       33.870        0.049      334.951        5.262      858.718
12/12/2014  22:06:00     -102.519     -111.535       -5.051       70.151       67.159       31.841     4921.228     4510.291     1013.837        1.671        0.522      151.493       35.799        0.056      334.943        5.248      858.727
12/12/2014  22:07:00     -140.165     -113.010      -10.509       45.635       59.023       29.716     2082.589     3483.656      883.050        1.949        0.322      180.048       24.103        0.018      334.950        5.260      858.739
12/12/2014  22:08:00     -152.131     -118.541       -8.234       67.291       60.880       36.058     4528.108     3706.365     1300.200        2.340        0.477      192.862       39.656        0.042      334.866        5.119      858.752
12/12/2014  22:09:00     -112.563     -103.678        0.678       59.678       57.752       35.465     3561.469     3335.296     1257.736        1.579        0.408      153.034       33.593        0.048      334.869        5.126      858.766
12/12/2014  22:10:00     -139.985     -125.150       -0.841       53.249       50.239       35.726     2835.457     2523.927     1276.319        2.095        0.332      187.772       36.428        0.038      334.865        5.119      858.761
12/12/2014  22:11:00      -72.244      -88.247        2.891       48.969       50.767       34.611     2398.007     2577.314     1197.908        0.959        0.309      114.047       32.352        0.080      334.890        5.161      858.759
12/12/2014  22:12:00      -38.059      -62.391       15.358       59.662       33.142       27.034     3559.603     1098.361      730.815        0.548        0.269       73.083       22.149        0.092      334.923        5.216      858.757
12/12/2014  22:13:00     -114.953     -101.994      -13.774       66.362       39.476       31.702     4403.909     1558.384     1005.026        1.539        0.348      153.678       31.941        0.043      334.889        5.160      858.766
12/12/2014  22:14:00      -94.430      -78.524       -1.646       63.375       38.410       25.617     4016.434     1475.298      656.239        1.062        0.307      122.813       23.893        0.038      334.874        5.136      858.771
12/12/2014  22:15:00     -114.467      -47.334        0.255       27.428       25.125       19.073      752.297      631.280      363.791        0.854        0.087      123.867        7.728        0.004      334.917        5.206      858.781
12/12/2014  22:16:00      -64.711      -68.405        7.267       45.669       34.220       22.254     2085.623     1171.004      495.248        0.633        0.188       94.163       24.322        0.067      334.903        5.182      858.786
12/12/2014  22:17:00      -93.523      -58.262       -9.327       33.890       27.011       20.985     1148.531      729.585      440.361        0.727        0.116      110.186       12.772        0.013      334.881        5.148      858.799
12/12/2014  22:18:00      -42.951      -24.178       -0.379       35.148       26.224       19.921     1235.386      687.708      396.849        0.237        0.116       49.288       17.907        0.132      334.907        5.189      858.816
12/12/2014  22:19:00      -57.288      -68.933        3.814       39.131       42.639       28.843     1531.219     1818.110      831.922        0.611        0.209       89.631       26.228        0.086      334.902        5.180      858.825
12/12/2014  22:20:00      -47.038      -80.921        2.218       40.584       44.050       30.204     1647.040     1940.361      912.306        0.663        0.225       93.599       29.749        0.101      334.857        5.105      858.839
12/12/2014  22:21:00      -66.336      -80.799        4.681       48.277       40.204       24.749     2330.693     1616.351      612.496        0.775        0.228      104.542       23.828        0.052      334.866        5.120      858.841
12/12/2014  22:22:00     -118.307      -60.566       -6.858       39.810       45.527       19.566     1584.835     2072.691      382.824        1.088        0.202      132.909       22.285        0.028      334.869        5.127      858.858
12/12/2014  22:23:00      -47.496      -51.155        2.656       42.846       38.003       27.260     1835.775     1444.225      743.085        0.445        0.201       69.805       25.113        0.129      334.871        5.129      858.873
12/12/2014  22:24:00     -144.221      -98.275      -10.417       49.762       50.382       22.861     2476.270     2538.378      522.646        1.805        0.277      174.521       23.187        0.018      334.851        5.096      858.888
12/12/2014  22:25:00     -101.842      -83.885        6.884       60.714       42.541       37.089     3686.218     1809.771     1375.616        1.216        0.344      131.941       33.103        0.063      334.820        5.045      858.908
12/12/2014  22:26:00     -186.873     -106.368      -13.751       49.834       53.063       26.510     2483.466     2815.733      702.803        2.621        0.300      215.025       25.001        0.014      334.773        4.961      858.922
12/12/2014  22:27:00     -120.149      -58.787       -2.145       54.067       54.392       28.714     2923.259     2958.467      824.490        1.230        0.335      133.759       29.022        0.047      334.763        4.949      858.944
12/12/2014  22:28:00     -106.640     -100.534       -8.332       72.379       68.597       37.657     5238.753     4705.575     1418.061        1.645        0.568      146.557       47.515        0.105      334.788        4.990      858.960
12/12/2014  22:29:00     -123.028      -57.417       -4.066       73.311       42.743       27.583     5374.544     1826.971      760.839        1.320        0.398      135.766       39.429        0.084      334.757        4.940      858.984
12/12/2014  22:30:00     -110.164      -58.036        1.824       48.334       62.674       26.931     2336.219     3928.076      725.301        1.125        0.349      124.516       30.699        0.061      334.751        4.931      858.990
12/12/2014  22:31:00      -45.852      -48.534        9.018       39.217       40.710       26.314     1537.958     1657.288      692.429        0.421        0.194       66.768       19.697        0.087      334.818        5.041      859.007
12/12/2014  22:32:00      -66.875      -32.499        3.462       45.846       41.003       21.525     2101.876     1681.259      463.326        0.489        0.212       74.353       25.107        0.114      334.752        4.932      859.012
12/12/2014  22:33:00      -77.557      -21.095       -4.013       34.581       30.047       20.868     1195.875      902.840      435.468        0.450        0.127       80.375       15.010        0.035      334.821        5.046      859.019
12/12/2014  22:34:00      -42.064       -2.984        9.344       35.415       27.102       22.774     1254.214      734.514      518.668        0.219        0.125       42.169       26.168        0.385      334.850        5.095      859.033
12/12/2014  22:35:00      -31.577       -7.765        5.471       24.146       16.149       16.641      583.031      260.806      276.920        0.110        0.056       32.518       17.655        0.295      334.774        4.968      859.037
12/12/2014  22:36:00      -76.611      -25.800      -12.572       30.837       21.204       16.740      950.914      449.621      280.218        0.419        0.084       80.839       19.370        0.057      334.759        4.944      859.052
12/12/2014  22:37:00      -43.718      -49.098        9.527       44.213       37.231       29.506     1954.780     1386.113      870.576        0.431        0.211       65.741       23.652        0.129      334.715        4.870      859.065
12/12/2014  22:38:00      -85.909        4.620       -5.758       62.081       42.755       27.522     3854.108     1827.954      757.449        0.694        0.322       86.033       32.579        0.143      334.764        4.950      859.084
12/12/2014  22:39:00      -37.773      -42.632       11.300       47.598       26.803       20.759     2265.544      718.391      430.926        0.339        0.171       56.959       25.260        0.197      334.690        4.827      859.096
12/12/2014  22:40:00       11.834        9.557        2.060       29.939       39.327       27.141      896.324     1546.583      736.617        0.171        0.159       15.211       21.172        1.937      334.705        4.854      859.108
12/12/2014  22:41:00      -42.310        5.713       27.618       80.824       33.498       43.352     6532.455     1122.095     1879.396        0.606        0.477       42.694       51.137        1.435      334.639        4.744      859.113
12/12/2014  22:42:00     -143.960      -46.863       -1.039       53.096       46.854       31.589     2819.216     2195.325      997.874        1.447        0.301      151.395       28.929        0.037      334.569        4.626      859.138
12/12/2014  22:43:00      -84.743      -29.267       -2.628       39.679       34.995       25.934     1574.460     1224.642      672.595        0.576        0.174       89.654       25.972        0.084      334.517        4.542      859.156
12/12/2014  22:44:00      -77.816      -31.923       -3.343       30.363       29.776       17.410      921.882      886.593      303.114        0.460        0.106       84.109       17.134        0.041      334.554        4.603      859.161
12/12/2014  22:45:00       -6.716      -48.220       -3.497       31.354       29.127       22.141      983.063      848.404      490.222        0.235        0.116       48.685       19.266        0.157      334.597        4.673      859.177
12/12/2014  22:46:00      -40.352      -25.034        2.932       46.246       19.010       16.877     2138.687      361.367      284.837        0.252        0.139       47.487       24.207        0.260      334.571        4.632      859.194
12/12/2014  22:47:00      -45.053       12.917       -6.057       23.949       51.919       26.607      573.568     2695.597      707.944        0.310        0.199       46.868       25.929        0.306      334.557        4.608      859.211
12/12/2014  22:48:00      -52.090       34.317       -5.922       55.511       40.771       23.975     3081.429     1662.314      574.781        0.462        0.266       62.378       17.889        0.082      334.637        4.742      859.222
12/12/2014  22:49:00     -122.773      -10.042      -11.673       50.306       38.729       26.793     2530.713     1499.944      717.856        1.003        0.237      123.183       25.408        0.043      334.573        4.634      859.236
12/12/2014  22:50:00     -185.059      -41.563      -17.847       33.376       47.436       24.495     1113.948     2250.148      599.985        2.013        0.198      189.669       19.417        0.010      334.465        4.456      859.241
12/12/2014  22:51:00     -145.953      -33.840      -16.887       52.988       44.317       24.382     2807.762     1964.029      594.500        1.405        0.268      149.825       18.145        0.015      334.439        4.413      859.244
12/12/2014  22:52:00      -75.410      -83.931       -7.830       59.256       48.655       24.240     3511.231     2367.273      587.572        0.963        0.323      112.832       28.198        0.062      334.430        4.398      859.253
12/12/2014  22:53:00      -13.344      -23.269        7.169       32.800       30.998       22.881     1075.817      960.868      523.549        0.167        0.128       26.824       19.194        0.512      334.427        4.394      859.247
12/12/2014  22:54:00      -30.864      -46.295       -0.487       27.643       30.146       15.370      764.150      908.792      236.236        0.250        0.095       55.640       17.548        0.099      334.475        4.473      859.245
12/12/2014  22:55:00      -36.838      -13.666        8.759       25.405       17.644       14.605      645.435      311.300      213.320        0.140        0.059       39.291       15.831        0.162      334.441        4.416      859.244
12/12/2014  22:56:00      -15.107      -14.027       -3.955       11.213       16.266       13.945      125.742      264.570      194.459        0.051        0.029       20.615        9.485        0.212      334.452        4.433      859.244
12/12/2014  22:57:00      -28.812      -13.172      -12.210       18.951       22.288       12.706      359.137      496.770      161.445        0.108        0.051       31.680        6.588        0.043      334.475        4.473      859.242
12/12/2014  22:58:00      -27.213      -55.750        7.010       27.090       36.634       25.454      733.852     1342.056      647.892        0.331        0.136       62.037       17.004        0.075      334.470        4.464      859.245
12/12/2014  22:59:00      -48.538     -150.204        1.991       50.840       75.928       33.274     2584.756     5765.102     1107.140        1.719        0.473      157.851       38.988        0.061      334.446        4.424      859.232
12/12/2014  23:00:00      -89.761       13.202       -4.561       26.347       32.991       16.991      694.175     1088.402      288.681        0.516        0.104       90.727        9.471        0.011      334.650        4.762      859.242
12/12/2014  23:01:00     -109.726      -51.153       -8.586       46.945       41.351       19.970     2203.835     1709.898      398.794        0.952        0.216      121.064       17.036        0.020      334.549        4.595      859.249
12/12/2014  23:02:00      -81.402      -27.113        2.152       67.052       44.100       28.621     4496.006     1944.839      819.152        0.731        0.363       85.799       37.108        0.187      334.420        4.381      859.244
12/12/2014  23:03:00     -130.047      -15.368       -5.413       44.847       41.896       28.825     2011.235     1755.269      830.907        1.089        0.230      130.952       24.598        0.035      334.453        4.434      859.233
12/12/2014  23:04:00     -150.310      -21.101       -7.121       64.993       36.421       31.255     4224.130     1326.455      976.850        1.481        0.326      151.784       35.115        0.054      334.418        4.376      859.223
12/12/2014  23:05:00      -52.391      -76.554        0.738       38.586       38.012       19.411     1488.901     1444.945      376.790        0.596        0.166       92.765       16.887        0.033      334.403        4.353      859.210
12/12/2014  23:06:00      -74.866      -34.551       -6.124       24.508       30.980       18.256      600.621      959.787      333.299        0.436        0.095       82.454       12.191        0.022      334.393        4.336      859.208
12/12/2014  23:07:00      -40.052      -43.292        3.980       22.051       36.984       16.009      486.228     1367.829      256.278        0.280        0.106       58.977       15.449        0.069      334.442        4.418      859.204
12/12/2014  23:08:00      -42.327      -40.825        0.870       22.165       34.814       12.148      491.293     1212.024      147.583        0.265        0.093       58.807       12.202        0.043      334.421        4.384      859.204
12/12/2014  23:09:00        0.227      -15.292        7.066       23.298       26.584       17.408      542.810      706.730      303.046        0.092        0.078       15.294       12.252        0.642      334.428        4.394      859.196
12/12/2014  23:10:00      -17.782      -15.318       10.208       25.165       28.372       15.893      633.275      804.976      252.602        0.117        0.085       23.470        8.857        0.142      334.413        4.371      859.192
12/12/2014  23:11:00      -44.825      -13.902        6.491       34.301       24.021       21.547     1176.587      577.000      464.285        0.223        0.111       46.931       17.902        0.146      334.373        4.303      859.193
12/12/2014  23:12:00      -18.209      -55.157        4.025       36.042       48.267       25.050     1299.046     2329.694      627.489        0.382        0.213       58.085       23.795        0.168      334.449        4.430      859.196
12/12/2014  23:13:00      -50.924      -63.654        4.651       38.009       40.321       20.885     1444.662     1625.748      436.193        0.509        0.175       81.518       24.410        0.090      334.450        4.432      859.207
12/12/2014  23:14:00      -36.351      -28.317        1.537       51.522       28.259       18.106     2654.486      798.544      327.839        0.295        0.189       46.079       16.109        0.122      334.409        4.364      859.196
12/12/2014  23:15:00      -17.505      -55.875       -6.141       58.372       22.237       19.576     3407.319      494.499      383.227        0.387        0.214       58.553       19.130        0.107      334.516        4.541      859.199
12/12/2014  23:16:00      -32.847      -21.265        0.600       38.827       27.636       21.974     1507.535      763.771      482.871        0.214        0.138       39.130       18.778        0.230      334.492        4.500      859.201
12/12/2014  23:17:00      -77.312      -38.076       -5.947       49.200       29.112       22.133     2420.675      847.509      489.864        0.561        0.188       86.180       25.991        0.091      334.438        4.413      859.205
12/12/2014  23:18:00      -52.553      -48.502       -0.545       38.355       29.830       21.697     1471.143      889.824      470.774        0.397        0.142       71.514       18.024        0.064      334.457        4.443      859.208
12/12/2014  23:19:00      -63.532      -20.973        9.145       50.921       49.618       28.924     2592.945     2461.964      836.573        0.522        0.295       66.905       33.669        0.253      334.391        4.334      859.223
12/12/2014  23:20:00      -76.880      -40.384        6.956       56.912       51.367       22.353     3238.972     2638.588      499.644        0.698        0.319       86.841       22.793        0.069      334.408        4.360      859.233
12/12/2014  23:21:00     -165.545      -89.419      -11.008       58.160       57.569       28.820     3382.543     3314.186      830.578        2.152        0.376      188.151       18.569        0.010      334.363        4.285      859.244
12/12/2014  23:22:00      -71.080      -38.078        0.473       39.113       37.752       18.135     1529.836     1425.194      328.870        0.489        0.164       80.636       16.901        0.044      334.380        4.316      859.251
12/12/2014  23:23:00      -63.814      -23.174       -7.244       22.110       25.812       14.168      488.856      666.273      200.726        0.301        0.068       67.892       12.334        0.033      334.382        4.318      859.257
12/12/2014  23:24:00      -58.505       -0.499       -3.487       25.314       16.905       14.869      640.804      285.781      221.087        0.229        0.057       58.507       12.825        0.048      334.486        4.491      859.254
12/12/2014  23:25:00      -55.352      -35.093       -6.880       22.961       21.135       13.293      527.210      446.705      176.717        0.275        0.058       65.539       13.721        0.044      334.407        4.361      859.250
12/12/2014  23:26:00      -66.162      -37.950       -0.367       56.690       21.829       19.119     3213.803      476.490      365.550        0.494        0.203       76.273       15.926        0.044      334.363        4.288      859.238
12/12/2014  23:27:00     -153.934      -84.596       -8.938       47.850       32.454       25.675     2289.651     1053.279      659.182        1.747        0.200      175.648       23.224        0.017      334.363        4.286      859.227
12/12/2014  23:28:00     -100.387      -87.982       -1.112       59.135       38.300       31.561     3496.961     1466.857      996.083        1.189        0.298      133.486       29.977        0.050      334.378        4.311      859.228
12/12/2014  23:29:00     -104.932      -40.141       -1.568       45.750       43.516       21.085     2093.064     1893.686      444.571        0.853        0.222      112.348       18.560        0.027      334.341        4.249      859.231
12/12/2014  23:30:00      -99.886      -47.364      -17.508       35.562       30.602       21.924     1264.648      936.479      480.641        0.760        0.134      110.547       12.083        0.012      334.416        4.374      859.234
12/12/2014  23:31:00      -80.302        0.321       -5.624       31.320       17.685       21.165      980.913      312.751      447.946        0.411        0.087       80.302       17.666        0.048      334.457        4.441      859.234
12/12/2014  23:32:00      -75.965      -13.888       -9.505       20.306       24.366       16.826      412.336      593.679      283.126        0.367        0.064       77.224       11.725        0.023      334.469        4.461      859.239
12/12/2014  23:33:00     -101.153      -11.982       -8.661       31.266       30.082       21.144      977.567      904.910      447.077        0.639        0.116      101.860       17.341        0.029      334.418        4.379      859.244
12/12/2014  23:34:00     -101.185        2.169      -16.166       27.153       36.557       16.454      737.282     1336.421      270.726        0.642        0.117      101.209       14.899        0.022      334.531        4.565      859.242
12/12/2014  23:35:00      -27.845       59.841      -12.746       33.980       33.726       18.742     1154.619     1137.436      351.281        0.358        0.132       66.002       14.194        0.046      334.344        4.255      859.247
12/12/2014  23:36:00       22.137       68.134       -8.722       25.438       28.988       22.256      647.079      840.291      495.318        0.360        0.099       71.640       20.486        0.082      334.122        3.887      859.261
12/12/2014  23:37:00       47.924       55.895        5.000       35.693       29.347       22.212     1274.018      861.272      493.368        0.404        0.131       73.627       18.989        0.067      334.065        3.791      859.264
12/12/2014  23:38:00       91.820       73.324        8.170       50.591       33.777       37.803     2559.427     1140.859     1429.052        0.950        0.256      117.504       24.408        0.043      334.078        3.813      859.262
12/12/2014  23:39:00       92.488       70.256       12.598       42.495       27.669       28.747     1805.838      765.573      826.367        0.852        0.170      116.146       15.889        0.019      334.015        3.710      859.258
12/12/2014  23:40:00       62.501       57.846        0.119       37.328       34.125       25.427     1393.409     1164.543      646.546        0.523        0.160       85.162       21.662        0.065      334.024        3.725      859.260
12/12/2014  23:41:00       36.718       31.524        2.262       21.483       27.483       18.429      461.538      755.333      339.631        0.195        0.078       48.394       13.954        0.083      334.035        3.743      859.264
12/12/2014  23:42:00       22.443       63.562       -2.030       20.061       27.257       22.158      402.445      742.923      490.989        0.309        0.082       67.408       19.094        0.080      334.073        3.805      859.277
12/12/2014  23:43:00        7.586       87.551      -11.733       15.130       20.103       12.842      228.905      404.130      164.919        0.433        0.040       87.879       12.374        0.020      334.112        3.871      859.290
12/12/2014  23:44:00      -50.566      100.419      -20.821       34.298       27.386       15.745     1176.325      749.989      247.892        0.762        0.109      112.431       15.723        0.020      334.252        4.102      859.298
12/12/2014  23:45:00      -57.558       75.957      -11.025       31.393       35.322       19.202      985.511     1247.661      368.726        0.590        0.130       95.302       13.140        0.019      334.290        4.166      859.300
12/12/2014  23:46:00      -51.131       99.892      -11.852       30.655       28.142       20.381      939.753      791.991      415.396        0.744        0.107      112.218        9.758        0.008      334.281        4.152      859.308
12/12/2014  23:47:00      -32.020      105.312      -14.959       32.593       67.280       22.184     1062.333     4526.544      492.125        0.921        0.304      110.072       29.396        0.071      334.295        4.172      859.317
12/12/2014  23:48:00      -43.185      206.264      -28.126       40.592       51.158       23.197     1647.719     2617.118      538.107        2.500        0.240      210.736       18.517        0.008      334.182        3.983      859.330
12/12/2014  23:49:00      -64.482       62.616       -9.969       30.472       37.398       22.654      928.549     1398.630      513.194        0.551        0.142       89.882       17.001        0.036      334.240        4.082      859.336
12/12/2014  23:50:00      -96.515       34.575      -11.226       37.154       30.368       21.055     1380.384      922.196      443.302        0.669        0.137      102.521       21.530        0.044      334.250        4.099      859.342
12/12/2014  23:51:00      -94.860       39.670       -9.760       38.476       27.875       25.886     1480.384      777.030      670.101        0.680        0.146      102.821       20.857        0.041      334.253        4.104      859.340
12/12/2014  23:52:00     -102.447       37.951      -15.812       49.424       29.990       19.961     2442.776      899.382      398.437        0.796        0.187      109.251       18.988        0.030      334.169        3.965      859.342
12/12/2014  23:53:00      -78.084       17.809      -21.690       32.867       35.186       19.067     1080.236     1238.040      363.562        0.478        0.134       80.089       18.616        0.054      334.089        3.832      859.336
12/12/2014  23:54:00      -31.476       41.201       -7.978       36.896       52.298       27.291     1361.334     2735.060      744.813        0.380        0.242       51.849        9.142        0.031      334.090        3.831      859.333
12/12/2014  23:55:00      -78.172       -2.462       -9.949       45.698       83.136       13.649     2088.269     6911.632      186.306        0.770        0.459       78.211       16.409        0.044      334.105        3.859      859.330
12/12/2014  23:56:00      -41.149        4.728        3.002       43.359       17.446       17.732     1880.030      304.356      314.421        0.211        0.125       41.419       19.305        0.217      334.052        3.771      859.339
12/12/2014  23:57:00      -52.590       -9.523        3.050       40.610       40.639       28.708     1649.145     1651.559      824.172        0.349        0.206       53.445       31.782        0.354      334.017        3.713      859.337
12/12/2014  23:58:00      -92.525        6.818      -10.121       35.143       37.395       18.840     1235.018     1398.392      354.935        0.585        0.149       92.776       15.819        0.029      334.001        3.687      859.341
12/12/2014  23:59:00     -123.091       16.656      -17.660       46.927       34.337       26.556     2202.103     1179.034      705.210        0.991        0.204      124.213       23.929        0.037      333.978        3.649      859.345
